[[{"header":{"parameterUnit":"m.s-1","parameterCategory":1,"la1":30.6,"la2":29.2853,"lo1":-89.7004,"lo2":-87.6739,"dx":0.0162,"dy":0.0183,"nx":112,"ny":82,"refTime":"2023-01-22T18:00:00:Z","depth":0,"parameterNumber":2,"parameterNumberName":"U-component_of_WINDS"},"data":[0.0,0.0,0.0,0.0,0.0,0.0,0.0,0.0,0.0,0.0,0.0,0.0,0.0,0.0,0.0,0.0,0.0,0.0,0.0,0.0,0.0,0.0,0.0,0.0,0.0,0.0,0.0,0.0,0.0,0.0,0.0,0.0,0.0,0.0,0.0,0.0,0.0,0.0,0.0,0.0,0.0,0.0,0.0,0.0,0.0,0.0,0.0,0.0,0.0,0.0,0.0,0.0,0.0,0.0,0.0,0.0,0.0,0.0,0.0,0.0,0.0,0.0,0.0,0.0,0.0,0.0,0.0,0.0,0.0,0.0,0.0,0.0,0.0,0.0,0.0,0.0,0.0,0.0,0.0,0.0,0.0,0.0,0.0,0.0,0.0,0.0,0.0,0.0,0.0,0.0,0.0,5.6929,5.8502,5.9767,6.0357,6.0329,5.9542,5.7772,0.0,0.0,0.0,0.0,0.0,0.0,0.0,0.0,0.0,0.0,0.0,0.0,0.0,0.0,0.0,0.0,0.0,0.0,0.0,0.0,0.0,0.0,0.0,0.0,0.0,0.0,0.0,0.0,0.0,0.0,0.0,0.0,0.0,0.0,0.0,0.0,0.0,0.0,0.0,0.0,0.0,0.0,0.0,0.0,0.0,0.0,0.0,0.0,0.0,0.0,0.0,0.0,0.0,0.0,0.0,0.0,0.0,0.0,0.0,0.0,0.0,0.0,0.0,0.0,0.0,0.0,0.0,0.0,0.0,0.0,0.0,0.0,0.0,0.0,0.0,0.0,0.0,0.0,0.0,0.0,0.0,0.0,0.0,0.0,0.0,0.0,0.0,0.0,0.0,0.0,0.0,0.0,0.0,0.0,0.0,0.0,0.0,0.0,0.0,0.0,0.0,0.0,0.0,0.0,5.6058,5.9233,6.0301,6.1059,6.1678,6.1256,6.0385,5.9008,0.0,0.0,0.0,0.0,0.0,0.0,0.0,0.0,0.0,0.0,0.0,0.0,0.0,0.0,0.0,0.0,0.0,0.0,0.0,0.0,0.0,0.0,0.0,0.0,0.0,0.0,0.0,0.0,0.0,0.0,0.0,0.0,0.0,0.0,0.0,0.0,0.0,0.0,0.0,0.0,0.0,0.0,0.0,0.0,0.0,0.0,0.0,0.0,0.0,0.0,0.0,0.0,0.0,0.0,0.0,0.0,0.0,0.0,0.0,0.0,0.0,0.0,0.0,0.0,0.0,0.0,0.0,0.0,0.0,0.0,0.0,0.0,0.0,0.0,0.0,0.0,0.0,0.0,0.0,0.0,0.0,0.0,0.0,0.0,0.0,0.0,0.0,0.0,0.0,0.0,0.0,0.0,0.0,0.0,0.0,0.0,0.0,0.0,0.0,0.0,0.0,0.0,0.0,5.6581,5.7753,6.0357,6.0919,6.134,6.1959,6.1453,6.0694,5.9767,5.7969,0.0,0.0,0.0,0.0,0.0,0.0,0.0,0.0,0.0,0.0,0.0,0.0,0.0,0.0,0.0,0.0,0.0,0.0,0.0,0.0,0.0,0.0,0.0,0.0,0.0,0.0,0.0,0.0,0.0,0.0,0.0,0.0,0.0,0.0,0.0,0.0,0.0,0.0,0.0,0.0,0.0,0.0,0.0,0.0,0.0,0.0,0.0,0.0,0.0,0.0,0.0,0.0,0.0,0.0,0.0,0.0,0.0,0.0,0.0,0.0,0.0,0.0,0.0,0.0,0.0,0.0,0.0,0.0,0.0,0.0,0.0,0.0,0.0,0.0,0.0,0.0,0.0,0.0,0.0,0.0,0.0,0.0,0.0,0.0,0.0,0.0,0.0,0.0,0.0,0.0,0.0,0.0,0.0,0.0,0.0,0.0,0.0,0.0,0.0,0.0,0.0,0.0,5.8843,5.9792,6.1144,6.1453,6.1706,6.2183,6.1678,6.0975,6.0188,5.8531,0.0,0.0,0.0,0.0,0.0,0.0,0.0,0.0,0.0,0.0,0.0,0.0,0.0,0.0,0.0,0.0,0.0,0.0,0.0,0.0,0.0,0.0,0.0,0.0,0.0,0.0,0.0,0.0,0.0,0.0,0.0,0.0,0.0,0.0,0.0,0.0,0.0,0.0,0.0,0.0,0.0,0.0,0.0,0.0,0.0,0.0,0.0,0.0,0.0,0.0,0.0,0.0,0.0,0.0,0.0,0.0,0.0,0.0,0.0,0.0,0.0,0.0,0.0,0.0,0.0,0.0,0.0,0.0,0.0,0.0,0.0,0.0,0.0,0.0,0.0,0.0,0.0,0.0,0.0,0.0,0.0,0.0,0.0,0.0,0.0,0.0,0.0,0.0,0.0,0.0,0.0,0.0,0.0,0.0,0.0,0.0,0.0,0.0,0.0,0.0,0.0,0.0,5.9341,6.1172,6.1874,6.2464,6.283,6.2858,6.2296,6.1425,6.0216,5.8952,0.0,0.0,0.0,0.0,0.0,0.0,0.0,0.0,0.0,0.0,0.0,0.0,0.0,0.0,0.0,0.0,0.0,0.0,0.0,0.0,0.0,0.0,0.0,0.0,0.0,0.0,0.0,0.0,0.0,0.0,0.0,0.0,0.0,0.0,0.0,0.0,0.0,0.0,0.0,0.0,0.0,0.0,0.0,0.0,0.0,0.0,0.0,0.0,0.0,0.0,0.0,0.0,0.0,0.0,0.0,0.0,0.0,0.0,0.0,0.0,0.0,0.0,0.0,0.0,0.0,0.0,0.0,0.0,0.0,0.0,0.0,0.0,0.0,0.0,0.0,0.0,0.0,0.0,0.0,0.0,0.0,0.0,0.0,0.0,0.0,0.0,0.0,0.0,0.0,0.0,0.0,0.0,0.0,0.0,0.0,0.0,0.0,0.0,0.0,0.0,0.0,0.0,6.0127,6.1711,0.0,6.2773,6.2942,6.2942,6.2717,6.1874,6.0245,0.0,0.0,0.0,0.0,0.0,0.0,0.0,0.0,0.0,0.0,0.0,0.0,0.0,0.0,0.0,0.0,0.0,0.0,0.0,0.0,0.0,0.0,0.0,0.0,0.0,0.0,0.0,0.0,0.0,0.0,0.0,0.0,0.0,0.0,0.0,0.0,0.0,0.0,0.0,0.0,0.0,0.0,0.0,0.0,0.0,0.0,0.0,0.0,0.0,0.0,0.0,0.0,0.0,0.0,0.0,0.0,0.0,0.0,0.0,0.0,0.0,0.0,0.0,0.0,0.0,0.0,0.0,0.0,0.0,0.0,0.0,0.0,0.0,0.0,0.0,0.0,0.0,0.0,0.0,0.0,0.0,0.0,0.0,0.0,0.0,0.0,0.0,0.0,0.0,0.0,0.0,0.0,0.0,0.0,0.0,0.0,0.0,0.0,0.0,0.0,0.0,0.0,5.9165,6.075,6.2247,0.0,6.2942,6.2942,6.2942,6.2745,6.1846,5.9964,0.0,0.0,0.0,0.0,0.0,0.0,0.0,0.0,0.0,0.0,0.0,0.0,0.0,0.0,0.0,0.0,0.0,0.0,0.0,0.0,0.0,0.0,0.0,0.0,0.0,0.0,0.0,0.0,0.0,0.0,0.0,0.0,0.0,0.0,0.0,0.0,0.0,0.0,0.0,0.0,0.0,0.0,0.0,0.0,0.0,0.0,0.0,0.0,0.0,0.0,0.0,0.0,0.0,0.0,0.0,0.0,0.0,0.0,0.0,0.0,0.0,0.0,0.0,0.0,0.0,0.0,0.0,0.0,0.0,0.0,0.0,0.0,0.0,0.0,0.0,0.0,0.0,0.0,0.0,0.0,0.0,0.0,0.0,0.0,0.0,0.0,0.0,0.0,0.0,0.0,0.0,0.0,0.0,0.0,0.0,0.0,0.0,0.0,0.0,0.0,0.0,0.0,5.9337,6.1388,6.2942,6.2942,6.2942,6.2942,6.2942,6.238,6.1228,0.0,0.0,0.0,0.0,0.0,0.0,0.0,0.0,0.0,0.0,0.0,0.0,0.0,0.0,0.0,0.0,0.0,0.0,0.0,0.0,0.0,0.0,0.0,0.0,0.0,0.0,0.0,0.0,0.0,0.0,0.0,0.0,0.0,0.0,0.0,0.0,0.0,0.0,0.0,0.0,0.0,0.0,0.0,0.0,0.0,0.0,0.0,0.0,0.0,0.0,0.0,0.0,0.0,0.0,0.0,0.0,0.0,0.0,0.0,0.0,0.0,0.0,0.0,0.0,0.0,0.0,0.0,0.0,0.0,0.0,0.0,0.0,0.0,0.0,0.0,0.0,0.0,0.0,0.0,0.0,0.0,0.0,0.0,0.0,0.0,0.0,0.0,0.0,0.0,0.0,0.0,0.0,0.0,0.0,0.0,0.0,0.0,0.0,0.0,0.0,0.0,0.0,0.0,5.9598,6.1542,6.2942,6.2942,6.2942,6.2942,6.2942,6.2773,6.1678,5.9373,0.0,0.0,0.0,0.0,0.0,0.0,0.0,0.0,0.0,0.0,0.0,0.0,0.0,0.0,0.0,0.0,0.0,0.0,0.0,0.0,0.0,0.0,0.0,0.0,0.0,0.0,0.0,0.0,0.0,0.0,0.0,0.0,0.0,0.0,0.0,0.0,0.0,0.0,0.0,0.0,0.0,0.0,0.0,0.0,0.0,0.0,0.0,0.0,0.0,0.0,0.0,0.0,0.0,0.0,0.0,0.0,0.0,0.0,0.0,0.0,0.0,0.0,0.0,0.0,0.0,0.0,0.0,0.0,0.0,0.0,0.0,0.0,0.0,0.0,0.0,0.0,0.0,0.0,0.0,0.0,0.0,0.0,0.0,0.0,0.0,0.0,0.0,0.0,0.0,0.0,0.0,0.0,0.0,0.0,0.0,0.0,0.0,0.0,0.0,0.0,0.0,0.0,5.9825,6.1655,6.2942,6.2942,6.2942,6.2942,6.2942,6.2942,6.1959,5.9711,0.0,0.0,0.0,0.0,0.0,0.0,0.0,0.0,0.0,0.0,0.0,0.0,0.0,0.0,0.0,0.0,0.0,0.0,0.0,0.0,0.0,0.0,0.0,0.0,0.0,0.0,0.0,0.0,0.0,0.0,0.0,0.0,0.0,0.0,0.0,0.0,0.0,0.0,0.0,0.0,0.0,0.0,0.0,0.0,0.0,0.0,0.0,0.0,0.0,0.0,0.0,0.0,0.0,0.0,0.0,0.0,0.0,0.0,0.0,0.0,0.0,0.0,0.0,0.0,0.0,0.0,0.0,0.0,0.0,0.0,0.0,0.0,0.0,0.0,0.0,0.0,0.0,0.0,0.0,0.0,0.0,0.0,0.0,0.0,0.0,0.0,0.0,0.0,0.0,0.0,0.0,0.0,0.0,0.0,0.0,0.0,0.0,0.0,0.0,0.0,0.0,0.0,6.0071,6.1755,6.2942,6.2942,6.2942,6.2942,6.2942,6.2942,6.2155,6.0329,0.0,0.0,0.0,0.0,0.0,0.0,0.0,0.0,0.0,0.0,0.0,0.0,0.0,0.0,0.0,0.0,0.0,0.0,0.0,0.0,0.0,0.0,0.0,0.0,0.0,0.0,0.0,0.0,0.0,0.0,0.0,0.0,0.0,0.0,0.0,0.0,0.0,0.0,0.0,0.0,0.0,0.0,0.0,0.0,0.0,0.0,0.0,0.0,0.0,0.0,0.0,0.0,0.0,0.0,0.0,0.0,0.0,0.0,0.0,0.0,5.5039,0.0,0.0,0.0,0.0,0.0,0.0,0.0,0.0,0.0,0.0,0.0,0.0,0.0,0.0,0.0,0.0,0.0,0.0,0.0,0.0,0.0,0.0,0.0,0.0,0.0,0.0,0.0,0.0,0.0,0.0,0.0,0.0,0.0,0.0,0.0,0.0,0.0,0.0,0.0,0.0,0.0,5.9853,6.1655,6.2942,6.2942,6.2942,6.2942,6.2942,6.2942,6.2352,6.0975,6.0301,0.0,0.0,0.0,0.0,0.0,0.0,0.0,0.0,0.0,0.0,0.0,0.0,0.0,0.0,0.0,0.0,0.0,0.0,0.0,0.0,0.0,0.0,0.0,0.0,0.0,0.0,0.0,0.0,0.0,0.0,0.0,0.0,0.0,0.0,0.0,0.0,0.0,0.0,0.0,0.0,0.0,0.0,0.0,0.0,0.0,0.0,0.0,0.0,0.0,0.0,0.0,0.0,0.0,0.0,0.0,0.0,0.0,0.0,0.0,0.0,5.6142,0.0,0.0,0.0,0.0,0.0,0.0,0.0,0.0,0.0,0.0,0.0,0.0,0.0,0.0,0.0,0.0,0.0,0.0,0.0,0.0,0.0,0.0,0.0,0.0,0.0,0.0,0.0,0.0,0.0,0.0,0.0,0.0,0.0,0.0,0.0,0.0,0.0,0.0,0.0,0.0,5.9825,6.1655,6.2942,6.2942,6.2942,6.3054,6.3307,6.3335,6.2942,6.2043,6.1397,0.0,0.0,0.0,0.0,0.0,0.0,0.0,0.0,0.0,0.0,0.0,0.0,0.0,0.0,0.0,0.0,0.0,0.0,0.0,0.0,0.0,0.0,0.0,0.0,0.0,0.0,0.0,0.0,0.0,0.0,0.0,0.0,0.0,0.0,0.0,0.0,0.0,0.0,0.0,0.0,0.0,0.0,0.0,0.0,0.0,0.0,0.0,0.0,0.0,0.0,0.0,0.0,0.0,0.0,6.1658,6.0928,6.16,6.1919,6.1948,6.0322,6.0235,6.1019,0.0,0.0,0.0,0.0,0.0,0.0,0.0,0.0,0.0,0.0,0.0,0.0,0.0,0.0,0.0,0.0,0.0,0.0,0.0,0.0,0.0,0.0,0.0,0.0,0.0,6.0879,6.119,0.0,0.0,0.0,0.0,0.0,0.0,0.0,0.0,0.0,0.0,0.0,0.0,6.0233,6.2094,6.3251,6.3251,6.3251,6.3448,6.3926,6.3954,6.3757,6.3279,6.2661,6.1621,0.0,0.0,0.0,0.0,0.0,0.0,0.0,0.0,0.0,0.0,0.0,0.0,0.0,0.0,0.0,0.0,0.0,0.0,0.0,0.0,0.0,0.0,0.0,0.0,0.0,0.0,0.0,0.0,0.0,0.0,0.0,0.0,5.3144,5.3852,0.0,0.0,0.0,0.0,0.0,0.0,0.0,0.0,0.0,0.0,0.0,0.0,0.0,0.0,6.0671,6.2412,6.2832,6.2332,6.4347,6.4839,6.3948,6.4318,6.4793,6.5286,6.5025,0.0,6.1164,6.0816,0.0,0.0,0.0,0.0,0.0,0.0,0.0,0.0,0.0,0.0,0.0,0.0,0.0,0.0,0.0,0.0,0.0,0.0,0.0,0.0,0.0,0.0,6.2427,6.1762,6.1762,6.1818,0.0,6.0297,5.9194,5.9022,0.0,0.0,0.0,0.0,0.0,0.0,0.0,0.0,6.126,6.3235,6.4516,6.4516,6.4516,6.4544,6.4628,6.4628,6.46,6.4516,6.3926,6.3448,6.3195,6.1593,0.0,0.0,0.0,0.0,0.0,0.0,0.0,0.0,0.0,0.0,0.0,0.0,0.0,0.0,0.0,0.0,0.0,0.0,0.0,0.0,0.0,0.0,0.0,0.0,0.0,0.0,0.0,0.0,0.0,5.2644,5.3789,5.3509,5.3949,5.3704,0.0,0.0,0.0,0.0,0.0,0.0,0.0,0.0,0.0,6.0336,6.0876,6.2101,6.3835,6.4798,6.5434,6.5521,6.6838,6.7099,6.6491,6.6838,6.7115,6.7057,6.7405,6.6433,6.4567,6.3275,6.1977,6.0613,0.0,0.0,0.0,0.0,6.0085,6.0056,6.1623,6.2034,0.0,0.0,0.0,0.0,0.0,0.0,0.0,0.0,0.0,0.0,0.0,0.0,0.0,6.2408,6.2521,6.2521,6.2521,6.1655,6.0665,0.0,5.9711,5.9472,5.895,0.0,0.0,0.0,0.0,0.0,6.2434,6.394,6.4769,6.4769,6.4769,6.4909,6.5246,6.5274,6.5274,6.5274,6.5021,6.4544,6.3813,6.2717,6.1678,0.0,0.0,0.0,0.0,0.0,0.0,0.0,0.0,0.0,0.0,0.0,0.0,0.0,0.0,0.0,0.0,0.0,0.0,0.0,0.0,0.0,0.0,0.0,0.0,0.0,0.0,0.0,0.0,5.4109,5.4968,5.3856,5.5221,5.5472,0.0,0.0,0.0,0.0,0.0,0.0,5.9702,6.0144,6.1146,6.2812,6.3064,6.4282,6.652,6.6747,6.7238,6.7997,6.8596,6.8567,6.8131,6.849,6.8432,6.816,6.849,6.8297,6.7555,6.5607,6.448,6.393,6.2947,6.2109,6.1588,6.2736,6.288,6.2582,6.411,6.4319,6.4131,6.405,0.0,6.2808,6.1595,0.0,0.0,0.0,0.0,6.0745,6.1783,6.2038,6.2078,6.2886,6.3139,6.3195,6.3364,6.2914,6.2099,0.0,6.0879,6.0608,6.0259,0.0,0.0,0.0,0.0,6.2793,6.3376,6.4651,6.5471,6.5471,6.5612,6.5892,6.6342,6.6398,6.6398,6.6398,6.6398,6.5977,6.5021,6.4263,6.3279,6.2071,0.0,0.0,0.0,0.0,0.0,0.0,0.0,0.0,0.0,0.0,0.0,0.0,0.0,0.0,0.0,0.0,0.0,0.0,0.0,0.0,0.0,0.0,0.0,0.0,0.0,0.0,0.0,0.0,0.0,5.6755,5.8526,0.0,0.0,0.0,0.0,5.9472,5.9772,6.0688,6.2323,6.3179,6.4438,6.6096,6.6356,6.7043,6.8169,6.8198,6.8227,6.8256,6.8692,6.8799,6.877,6.8421,6.8421,6.877,6.8421,6.8421,6.8577,6.7555,6.5802,6.3908,6.3822,6.3079,6.2038,6.3033,6.3357,6.3498,6.4505,6.4792,6.4905,6.544,6.4589,6.3187,6.1855,6.0887,0.0,0.0,6.194,6.1755,6.3328,6.3251,6.2998,6.3616,6.3757,6.3926,6.4544,6.415,6.3364,0.0,6.1453,6.116,6.1331,0.0,6.1487,6.1487,6.2943,6.4025,6.3757,6.5864,6.7354,6.7354,6.7916,6.8309,6.8337,6.8337,6.8337,6.8337,6.8337,6.8309,6.8253,6.7073,6.5836,6.46,6.2802,0.0,0.0,0.0,0.0,0.0,0.0,0.0,0.0,0.0,0.0,0.0,0.0,0.0,0.0,0.0,0.0,0.0,0.0,0.0,0.0,0.0,0.0,0.0,0.0,0.0,0.0,0.0,0.0,5.7661,5.9872,0.0,0.0,5.9882,6.0745,6.1719,6.221,6.3045,6.4319,6.5013,6.5667,6.6258,6.7186,6.7781,6.7845,6.8521,6.8889,6.8889,6.9431,6.9742,7.0047,6.9633,6.9465,6.9604,6.9215,6.9076,6.8907,6.8539,6.7479,6.6165,6.6326,6.5647,6.465,6.607,6.6165,6.5639,6.6464,6.6502,6.6279,6.5685,6.4632,6.3619,6.2903,6.2733,6.2977,6.3235,6.3412,6.3722,6.4235,6.4263,6.415,6.4375,6.4403,6.46,6.5218,6.5162,6.4993,6.4965,6.3813,6.2962,6.3225,6.3432,6.3715,6.398,6.4618,6.5299,6.5555,6.6707,6.7494,6.7494,6.8084,6.8478,6.8478,6.8478,6.8309,6.7888,6.7859,6.7663,6.7269,6.682,6.6202,6.5359,6.4319,6.2858,0.0,0.0,0.0,0.0,0.0,0.0,0.0,0.0,0.0,0.0,0.0,0.0,0.0,0.0,0.0,0.0,0.0,0.0,0.0,0.0,0.0,0.0,0.0,0.0,0.0,0.0,6.0325,5.8653,6.1274,6.266,6.1147,6.1981,6.2943,6.3931,6.4223,6.4984,6.6043,6.6304,6.6615,6.7227,6.7821,6.8274,6.8336,6.9015,6.9384,6.9384,6.9786,7.0412,7.0754,7.0614,7.056,7.079,7.0506,7.0221,7.0078,7.0078,6.9478,6.8475,6.8183,6.7479,6.6781,6.7911,6.7968,6.7378,6.7775,6.7777,6.7495,6.6449,6.5539,6.4794,6.43,6.4385,6.4476,6.4511,6.46,6.4853,6.5274,6.5218,6.519,6.5583,6.5696,6.5864,6.6483,6.6623,6.6735,6.7157,6.5892,6.4933,6.5295,6.5552,6.5834,6.5972,6.6369,6.6764,6.7185,6.7944,6.8534,6.8731,6.9349,6.963,6.9433,6.9405,6.9124,6.8506,6.845,6.8281,6.7859,6.7635,6.7045,6.6005,6.4769,6.3532,6.2324,0.0,0.0,0.0,0.0,0.0,0.0,0.0,0.0,0.0,0.0,0.0,0.0,0.0,0.0,0.0,0.0,0.0,0.0,0.0,0.0,0.0,0.0,0.0,5.8532,6.0223,6.1105,5.9861,6.2708,6.4347,6.3167,6.4122,6.5186,6.6162,6.5972,6.6254,6.7679,6.7043,6.7465,6.9067,6.8539,6.857,6.9621,6.965,6.9678,6.9678,6.9961,7.0588,7.1222,7.1193,7.151,7.197,7.2115,7.2115,7.197,7.197,7.1535,7.0837,6.9129,6.8506,6.8506,6.8478,6.8478,6.8506,6.8534,6.8506,6.8393,6.7775,6.7157,6.6539,6.5921,6.5331,6.4993,6.5583,6.5331,6.5162,6.6342,6.6202,6.6061,6.7241,6.755,6.7747,6.8393,6.8534,6.8562,6.859,6.7607,6.6932,6.7466,6.7578,6.7607,6.7607,6.814,0.0,6.8534,6.9573,7.0557,7.1147,7.1793,7.1934,7.1316,7.1231,7.095,7.036,7.0276,7.0276,7.0248,6.9686,6.8506,6.6679,6.4291,6.3026,6.3026,0.0,0.0,0.0,0.0,0.0,0.0,0.0,0.0,0.0,0.0,0.0,0.0,0.0,0.0,0.0,0.0,0.0,0.0,0.0,0.0,0.0,0.0,6.0977,6.0013,6.2292,6.375,6.3384,6.5046,6.5949,6.5612,6.5892,6.6145,6.6454,6.6342,6.6735,6.7496,6.7693,6.7976,6.8626,6.9194,6.9479,6.9414,7.0735,7.1337,7.1211,7.2107,7.2568,7.2711,7.2416,7.2382,7.2552,7.2254,7.2104,7.2132,7.2132,7.1982,7.1663,7.0384,6.9559,6.9068,6.8907,6.9019,6.9208,6.9658,6.9517,6.9124,6.8927,6.845,6.7831,6.7185,6.7213,6.7382,6.7101,6.7213,6.7522,6.7859,6.7831,6.7775,6.814,6.8562,6.904,6.9658,7.0164,7.0613,7.1091,7.0894,7.0276,6.9068,6.9236,6.9545,6.9545,6.9686,0.0,6.9798,7.0501,7.1035,7.1203,7.1793,7.2131,7.1934,7.1484,7.095,7.036,6.9883,6.9433,6.8983,6.8815,6.8478,6.7972,6.6398,6.5359,0.0,0.0,0.0,0.0,0.0,0.0,0.0,0.0,0.0,0.0,0.0,0.0,0.0,0.0,0.0,0.0,0.0,0.0,0.0,0.0,0.0,0.0,6.201,6.284,6.2727,6.4145,6.5162,6.5162,6.6005,6.6595,6.6595,6.6595,6.6707,6.696,6.6988,6.7241,6.7888,6.8201,6.8624,6.9499,7.0106,7.0504,7.0825,7.1784,7.2302,7.2226,7.2744,7.3321,7.3804,7.3833,7.3993,0.0,7.4322,7.4027,7.3647,7.3929,7.3718,0.0,0.0,0.0,0.0,0.0,6.9607,6.9826,7.0192,7.0079,6.977,6.977,6.9349,6.8787,6.8421,6.8365,6.8393,6.8028,6.8365,6.8927,6.918,6.9433,6.9686,6.9967,7.0304,7.0669,7.1007,7.1372,7.1737,7.2102,7.2383,0.0,7.1484,7.1203,7.1091,7.1091,7.1091,7.1288,7.1793,7.2187,7.2608,7.3114,7.3507,7.3648,7.3367,7.2749,0.0,0.0,0.0,7.0416,7.0051,6.9264,0.0,0.0,0.0,6.6932,6.6848,0.0,0.0,0.0,6.2858,6.2099,0.0,0.0,0.0,0.0,0.0,0.0,0.0,0.0,0.0,0.0,0.0,0.0,0.0,0.0,0.0,0.0,6.3778,6.5078,6.5696,6.578,6.578,6.578,6.6314,6.6707,6.6707,6.6764,6.7016,6.7578,6.7691,6.8,6.8646,0.0,0.0,0.0,0.0,7.1716,7.2811,7.2962,7.3047,7.3037,7.3189,7.3756,7.4832,7.5142,7.5767,7.6504,7.6792,7.6479,7.5526,7.6192,7.5707,7.4688,7.3114,7.2102,7.1484,7.0922,7.0726,7.0726,7.0726,0.0,0.0,7.0726,7.036,6.9911,6.9826,6.9433,6.8983,6.8927,6.9292,6.9826,7.0388,7.0922,7.1484,7.2046,7.2243,7.2299,7.2383,7.244,7.2524,7.258,7.3058,7.3592,7.4126,7.3254,7.2524,7.2608,7.2608,7.3002,7.4097,7.4238,7.4659,7.5783,0.0,0.0,7.5081,7.4491,7.3901,7.3339,7.2664,7.2271,7.2187,7.0585,6.9967,7.0501,6.8899,6.8281,6.8787,6.8787,6.8702,6.8478,6.4488,6.3195,0.0,0.0,0.0,0.0,0.0,0.0,0.0,0.0,0.0,0.0,0.0,0.0,0.0,0.0,0.0,6.2577,6.4291,6.5724,6.6314,6.6426,6.6426,6.6426,6.696,6.7326,6.7326,6.7803,6.8169,6.8281,6.8759,6.9292,6.9911,7.0416,0.0,7.1944,7.2246,7.2839,7.3803,7.4419,7.493,7.5323,0.0,0.0,7.5689,7.5689,7.583,7.6056,7.6056,7.5971,7.583,7.5436,7.4744,7.421,7.435,7.4013,7.3451,7.3339,7.3311,7.3311,7.3311,7.3311,7.3311,7.3311,7.3226,7.303,7.2524,7.2299,0.0,7.1597,7.1569,7.1681,7.1793,7.1906,7.2046,7.2159,7.2552,7.3058,7.3564,7.4041,7.4547,7.5081,7.5278,7.539,7.5502,7.4912,7.4575,7.5109,7.5193,7.5278,7.5502,7.5531,7.5643,7.5868,7.5896,7.584,7.5727,7.5137,7.4716,7.4575,7.3535,7.2721,7.2215,7.185,7.1709,7.1821,7.1484,7.1091,7.0697,7.0697,7.0192,6.918,6.7297,6.6567,0.0,0.0,0.0,0.0,0.0,0.0,0.0,0.0,0.0,0.0,0.0,6.0256,0.0,0.0,6.2886,6.4094,6.5078,6.6005,6.6904,6.7045,6.7045,6.7045,6.7326,6.7635,6.7972,6.8281,6.8731,6.9349,6.9686,7.0248,7.1203,7.154,7.2131,7.3086,7.324,7.3859,7.494,7.5412,7.5752,7.5896,7.6056,7.6196,7.6373,7.6373,7.6514,7.6823,7.7104,7.7076,7.6767,7.6458,7.6121,7.5868,7.6177,7.5193,7.3564,7.3564,7.3367,7.3142,7.3451,7.3367,7.3114,7.3114,7.3114,7.303,7.2749,7.2636,7.258,7.2271,7.2636,7.3114,7.3114,7.3564,7.4041,7.4041,7.4266,7.4575,7.4912,7.5193,7.5502,7.584,7.5896,7.6008,7.6317,7.6092,7.5868,7.5896,7.5896,7.6008,7.6317,7.6373,7.6458,7.6767,7.6795,7.6795,7.6795,7.6233,7.5755,7.5446,7.4828,7.421,7.3592,7.3254,7.2973,7.2664,7.2327,7.2018,7.1709,7.1709,7.14,7.0782,7.0135,6.918,0.0,0.0,0.0,0.0,0.0,0.0,0.0,0.0,6.0194,6.0467,6.0992,6.1598,6.2352,6.3054,6.3982,6.5583,6.5949,6.6426,6.755,6.7691,6.7775,6.8028,6.7944,6.814,6.8759,6.8955,6.9461,7.0585,7.0782,7.1344,7.2496,7.2664,7.3226,7.435,7.4378,7.4884,7.5896,7.6036,7.6064,7.6092,7.6205,7.6514,7.6992,7.6992,7.7245,7.7722,7.82,7.8088,7.7526,7.7526,7.7441,7.7329,7.7329,7.584,7.3676,7.3788,7.3507,7.3142,7.3507,7.3339,7.2917,7.2917,7.2917,7.2917,7.2917,7.2917,7.2917,7.2917,7.362,7.4378,7.4378,7.5137,7.5896,7.5896,7.5896,7.5924,7.6064,7.6064,7.6121,7.6233,7.6261,7.6402,7.6907,7.6992,7.6823,7.6317,7.6261,7.643,7.6907,7.6992,7.716,7.7638,7.7694,7.7694,7.7694,7.7245,7.6683,7.5952,7.5896,7.5559,7.48,7.4294,7.3788,7.3283,7.2805,7.2552,7.2552,7.2552,7.2496,7.2355,7.2355,7.1231,0.0,0.0,0.0,6.0209,6.023,6.0508,0.0,0.0,6.2061,6.3187,6.3919,6.4426,6.4431,6.4965,6.5612,6.637,6.696,6.755,6.8253,6.8365,6.8787,6.9854,6.9517,6.9433,7.0051,7.0585,7.1203,7.1934,7.2496,7.3086,7.3788,7.4322,7.4969,7.5671,7.5699,7.5755,7.5896,7.643,7.6711,7.6739,7.7245,7.7526,7.7582,7.7582,7.761,7.7694,7.775,7.7441,7.6907,7.6907,7.6598,7.6092,7.6092,7.5896,7.5643,7.6205,7.6345,7.6233,7.5755,7.5531,7.5502,7.5502,7.5502,7.5502,7.5502,7.5502,7.5502,7.5502,7.5587,7.5699,7.5699,7.5783,7.5896,7.5896,7.5896,7.6064,7.6598,7.6711,7.6879,7.7385,7.7497,7.7497,7.7582,7.7582,7.7554,7.7497,7.7497,7.7497,7.7582,7.7582,7.761,7.7666,7.7694,7.7694,7.7694,7.7638,7.7104,7.598,7.5896,7.5362,7.4182,7.4069,7.3985,7.3929,7.3845,7.3816,7.3816,7.3816,7.3535,7.3002,7.3002,7.2552,6.1745,0.0,0.0,0.0,6.2618,6.2692,6.2745,6.2783,6.3037,6.3616,6.4319,6.4881,6.5218,6.6089,6.682,0.0,6.7663,6.8421,6.9405,6.9545,6.9854,7.0726,7.0613,7.0697,7.1344,7.1625,7.2187,7.317,7.3479,7.4069,7.5053,7.5362,7.5783,7.6402,7.6767,7.6935,7.6935,7.7919,7.8059,7.7329,7.8312,7.8397,7.7694,7.8059,7.82,7.82,7.82,7.8088,7.7863,7.7863,7.7497,7.6935,7.6935,7.6935,7.6935,7.6851,7.6598,7.6289,7.6402,7.6205,7.5896,7.5896,7.5896,7.5896,7.5896,7.5896,7.5896,7.5896,7.5896,7.598,7.6345,7.643,7.6514,7.6851,7.6935,7.702,7.7273,7.7329,7.7385,7.7638,7.7694,7.7694,7.7694,7.7694,7.7694,7.7694,7.7694,7.7694,7.7694,7.7694,7.7694,7.7694,7.7694,7.7694,7.7694,7.7694,7.7469,7.6964,7.6935,7.6542,7.5699,7.5643,7.5306,7.4575,7.4912,7.4744,7.4013,7.4378,7.4238,7.362,7.362,7.3507,6.2435,0.0,0.0,6.388,6.431,6.4279,6.4122,6.4045,6.411,6.4431,6.5078,6.5668,6.6117,6.7045,0.0,6.8,6.8562,6.9349,7.0416,7.0557,7.0782,7.1428,7.1484,7.1737,7.2383,7.244,7.2945,7.4182,7.4435,7.5025,7.6092,7.6317,7.6683,7.7301,7.7891,7.8116,7.7947,7.9015,7.9015,7.7947,7.8846,7.8818,7.7947,7.8228,7.834,7.834,7.834,7.834,7.834,7.834,7.8088,7.7694,7.7694,7.7694,7.7638,7.7216,7.6767,7.6458,7.6907,7.6767,7.6402,7.6402,7.6402,7.6373,7.6205,7.6149,7.6121,7.5952,7.5896,7.6008,7.6458,7.657,7.6711,7.7301,7.7441,7.7441,7.7441,7.7582,7.7638,7.7469,7.7582,7.7694,7.7694,7.7694,7.775,7.7919,7.7807,7.7694,7.7694,7.7835,7.8003,7.8172,7.82,7.8144,7.7947,7.7947,7.7807,7.7469,7.7441,7.7188,7.6598,7.657,7.6149,7.5221,7.5474,7.5193,7.4266,7.4547,7.4463,7.4013,7.4013,7.4013,0.0,0.0,6.2802,6.3232,6.3895,6.4689,6.5468,6.5583,6.578,6.637,6.6988,6.7438,6.7438,6.8,6.8646,6.9236,6.9854,7.0473,7.1119,7.1203,7.1428,7.2074,7.2159,7.2411,0.0,7.3086,7.3592,7.48,7.5474,7.6121,7.6767,7.7329,7.7919,7.8537,7.9155,7.9211,7.8565,7.924,7.924,7.8565,7.8621,7.8621,7.8537,7.7975,7.7722,7.7722,7.7722,7.7722,7.7722,7.7722,7.7694,7.7694,7.7694,7.7694,7.7694,7.7666,7.7638,7.7638,7.7666,7.7638,7.7638,7.7638,7.7638,7.7526,7.6964,7.6795,7.6654,7.6064,7.5896,7.5896,7.5924,7.5924,7.6092,7.6683,7.6851,7.6851,7.6851,7.7273,7.7526,7.6964,7.7301,7.7694,7.7694,7.7694,7.7891,7.8481,7.8059,7.7694,7.7694,7.82,7.8818,7.9436,7.9521,7.9268,7.8621,7.8565,7.8088,7.6907,7.6851,7.657,7.5952,7.5924,7.5924,7.5868,7.5278,7.494,7.4912,7.4322,7.4041,7.4013,7.4013,7.4013,0.0,0.0,6.4095,6.5288,6.5589,6.5601,6.5721,6.6005,6.6342,6.6539,6.6764,6.6904,6.6904,6.7775,6.8534,6.8759,6.9967,7.1288,7.2327,7.2833,7.3002,7.2833,7.3142,0.0,0.0,0.0,0.0,7.5474,7.6149,7.6964,7.7947,7.8593,7.9015,7.924,7.9436,7.9268,7.8621,7.924,7.9043,7.7975,7.7975,7.82,7.8565,7.7975,7.7694,7.7694,7.7694,7.7694,7.7694,7.7694,7.7694,7.7694,7.7694,7.7694,7.7694,7.7694,7.7694,7.7694,7.7694,7.7694,7.7694,7.7694,7.7694,7.7638,7.7441,7.7385,7.7357,7.7132,7.6795,7.6598,7.6992,7.6795,7.6654,7.7245,7.7385,7.7385,7.7385,7.7554,7.775,7.7975,7.7835,7.7807,7.8228,7.7947,7.7891,7.8509,7.879,7.8621,7.7778,7.8593,7.9155,7.8931,7.9296,7.9492,7.9268,7.924,7.9071,7.8678,7.8228,7.7919,7.7694,7.7301,7.6907,7.6514,7.6683,7.6373,7.5587,7.5783,7.5671,7.5278,7.5278,7.5278,0.0,6.48,6.4868,6.6378,6.6559,6.6395,6.6707,6.6988,6.7185,6.696,6.6904,6.6848,6.6623,6.7635,6.8478,6.8478,7.0023,7.1653,7.2917,7.3451,7.362,7.3451,7.3957,0.0,0.0,0.0,0.0,7.584,7.6654,7.7554,7.8537,7.9211,7.9577,7.9577,7.9577,7.9352,7.8959,7.9352,7.9043,7.8003,7.8003,7.8088,7.8256,7.7863,7.7694,7.7694,7.7694,7.7694,7.7694,7.7694,7.7694,7.7694,7.7694,7.7694,7.7694,7.7694,7.7694,7.7694,7.7694,7.7694,7.7694,7.7694,7.7694,7.7638,7.7441,7.7385,7.7329,7.7104,7.6767,7.657,7.6964,7.6767,7.6626,7.7216,7.7385,7.7385,7.7385,7.7526,7.7807,7.82,7.8144,7.82,7.8846,7.8621,7.8481,7.8874,7.9296,7.9268,7.8453,7.9071,7.9408,7.8987,7.9324,7.9464,7.924,7.9211,7.9127,7.8902,7.8509,7.8284,7.8284,7.7891,7.7497,7.7132,7.7301,7.6992,7.6233,7.6402,7.6289,7.5896,7.5896,7.5896,6.4941,6.505,6.5345,6.6508,6.6679,6.6988,6.8197,6.8506,6.8337,6.7691,6.7522,6.7326,0.0,0.0,6.845,6.8506,7.0079,7.1765,7.303,7.3254,7.3507,0.0,0.0,0.0,0.0,0.0,0.0,7.598,0.0,7.7975,7.8621,7.924,7.9577,7.9577,7.9549,7.9521,7.9521,7.9492,7.9155,7.8537,7.8537,7.8256,7.7694,7.7694,7.7694,7.7694,7.7722,7.7722,7.7722,7.775,7.7778,7.7778,7.7778,7.7778,7.7778,7.775,7.7722,7.7722,7.7694,7.7694,7.7694,7.7694,7.7694,7.7582,7.702,7.6851,7.6739,7.6149,7.6008,7.6036,7.6036,7.6036,7.6177,7.6767,7.6879,7.6851,7.6851,7.7301,7.7694,7.775,7.8284,7.8874,7.9464,7.9577,7.9577,7.9605,7.9605,7.9577,7.9521,7.9549,7.9549,7.9521,7.9549,7.9324,7.8706,7.865,7.8397,7.7807,7.775,7.7722,7.7722,7.7694,7.7694,7.7694,7.7132,7.6851,7.6851,7.6289,7.598,7.598,7.598,7.598,6.7227,6.7564,6.7638,6.8624,6.8542,6.8342,6.8537,6.8843,6.8983,6.8365,6.8145,6.7637,0.0,0.0,0.0,6.9011,7.1119,0.0,7.4294,7.5278,0.0,0.0,0.0,7.6823,7.6373,7.6879,0.0,0.0,7.7526,7.8172,7.9268,7.9492,7.9577,7.9577,7.9099,7.8846,7.8846,7.8397,7.8088,7.7919,7.7919,7.7835,7.7694,7.7694,7.7694,7.7722,7.8172,7.8369,7.8397,7.8902,7.9099,7.9099,7.9099,7.9099,7.9043,7.8537,7.8369,7.8312,7.7835,7.7694,7.7694,7.7694,7.7694,7.7666,7.7497,7.7469,7.7441,7.7273,7.7554,7.7919,7.7919,7.7919,7.7947,7.8116,7.7807,7.7469,7.7469,7.7582,7.7975,7.8902,7.9577,7.9914,7.9605,7.9577,7.9717,8.0167,8.0251,7.9914,7.8959,7.9268,7.938,7.8902,7.9268,7.9492,7.9324,7.9324,7.924,7.9099,7.8621,7.8369,7.8369,7.7919,7.7694,7.7694,7.7554,7.7469,7.7469,7.7301,7.7216,7.7216,7.7216,7.7054,6.8499,6.9027,6.924,6.9935,6.9736,6.9449,6.9449,6.9559,6.933,6.8173,6.758,0.0,0.0,0.0,0.0,0.0,0.0,0.0,7.5137,7.643,7.7076,0.0,7.775,0.0,7.8059,7.8059,7.8312,0.0,7.8397,7.8397,7.9099,7.9155,7.9155,7.9155,7.8537,7.82,7.82,7.7863,7.7694,7.7694,7.7947,7.8088,7.8088,7.8369,7.8509,7.8537,0.0,7.9015,7.9043,7.9408,7.9577,7.9577,7.9577,7.9577,7.9521,7.9155,7.9015,7.8987,7.8621,7.8509,7.8425,7.7863,7.7694,7.7694,7.7694,7.7694,7.775,7.8003,7.8144,7.8312,7.8874,7.8818,7.8678,7.8959,7.8762,7.8509,7.8509,7.8509,7.879,7.9773,8.0448,8.0785,8.042,8.0139,8.0167,8.0785,8.042,7.9914,7.9492,7.9745,7.9717,7.9099,7.9352,7.9577,7.9577,7.9577,7.9577,7.9577,7.9211,7.9015,7.9015,7.8425,7.8088,7.8088,7.7807,7.7694,7.7694,7.7694,7.7694,7.7694,7.7502,7.7174,6.9373,7.0008,7.0473,7.0679,7.0563,7.0217,7.042,7.0162,6.9307,6.7522,0.0,0.0,6.5102,0.0,6.7241,6.918,0.0,7.3845,7.5643,7.6992,7.7807,7.7807,7.8902,7.9689,7.9689,7.9268,7.938,8.0392,7.9464,7.879,7.8621,7.8509,7.8481,7.8481,7.7947,7.7694,7.7694,7.775,7.7807,7.7807,7.8425,7.8734,7.8734,7.9296,7.9577,7.9577,0.0,0.0,7.9689,7.9773,7.9802,7.9802,7.9802,7.9802,7.9802,7.9717,7.9689,7.9689,7.9605,7.9577,7.938,7.8284,7.7919,7.7919,7.7919,7.7919,7.8031,7.8565,7.8397,7.8312,7.9408,7.9268,7.8987,7.9549,7.9633,7.9577,7.9577,7.9633,7.983,8.0392,8.0982,8.1431,8.1516,8.1094,8.0926,8.1544,8.0729,8.0251,8.0785,8.0645,8.0279,7.9745,7.9689,7.9717,7.9802,7.9661,7.9605,7.9689,7.9605,7.9577,7.9577,7.9015,7.8734,7.8734,7.82,7.7919,7.7919,7.7919,7.7919,7.7919,7.7425,7.7038,7.0889,7.1271,7.1532,7.174,7.148,7.1048,7.065,6.9849,0.0,0.0,0.0,6.5838,6.5581,0.0,0.0,6.977,0.0,0.0,0.0,0.0,7.8425,0.0,0.0,0.0,0.0,0.0,0.0,0.0,0.0,0.0,7.865,7.8116,7.7835,7.7835,7.7722,7.7694,7.7694,7.8172,7.8425,7.8453,7.9099,7.9408,7.9408,7.9521,7.9577,7.9605,8.0111,0.0,8.0364,8.0869,8.1094,8.1094,8.1094,8.1094,8.101,8.0504,8.0307,8.0251,7.9745,7.9577,7.9521,7.9324,7.924,7.924,7.924,7.924,7.9268,7.938,7.9689,8.0054,8.0279,8.0251,8.0167,8.0307,7.9942,7.9577,7.9577,7.997,8.0335,8.0448,8.0982,8.1572,8.2078,8.2078,8.2218,8.2864,8.278,8.2668,8.278,8.1431,8.0448,8.0335,8.0307,8.0532,8.1038,8.0139,7.9773,8.0279,7.9858,7.9577,7.9577,7.9464,7.9408,7.9408,7.9296,7.924,7.924,7.8905,7.8737,7.8737,7.8231,7.7446,7.1005,7.1905,7.2689,7.2345,7.2057,7.1453,7.0416,0.0,0.0,0.0,0.0,6.5639,6.5271,0.0,0.0,0.0,0.0,0.0,0.0,0.0,0.0,0.0,0.0,0.0,0.0,0.0,0.0,0.0,0.0,0.0,7.865,7.8031,7.7694,7.7694,7.7694,7.7835,7.8172,7.8453,7.8762,7.9099,7.9745,8.0054,8.0054,8.0364,8.0532,8.0532,8.0813,0.0,8.0982,8.1263,8.1403,8.1403,8.1403,8.1403,8.1347,8.1066,8.0954,8.0926,8.0616,8.0532,8.0532,8.0532,8.0083,7.9492,7.9155,7.9296,7.9577,7.9577,7.9773,8.0167,8.0785,8.0729,8.056,8.0869,8.0729,8.0532,8.0532,8.101,8.1431,8.1431,8.1937,8.2471,8.2752,8.2808,8.2921,8.323,8.3286,8.3286,8.3286,8.2499,8.1937,8.1937,8.1628,8.1544,8.1853,8.1038,8.0645,8.0926,8.0673,8.0532,8.0532,8.0223,8.0054,8.0054,7.9717,7.9577,7.9577,7.9044,7.8875,7.8875,7.8196,7.7545,7.0976,7.2137,7.3298,7.2921,7.2431,7.1739,7.0228,6.9482,0.0,0.0,0.0,0.0,0.0,0.0,0.0,0.0,0.0,0.0,0.0,0.0,0.0,0.0,0.0,0.0,0.0,0.0,0.0,0.0,0.0,0.0,7.865,7.8144,7.7807,7.7694,7.7807,7.8116,7.8593,7.8874,7.9268,7.9773,8.0392,8.0673,8.0701,8.1178,8.1403,8.1403,8.1403,0.0,0.0,8.1403,8.1403,8.1403,8.1403,8.1403,8.1403,8.1403,8.1403,8.1403,8.1403,8.1403,8.1403,8.1403,8.0757,7.9858,7.9352,7.9549,7.997,7.997,7.997,8.0167,8.115,8.1038,8.0785,8.1291,8.1488,8.16,8.16,8.2078,8.2527,8.2527,8.2921,8.3314,8.3454,8.3483,8.3511,8.3651,8.3679,8.3623,8.3483,8.3595,8.3623,8.3483,8.2892,8.2583,8.2696,8.2162,8.1853,8.1993,8.174,8.16,8.16,8.101,8.0673,8.0673,8.0195,7.9801,7.9773,7.9265,7.8925,7.8925,7.8067,7.7666,7.1295,7.2137,7.2834,7.3385,7.2778,7.1855,7.0807,0.0,0.0,0.0,0.0,6.5041,6.5524,0.0,0.0,0.0,0.0,7.2215,0.0,0.0,0.0,0.0,0.0,0.0,0.0,0.0,0.0,0.0,0.0,0.0,0.0,7.8537,7.8256,7.7694,7.8228,7.8537,7.8593,7.9745,8.0335,8.0392,8.101,8.1319,8.1319,8.1375,8.1403,8.1403,8.1403,0.0,0.0,8.1403,8.1403,8.1403,8.1403,8.1403,8.1403,8.1403,8.1403,8.1403,8.1403,8.1403,8.1403,8.1403,8.1319,8.1207,8.115,8.1178,8.1235,8.1235,8.1235,8.1263,8.1375,8.1347,8.1319,8.1375,8.1825,8.2218,8.2218,8.2724,8.3202,8.3202,8.323,8.3454,8.4016,8.4101,8.4297,8.4859,8.4944,8.4747,8.4185,8.4607,8.4719,8.4185,8.3567,8.3426,8.3988,8.3454,8.3342,8.3904,8.2864,8.2218,8.2218,8.1628,8.1319,8.1319,8.0892,8.0519,8.0519,7.9651,7.9301,7.9301,7.8801,7.8149,7.086,7.2398,7.3734,7.3647,7.327,7.2402,7.0349,0.0,0.0,6.5488,6.5231,6.5439,6.5665,6.6483,6.7382,6.814,6.9292,0.0,0.0,0.0,0.0,0.0,0.0,0.0,0.0,0.0,0.0,0.0,0.0,0.0,0.0,7.9015,7.8678,7.8818,7.8678,7.8959,7.9717,8.0223,8.0673,8.1038,8.1291,8.1403,8.1403,8.1403,8.1403,8.1403,8.1403,0.0,0.0,8.1403,8.1403,8.1403,8.1403,8.1403,8.1403,8.1403,8.1403,8.1403,8.1403,8.1403,8.1403,8.1403,8.1403,8.1319,8.0954,8.1094,8.1319,8.0954,8.1122,8.1403,8.1403,8.1684,8.205,8.2443,8.2724,8.2892,8.2892,8.3398,8.382,8.382,8.4129,8.4466,8.4691,8.4747,8.4831,8.5056,8.5112,8.4888,8.4269,8.441,8.4326,8.3707,8.3426,8.3511,8.4157,8.3286,8.2977,8.3595,8.2808,8.2302,8.2302,8.1712,8.1232,8.1059,8.0859,8.0513,8.034,7.9641,7.929,7.929,7.8788,7.8475,7.0221,7.2311,7.414,7.3734,7.3328,7.2402,0.0,0.0,0.0,6.524,6.5269,6.5809,6.5947,6.6651,6.7297,6.7466,6.8562,6.9883,0.0,0.0,0.0,0.0,0.0,0.0,0.0,0.0,0.0,0.0,0.0,0.0,0.0,7.9745,7.9296,7.9549,7.9296,7.9577,8.0476,8.0673,8.0982,8.1403,8.1403,8.1403,8.1403,8.1403,8.1403,8.1403,0.0,0.0,0.0,8.1403,8.1403,8.1403,8.1403,8.1403,8.1403,8.1403,8.1516,8.1684,8.1684,8.1797,8.1937,8.1937,8.1937,8.1881,8.1431,8.1488,8.1628,8.1375,8.1628,8.1937,8.1937,8.2274,8.2696,8.3173,8.3426,8.3567,8.3567,8.4045,8.4466,8.4466,8.4803,8.5112,8.5112,8.5112,8.5112,8.5112,8.5112,8.4888,8.4269,8.4354,8.4241,8.3623,8.3567,8.3735,8.4157,8.3539,8.3342,8.3792,8.323,8.2864,8.2864,8.2274,8.1764,8.1243,8.0875,8.0617,8.0092,7.94,7.9114,7.9114,7.8788,7.861,6.9437,7.1673,7.3618,7.3618,7.2836,7.1568,0.0,0.0,0.0,6.5561,6.5553,6.5923,6.6482,6.6595,6.6792,6.741,6.8562,7.0051,7.1906,0.0,0.0,0.0,0.0,0.0,0.0,0.0,0.0,0.0,0.0,0.0,0.0,8.0785,8.0195,7.9577,8.0139,8.0476,8.0476,8.1094,8.1375,8.1403,8.1403,8.1403,8.1403,8.1403,8.1403,0.0,0.0,0.0,0.0,8.1403,8.1403,8.1403,8.1403,8.1403,8.1403,8.1403,8.1797,8.2302,8.2302,8.2724,8.3258,8.3258,8.3258,8.3258,8.3258,8.2808,8.2443,8.3089,8.3258,8.3258,8.3258,8.3258,8.3258,8.3286,8.3735,8.4185,8.4185,8.4663,8.5112,8.5112,8.5112,8.5112,8.5112,8.5112,8.5112,8.5112,8.5112,8.4888,8.4269,8.4719,8.4859,8.4269,8.4185,8.4185,8.4185,8.4747,8.5084,8.5084,8.4522,8.4185,8.4185,8.3595,8.3054,8.2497,8.1384,8.0726,8.0194,7.906,7.861,7.861,7.861,7.861,6.8131,7.0018,7.1528,7.1092,7.101,7.0523,6.8068,0.0,0.0,6.529,6.5419,6.5923,6.651,6.6595,6.7073,6.8562,6.9124,6.9883,0.0,0.0,0.0,0.0,0.0,0.0,0.0,0.0,0.0,0.0,0.0,0.0,0.0,0.0,8.101,8.0813,8.0616,8.0673,8.1094,8.1291,8.1403,8.1403,8.1403,8.1403,8.1403,8.1403,0.0,0.0,0.0,0.0,0.0,8.1403,8.1403,8.1403,8.1403,8.1656,8.2021,8.2021,8.2443,8.2921,8.2471,8.2443,8.2611,8.2611,8.2611,8.278,8.3651,8.3454,8.3005,8.323,8.3286,8.337,8.3792,8.3904,8.4016,8.4438,8.4691,8.4831,8.4831,8.4972,8.5112,8.5112,8.5112,8.5112,8.5112,8.5112,8.5112,8.5112,8.5112,8.4888,8.4269,8.4747,8.4888,8.4269,8.4578,8.4831,8.4831,8.4607,8.4663,8.5084,8.4522,8.4185,8.4185,8.3214,8.2525,8.1965,8.147,8.0632,7.9658,7.9289,7.899,7.861,7.861,7.861,0.0,6.8712,7.0279,6.9873,6.9764,0.0,0.0,0.0,0.0,0.0,6.5284,6.5923,6.651,6.6595,6.7045,6.845,6.9264,7.0079,0.0,0.0,0.0,0.0,0.0,0.0,0.0,0.0,0.0,0.0,0.0,0.0,0.0,0.0,8.1628,8.1403,8.1038,8.101,8.1403,8.1403,8.1403,8.1403,8.1403,8.1403,8.1403,8.1403,0.0,0.0,0.0,0.0,0.0,8.1403,8.1516,8.174,8.174,8.2134,8.2668,8.2668,8.2921,8.323,8.2808,8.2836,8.3033,8.3033,8.3173,8.3511,8.4297,8.4269,8.396,8.396,8.396,8.4073,8.4438,8.455,8.4635,8.5028,8.5112,8.5112,8.5112,8.5112,8.5112,8.5112,8.5112,8.5112,8.5112,8.5112,8.5112,8.5112,8.5112,8.4972,8.4578,8.4888,8.4972,8.4578,8.4888,8.5112,8.5112,8.4775,8.4691,8.5084,8.4747,8.455,8.455,8.3623,8.3043,8.2532,8.1771,8.0999,7.9831,7.937,7.8963,7.861,7.861,7.8432,0.0,0.0,0.0,0.0,0.0,0.0,0.0,0.0,0.0,0.0,0.0,0.0,6.6566,6.6623,6.6848,6.7578,6.9124,7.0501,0.0,0.0,0.0,0.0,0.0,0.0,0.0,0.0,0.0,0.0,0.0,0.0,0.0,0.0,8.1993,8.1403,8.1403,8.1403,8.1403,8.1403,8.1403,8.1403,8.1403,8.1403,8.1403,8.1403,0.0,0.0,0.0,0.0,0.0,8.1459,8.1797,8.2302,8.2359,8.278,8.3342,8.3342,8.337,8.3398,8.337,8.3707,8.4185,8.4185,8.4607,8.5112,8.5112,8.5112,8.5112,8.5112,8.5112,8.5112,8.5112,8.5112,8.5112,8.5112,8.5112,8.5112,8.5112,8.5112,8.5112,8.5112,8.5112,8.5112,8.5112,8.5112,8.5112,8.5112,8.5112,8.5112,8.5112,8.5112,8.5112,8.5112,8.5112,8.5112,8.5112,8.5112,8.5112,8.5112,8.5112,8.5112,8.5112,8.4573,8.4211,8.3693,8.2484,8.1309,8.0347,7.918,7.861,7.861,7.861,7.8432,0.0,0.0,0.0,0.0,0.0,0.0,0.0,0.0,0.0,0.0,0.0,0.0,0.0,6.7185,6.7693,6.9321,6.9894,7.06,0.0,0.0,0.0,0.0,0.0,0.0,0.0,0.0,0.0,0.0,0.0,0.0,0.0,0.0,8.1544,8.1403,8.1403,8.1403,8.1403,8.1403,8.1403,8.1403,8.1403,8.1403,8.1403,8.1403,0.0,0.0,0.0,0.0,8.1431,8.1909,8.219,8.2359,8.2864,8.3426,8.3988,8.3988,8.4269,8.4607,8.4157,8.4073,8.4185,8.4185,8.4607,8.5112,8.5112,8.5112,8.5112,8.5112,8.5112,8.5112,8.5112,8.5112,8.5112,8.5112,8.5112,8.5112,8.5112,8.5112,8.5112,8.5112,8.5112,8.5112,8.5112,8.5112,8.5112,8.5112,8.5112,8.5112,8.5112,8.5112,8.5112,8.5112,8.5112,8.5112,8.5112,8.5112,8.5112,8.5112,8.5112,8.4933,8.4573,8.4029,8.3693,8.3116,8.1527,8.0501,7.9696,7.8963,7.861,7.861,7.861,7.8432,0.0,0.0,0.0,0.0,0.0,0.0,0.0,0.0,0.0,0.0,0.0,0.0,0.0,0.0,0.0,6.9838,7.0521,0.0,0.0,0.0,0.0,0.0,0.0,0.0,0.0,0.0,0.0,0.0,0.0,0.0,0.0,0.0,8.1684,8.1403,8.1403,8.1403,8.1403,8.1403,8.1403,8.1403,8.1403,8.1403,8.1403,8.1403,8.1403,0.0,0.0,0.0,8.1853,8.219,8.264,8.3202,8.3567,8.4073,8.4607,8.4607,8.4466,8.4269,8.4213,8.4185,8.4241,8.4522,8.4831,8.5112,8.5112,8.5112,8.5112,8.5112,8.5112,8.5112,8.5112,8.5112,8.5112,8.5112,8.5112,8.5112,8.5112,8.5112,8.5112,8.5112,8.5112,8.5112,8.5112,8.5112,8.5112,8.5112,8.5112,8.5112,8.5112,8.5112,8.5112,8.5112,8.5112,8.5112,8.5112,8.5112,8.5112,8.5112,8.4933,8.4753,8.4392,8.3665,8.2978,8.2154,8.1072,8.0103,7.9479,7.8882,7.861,7.861,7.8432,7.8076,0.0,0.0,6.5083,6.5519,6.578,6.5766,0.0,0.0,0.0,0.0,0.0,0.0,0.0,0.0,0.0,0.0,0.0,0.0,0.0,0.0,0.0,0.0,0.0,0.0,0.0,0.0,0.0,0.0,0.0,0.0,0.0,0.0,0.0,8.1403,8.1403,8.1403,8.1403,8.1403,8.1403,8.1403,8.1403,8.1403,8.1403,8.1403,8.1403,0.0,0.0,0.0,8.233,8.2527,8.323,8.4213,8.4297,8.4663,8.5112,8.5112,8.4438,8.3623,8.4157,8.4269,8.4297,8.4916,8.5112,8.5112,8.5112,8.5112,8.5112,8.5112,8.5112,8.5112,8.5112,8.5112,8.5112,8.5112,8.5112,8.5112,8.5112,8.5112,8.5112,8.5112,8.5112,8.5112,8.5112,8.5112,8.5112,8.5112,8.5112,8.5112,8.5112,8.5112,8.5112,8.5112,8.5112,8.5112,8.5112,8.5112,8.4933,8.4933,8.4573,8.4392,8.4211,8.3189,8.2126,8.1188,8.0591,7.9967,7.9343,7.8854,7.861,7.861,7.8076,7.7744,6.2616,6.3951,6.488,6.4444,6.5141,6.578,0.0,0.0,0.0,0.0,0.0,0.0,0.0,0.0,0.0,0.0,0.0,0.0,0.0,0.0,0.0,0.0,0.0,0.0,0.0,0.0,0.0,0.0,0.0,0.0,0.0,0.0,0.0,8.1403,8.1403,8.1403,8.1403,8.1403,8.1403,8.1403,8.1403,8.1403,8.1403,8.1403,8.1403,0.0,0.0,8.2218,8.2387,8.3454,8.4016,8.4241,8.4775,8.5028,8.5112,8.5112,8.5,8.4831,8.4944,8.4635,8.4297,8.4916,8.5112,8.5112,8.5112,8.5112,8.5112,8.5112,8.5112,8.5112,8.5112,8.5112,8.5112,8.5112,8.5112,8.5112,8.5112,8.5112,8.5112,8.5112,8.5112,8.5112,8.5112,8.5112,8.5112,8.5112,8.5112,8.5112,8.5112,8.5112,8.5112,8.5112,8.5112,8.5112,8.5112,8.4753,8.4573,8.4573,8.4392,8.4001,8.3116,8.2072,8.1161,8.0564,7.994,7.9343,7.8746,7.8664,7.861,7.861,7.8076,7.7744,6.2296,6.3486,6.4473,6.4532,6.578,6.6825,0.0,0.0,0.0,0.0,0.0,0.0,0.0,0.0,0.0,0.0,0.0,0.0,0.0,0.0,0.0,0.0,0.0,0.0,0.0,0.0,0.0,0.0,0.0,0.0,0.0,0.0,0.0,0.0,8.1403,8.1403,8.1403,8.1403,8.1403,8.1403,8.1403,8.1403,8.1403,8.1403,8.1572,8.1909,0.0,8.2696,8.337,8.396,8.4382,8.4719,8.5,8.5112,8.5056,8.4747,8.4607,8.4607,8.4607,8.4663,8.4747,8.5028,8.5112,8.5112,8.5112,8.5112,8.5112,8.5112,8.5112,8.5112,8.5112,8.5112,8.5112,8.5112,8.5112,8.5112,8.5112,8.5112,8.5112,8.5112,8.5112,8.5112,8.5112,8.5112,8.5112,8.5112,8.5112,8.5112,8.5112,8.5112,8.5112,8.5112,8.5112,8.5112,8.5112,8.4753,8.4211,8.3637,8.3637,8.3272,8.2563,8.1806,8.1025,8.0428,7.9804,7.918,7.861,7.861,7.861,7.861,7.7897,7.7385,6.2558,6.3486,6.4444,0.0,0.0,0.0,0.0,0.0,0.0,0.0,0.0,0.0,0.0,0.0,0.0,0.0,0.0,0.0,0.0,0.0,0.0,0.0,0.0,0.0,0.0,0.0,0.0,0.0,0.0,0.0,0.0,0.0,0.0,0.0,8.1403,8.1403,8.1403,8.1403,8.1403,8.1403,8.1403,8.1403,8.1403,8.1403,8.174,8.233,8.2471,8.3173,8.4213,8.4354,8.4691,8.5112,8.5112,8.5112,8.5056,8.4578,8.4326,8.4213,8.4354,8.4635,8.4916,8.5056,8.5112,8.5112,8.5112,8.5112,8.5112,8.5112,8.5112,8.5112,8.5112,8.5112,8.5112,8.5112,8.5112,8.5112,8.5112,8.5112,8.5112,8.5112,8.5112,8.5112,8.5112,8.5112,8.5112,8.5112,8.5112,8.5112,8.5112,8.5112,8.5112,8.5112,8.5112,8.4933,8.4753,8.4392,8.3637,8.2747,8.2932,8.2665,8.1975,8.1405,8.0808,8.0211,7.9587,7.9044,7.861,7.861,7.861,7.8432,7.7565,7.7204,6.4444,6.4851,6.5199,6.6447,0.0,0.0,0.0,0.0,0.0,0.0,0.0,0.0,0.0,0.0,0.0,0.0,0.0,0.0,0.0,0.0,0.0,0.0,0.0,0.0,0.0,0.0,0.0,0.0,0.0,0.0,0.0,0.0,0.0,0.0,0.0,8.1403,8.1403,8.1403,8.1403,8.1403,8.1403,8.1403,8.1403,8.1403,8.174,8.233,8.2949,8.3595,8.4241,8.4803,8.5056,8.5112,8.5112,8.5112,8.5112,8.5056,8.4691,8.4269,8.4831,8.4691,8.4354,8.4916,8.5112,8.5112,8.5112,8.5112,8.5112,8.5112,8.5112,8.5112,8.5112,8.5112,8.5112,8.5112,8.5112,8.5112,8.5112,8.5112,8.5112,8.5112,8.5112,8.5112,8.5112,8.5112,8.5112,8.5112,8.5112,8.5112,8.5112,8.5112,8.5112,8.5112,8.5112,8.4753,8.3875,8.3299,8.2747,8.2192,8.2747,8.2501,8.1405,8.0808,8.0184,7.956,7.8963,7.8637,7.861,7.861,7.8432,7.7897,7.7385,7.7023,6.4154,6.4677,6.5199,6.607,0.0,0.0,0.0,0.0,0.0,0.0,0.0,0.0,0.0,0.0,0.0,0.0,0.0,0.0,0.0,0.0,0.0,0.0,0.0,0.0,0.0,0.0,0.0,0.0,0.0,0.0,0.0,0.0,0.0,0.0,0.0,8.1403,8.1403,8.1403,8.1403,8.1403,8.1403,8.1403,8.1403,8.1797,8.2302,8.2949,8.3567,8.4185,8.4775,8.5028,8.5112,8.5112,8.5112,8.4888,8.4578,8.4972,8.4719,8.4297,8.4888,8.4944,8.4803,8.5028,8.5112,8.5112,8.5112,8.5112,8.5112,8.5112,8.5112,8.5112,8.5112,8.5112,8.5112,8.5112,8.5112,8.5112,8.5112,8.5112,8.5112,8.5112,8.5112,8.5112,8.5112,8.5112,8.5112,8.5112,8.5112,8.5112,8.5112,8.5112,8.5112,8.5112,8.4933,8.4211,8.3299,8.2932,8.2747,8.2192,8.2378,8.2269,8.1866,8.1297,8.07,8.0075,7.9479,7.8963,7.861,7.861,7.8432,7.7897,7.7385,7.7023,6.4764,6.5112,6.5489,6.6331,0.0,0.0,0.0,0.0,0.0,0.0,0.0,0.0,0.0,0.0,0.0,0.0,0.0,0.0,0.0,0.0,0.0,0.0,0.0,0.0,0.0,0.0,0.0,0.0,0.0,0.0,0.0,0.0,0.0,0.0,0.0,8.1403,8.1403,8.1403,8.1403,8.1403,8.1403,8.1403,8.1403,8.2021,8.2668,8.3314,8.3932,8.455,8.5112,8.5112,8.5112,8.5112,8.5112,8.4859,8.4522,8.4944,8.4831,8.455,8.4972,8.5112,8.5112,8.5112,8.5112,8.5112,8.5112,8.5112,8.5112,8.5112,8.5112,8.5112,8.5112,8.5112,8.5112,8.5112,8.5112,8.5112,8.5112,8.5112,8.5112,8.5112,8.5112,8.5112,8.5112,8.5112,8.5112,8.5112,8.5112,8.5112,8.5112,8.5112,8.5112,8.4933,8.4392,8.3637,8.2932,8.2556,8.2263,8.1921,8.1921,8.1839,8.1649,8.1432,8.0835,7.9858,7.9614,7.918,7.861,7.861,7.8254,7.7744,7.7385,7.6842,6.668,6.6418,6.6244,0.0,0.0,0.0,0.0,0.0,0.0,0.0,0.0,0.0,0.0,0.0,0.0,0.0,0.0,0.0,0.0,0.0,0.0,0.0,0.0,0.0,0.0,0.0,0.0,0.0,0.0,0.0,0.0,0.0,0.0,0.0,0.0,0.0,8.1403,8.1403,8.1403,8.1403,8.1403,8.1403,8.1431,8.205,8.2668,8.3314,8.3932,8.455,8.5112,8.5112,8.5112,8.5112,8.5112,8.5112,8.5112,8.5112,8.5112,8.5112,8.5112,8.5112,8.5112,8.5112,8.5112,8.5112,8.5112,8.5112,8.5112,8.5112,8.5112,8.5112,8.5112,8.5112,8.5112,8.5112,8.5112,8.5112,8.5112,8.5112,8.5112,8.5112,8.5112,8.5112,8.5112,8.5112,8.5112,8.5112,8.5112,8.5112,8.5112,8.5112,8.4933,8.4392,8.3455,8.2932,8.2932,8.1834,8.1297,8.1297,8.1297,8.1052,8.0455,8.0998,8.0455,7.8664,7.918,7.918,7.861,7.861,7.8076,7.7204,7.7204,7.6661,6.5489,0.0,0.0,0.0,0.0,0.0,0.0,0.0,0.0,0.0,0.0,0.0,0.0,0.0,0.0,0.0,0.0,0.0,0.0,0.0,0.0,0.0,0.0,0.0,0.0,0.0,0.0,0.0,0.0,0.0,0.0,0.0,0.0,0.0,0.0,8.1403,8.1403,8.1403,8.1403,8.1403,8.1403,8.1628,8.205,8.2696,8.3342,8.396,8.4578,8.4944,8.5112,8.5112,8.5112,8.5112,8.5112,8.5112,8.5112,8.5112,8.5112,8.5112,8.5112,8.5112,8.5112,8.5112,8.5112,8.5112,8.5112,8.5112,8.5112,8.5112,8.5112,8.5112,8.5112,8.5112,8.5112,8.5112,8.5112,8.5112,8.5112,8.5112,8.5112,8.5112,8.5112,8.5112,8.5112,8.5112,8.5112,8.5112,8.5112,8.5112,8.5112,8.4753,8.4392,8.4057,8.3299,8.2747,8.2378,8.1649,8.1297,8.1297,8.0917,8.0808,8.1025,8.1215,8.0862,7.9913,7.9614,7.918,7.861,7.861,7.8076,7.7204,7.7204,7.6661,0.0,0.0,0.0,0.0,0.0,0.0,0.0,0.0,0.0,0.0,0.0,0.0,0.0,0.0,0.0,0.0,0.0,0.0,0.0,0.0,0.0,0.0,0.0,0.0,0.0,0.0,0.0,0.0,0.0,0.0,0.0,0.0,0.0,0.0,8.1403,8.1403,8.1403,8.1403,8.1403,8.1403,8.1628,8.2078,8.2696,8.3089,8.3623,8.4213,8.4831,8.5112,8.5112,8.5112,8.5112,8.5112,8.5112,8.5112,8.5112,8.5112,8.5112,8.5112,8.5112,8.5112,8.5112,8.5112,8.5112,8.5112,8.5112,8.5112,8.5112,8.5112,8.5112,8.5112,8.5112,8.5112,8.5112,8.5112,8.5112,8.5112,8.5112,8.5112,8.5112,8.5112,8.5112,8.5112,8.5112,8.5112,8.5112,8.5112,8.5112,8.5112,8.5112,8.4573,8.4029,8.3693,8.3116,8.2563,8.2192,8.1432,8.0944,8.0944,8.0374,8.0211,8.0564,8.0835,8.0564,7.9723,7.956,7.918,7.861,7.8432,7.7897,7.7204,7.7023,7.6452,0.0,0.0,0.0,0.0,0.0,0.0,0.0,0.0,0.0,0.0,0.0,0.0,0.0,0.0,0.0,0.0,0.0,0.0,0.0,0.0,0.0,0.0,0.0,0.0,0.0,0.0,0.0,0.0,0.0,0.0,0.0,0.0,0.0,0.0,8.1403,8.1403,8.1403,8.1403,8.1403,0.0,8.2021,8.264,8.3286,8.3342,8.3707,8.4297,8.4859,8.5112,8.5112,8.5112,8.5112,8.5112,8.5112,8.5112,8.5112,8.5112,8.5112,8.5112,8.5112,8.5112,8.5112,8.5112,8.5112,8.5112,8.5112,8.5112,8.5112,8.5112,8.5112,8.5112,8.5112,8.5112,8.5112,8.5112,8.5112,8.5112,8.5112,8.5112,8.5112,8.5112,8.5112,8.5112,8.5112,8.5112,8.5112,8.5112,8.5112,8.5112,8.5112,8.4211,8.3693,8.3693,8.2747,8.2192,8.2192,8.1161,8.051,8.051,7.9913,7.956,7.9479,8.0048,7.9804,7.8692,7.9153,7.9153,7.861,7.8254,7.7744,7.7204,7.6842,7.627,0.0,0.0,0.0,0.0,0.0,0.0,0.0,0.0,0.0,0.0,0.0,0.0,0.0,0.0,0.0,0.0,0.0,0.0,0.0,0.0,0.0,0.0,0.0,0.0,0.0,0.0,0.0,0.0,0.0,0.0,0.0,0.0,0.0,8.1403,8.1403,8.1403,8.1403,8.1403,8.1403,0.0,8.2021,8.264,8.3286,8.3764,8.4326,8.4916,8.5056,8.5112,8.5112,8.5112,8.5112,8.5112,8.5112,8.5112,8.5112,8.5112,8.5112,8.5112,8.5112,8.5112,8.5112,8.5112,8.5112,8.5112,8.5112,8.5112,8.5112,8.5112,8.5112,8.5112,8.5112,8.5112,8.5112,8.5112,8.5112,8.5112,8.5112,8.5112,8.5112,8.5112,8.5112,8.5112,8.5112,8.5112,8.5112,8.5112,8.5112,8.4933,8.4573,8.4057,8.351,8.3116,8.2563,8.2192,8.2192,8.1541,8.1107,8.1107,8.0564,7.9994,7.9506,7.9614,7.956,7.9289,7.8963,7.8719,7.861,7.8432,7.8076,7.7204,7.7023,7.6634,0.0,0.0,0.0,0.0,0.0,0.0,0.0,0.0,0.0,0.0,0.0,0.0,0.0,0.0,0.0,0.0,0.0,0.0,0.0,0.0,0.0,0.0,0.0,0.0,0.0,0.0,0.0,0.0,0.0,0.0,0.0,8.1745,8.1575,8.1403,8.1403,8.1403,8.1403,8.1403,8.1544,8.1853,8.2471,8.3258,8.4157,8.4494,8.4803,8.5112,8.5112,8.5112,8.5112,8.5112,8.5112,8.5112,8.5112,8.5112,8.5112,8.5112,8.5112,8.5112,8.5112,8.5112,8.5112,8.5112,8.5112,8.5112,8.5112,8.5112,8.5112,8.5112,8.5112,8.5112,8.5112,8.5112,8.5112,8.5112,8.5112,8.5112,8.5112,8.5112,8.5112,8.5112,8.5112,8.5112,8.5112,8.5112,8.5112,8.5112,8.5112,8.4933,8.4392,8.4057,8.351,8.2932,8.2563,8.2192,8.2192,8.1649,8.1297,8.1297,8.0754,8.013,7.9506,7.9777,7.9668,7.9071,7.9044,7.8882,7.861,7.8432,7.7897,7.7204,7.7023,7.6452,0.0,0.0,0.0,0.0,0.0,0.0,0.0,0.0,0.0,0.0,0.0,0.0,0.0,0.0,0.0,0.0,0.0,0.0,0.0,0.0,0.0,0.0,0.0,0.0,0.0,0.0,0.0,0.0,0.0,0.0,8.2086,8.2086,8.1916,8.1403,8.1403,8.1403,8.1403,8.1403,8.1712,8.233,8.3089,8.4016,8.5112,8.5112,8.5112,8.5112,8.5112,8.5056,8.4944,8.4944,8.4888,8.4803,8.4803,8.4859,8.4944,8.4944,8.5028,8.5112,8.5112,8.5112,8.5112,8.5112,8.5112,8.5112,8.5112,8.5112,8.5112,8.5112,8.5112,8.5112,8.5112,8.5112,8.5112,8.5112,8.5112,8.5112,8.5112,8.5112,8.5112,8.5112,8.5112,8.5112,8.5112,8.5112,8.5112,8.5112,8.5112,8.4753,8.4392,8.3875,8.3327,8.2932,8.2378,8.2192,8.2192,8.1731,8.1459,8.1459,8.0998,8.0455,7.9831,8.0401,8.0157,7.8936,7.9289,7.9234,7.8746,7.8308,7.7718,7.7204,7.6816,7.627,0.0,0.0,0.0,0.0,0.0,0.0,0.0,0.0,0.0,0.0,0.0,0.0,0.0,0.0,0.0,0.0,0.0,0.0,0.0,0.0,0.0,0.0,0.0,0.0,0.0,0.0,0.0,0.0,0.0,0.0,8.2086,8.2086,8.1916,8.1403,8.1403,8.1403,8.1403,8.1403,8.1712,8.233,8.3511,8.4438,8.5112,8.5112,8.5112,8.5112,8.5112,8.4803,8.4326,8.4326,8.3988,8.3511,8.3511,8.3848,8.4326,8.4326,8.4663,8.5112,8.5112,8.5112,8.5112,8.5112,8.5112,8.5112,8.5112,8.5112,8.5112,8.5112,8.5112,8.5112,8.5112,8.5112,8.5112,8.5112,8.5112,8.5112,8.5112,8.5112,8.5112,8.5112,8.5112,8.5112,8.5112,8.5112,8.5112,8.5112,8.4753,8.4392,8.3875,8.3299,8.2747,8.2378,8.2192,8.2192,8.2192,8.2111,8.2083,8.2083,8.2002,8.1676,8.1079,8.1622,8.1405,8.0211,7.9723,7.9451,7.937,7.8854,7.8076,7.7204,7.7204,7.6634,0.0,0.0,0.0,0.0,0.0,0.0,0.0,0.0,0.0,0.0,0.0,0.0,0.0,0.0,0.0,0.0,0.0,0.0,0.0,0.0,0.0,0.0,0.0,0.0,0.0,0.0,0.0,0.0,0.0,8.3266,8.2931,8.2594,8.2256,8.1745,8.1575,8.1403,8.1403,8.1403,8.1881,8.2864,8.4101,8.4831,8.5112,8.5112,8.5112,8.5084,8.4747,8.4438,8.4157,8.382,8.3511,8.3286,8.3286,8.3651,8.4185,8.4185,8.4578,8.5112,8.5112,8.5112,8.5112,8.5112,8.5112,8.5112,8.5112,8.5112,8.5112,8.5112,8.5112,8.5112,8.5112,8.5112,8.5112,8.5112,8.5112,8.5112,8.5112,8.5112,8.5112,8.5112,8.5112,8.5112,8.5112,8.5112,8.5112,8.5112,8.4933,8.4573,8.3875,8.351,8.3116,8.2192,8.2192,8.2192,8.2192,8.2192,8.2192,8.2192,8.2192,8.1921,8.1324,8.1866,8.1785,8.0944,8.0645,8.0347,8.0021,7.9389,7.8892,7.8137,7.7452,7.6954,0.0,0.0,0.0,0.0,0.0,0.0,0.0,0.0,0.0,0.0,0.0,0.0,0.0,0.0,0.0,0.0,0.0,0.0,0.0,0.0,0.0,0.0,0.0,0.0,0.0,0.0,0.0,0.0,0.0,8.3758,8.3433,8.3127,8.2623,8.2086,8.1745,8.1575,8.1403,8.1712,8.2443,8.3511,8.4607,8.5112,8.5112,8.4944,8.4888,8.4859,8.441,8.4101,8.3904,8.3286,8.2949,8.2808,8.2808,8.3286,8.396,8.396,8.4354,8.4888,8.4888,8.4775,8.4635,8.4635,8.4635,8.4663,8.4831,8.4888,8.4916,8.5056,8.5112,8.5112,8.5112,8.5112,8.5112,8.5112,8.5112,8.5112,8.5112,8.5112,8.5112,8.5112,8.5112,8.5112,8.5112,8.5112,8.5112,8.5112,8.4933,8.4573,8.3875,8.351,8.3116,8.2378,8.2192,8.2192,8.2192,8.2192,8.2192,8.2192,8.2192,8.2002,8.1541,8.1948,8.1975,8.1541,8.1378,8.1079,8.0645,7.9962,7.9434,7.8669,7.7692,7.6954,0.0,0.0,0.0,0.0,0.0,0.0,0.0,0.0,0.0,0.0,0.0,0.0,0.0,0.0,0.0,0.0,0.0,0.0,0.0,0.0,0.0,0.0,0.0,0.0,0.0,0.0,0.0,0.0,0.0,8.3323,8.3404,8.3433,8.2931,8.2086,8.2086,8.1916,8.1403,8.2583,8.3511,8.4157,8.4803,8.5112,8.5084,8.4522,8.4241,8.4241,8.4213,8.3876,8.3286,8.264,8.2021,8.1488,8.1488,8.2246,8.3342,8.3342,8.3707,8.4241,8.4241,8.3848,8.337,8.337,8.337,8.3483,8.4073,8.4241,8.4354,8.4944,8.5112,8.5112,8.5112,8.5112,8.5112,8.5112,8.5112,8.5112,8.5112,8.5112,8.5112,8.5112,8.5112,8.5112,8.5112,8.5112,8.5112,8.5112,8.4753,8.4211,8.3693,8.3299,8.2747,8.2192,8.2192,8.2192,8.2192,8.2192,8.2192,8.2192,8.2192,8.2192,8.2138,8.2165,8.2192,8.2138,8.1595,8.1297,8.1269,8.0151,7.922,7.811,7.7534,7.6954,0.0,0.0,0.0,0.0,0.0,0.0,0.0,0.0,0.0,0.0,0.0,0.0,0.0,0.0,0.0,0.0,0.0,0.0,0.0,0.0,0.0,0.0,0.0,0.0,0.0,0.0,0.0,0.0,0.0,0.0,8.3903,8.36,8.3266,8.2931,8.2594,8.2455,8.251,8.2616,8.3173,8.4185,8.4016,8.4157,8.4494,8.3876,8.3595,8.3595,8.3173,8.2864,8.2611,8.1993,8.16,8.1403,8.1403,8.1909,8.2668,8.2668,8.3061,8.3595,8.3595,8.3707,8.3876,8.3876,8.4129,8.4494,8.4719,8.4775,8.4831,8.5056,8.5112,8.5112,8.5112,8.5112,8.5112,8.5112,8.5112,8.5,8.4607,8.4831,8.4888,8.4101,8.4578,8.5,8.4578,8.4831,8.5112,8.5112,8.4933,8.4573,8.3875,8.351,8.3116,8.2378,8.2192,8.2192,8.2192,8.2192,8.2192,8.2192,8.2192,8.2192,8.2192,8.2192,8.2192,8.2192,8.1975,8.1866,8.1866,8.0532,7.9574,7.9202,7.8245,7.7686,0.0,0.0,0.0,0.0,0.0,0.0,0.0,0.0,0.0,0.0,0.0,0.0,0.0,0.0,0.0,0.0,0.0,0.0,0.0,0.0,0.0,0.0,0.0,0.0,0.0,0.0,0.0,0.0,0.0,0.0,8.4039,8.3766,8.36,8.3433,8.2791,8.2738,8.3021,8.2476,8.2836,8.3876,8.3483,8.3483,8.3876,8.323,8.2949,8.2921,8.2274,8.2106,8.2274,8.1656,8.1403,8.1403,8.1403,8.1769,8.2302,8.2302,8.2583,8.2949,8.2949,8.3089,8.3286,8.3511,8.3707,8.3988,8.4607,8.4663,8.4578,8.5,8.5112,8.5112,8.5112,8.4944,8.4803,8.4803,8.4635,8.4326,8.3707,8.4213,8.4494,8.3483,8.4101,8.4663,8.4269,8.4691,8.5112,8.5112,8.5112,8.4753,8.4057,8.3875,8.3327,8.2563,8.2378,8.2192,8.2192,8.2192,8.2192,8.2192,8.2192,8.2192,8.2192,8.2192,8.2083,8.1894,8.1704,8.1595,8.1595,8.0669,8.0188,7.9815,7.8877,7.8315,0.0,0.0,0.0,0.0,0.0,0.0,0.0,0.0,0.0,0.0,0.0,0.0,0.0,0.0,0.0,0.0,0.0,0.0,0.0,0.0,0.0,0.0,0.0,0.0,0.0,0.0,0.0,0.0,0.0,8.2733,8.401,8.4068,8.3903,8.3404,8.2566,8.2369,8.2993,8.2447,8.2611,8.3286,8.323,8.323,8.323,8.2583,8.2274,8.2246,8.1656,8.174,8.2246,8.1628,8.1403,8.1403,8.1403,8.1769,8.2274,8.2274,8.2274,8.2274,8.2274,8.1909,8.1516,8.2106,8.1937,8.1797,8.3623,8.3764,8.3567,8.4719,8.5084,8.5112,8.5084,8.4635,8.4157,8.4157,8.3707,8.3089,8.2443,8.3286,8.396,8.337,8.3764,8.4185,8.4185,8.4691,8.5112,8.5112,8.5112,8.4933,8.4392,8.4057,8.351,8.2932,8.2563,8.2192,8.2192,8.2192,8.2192,8.2192,8.2192,8.2192,8.2192,8.2192,8.1921,8.1351,8.0754,8.0482,8.0482,8.1013,8.0883,7.9788,7.9253,7.8714,6.5838,0.0,0.0,0.0,0.0,0.0,0.0,0.0,0.0,0.0,0.0,0.0,0.0,0.0,0.0,0.0,0.0,0.0,0.0,0.0,0.0,0.0,0.0,0.0,0.0,0.0,0.0,0.0,8.192,8.2559,8.34,8.3865,8.3894,8.3294,8.241,8.2195,8.2822,8.1548,8.1769,8.3258,8.2359,8.2162,8.2555,8.1937,8.1656,8.1628,8.1459,8.1488,8.1628,8.1459,8.1403,8.1403,8.1403,8.1488,8.1656,8.1656,8.1656,8.1656,8.1656,8.1825,8.2078,8.2274,8.2527,8.2864,8.337,8.3735,8.3932,8.382,8.4438,8.5,8.455,8.3988,8.3539,8.3539,8.3398,8.3089,8.2443,8.2583,8.278,8.2611,8.3454,8.4185,8.4185,8.4691,8.5112,8.5112,8.5112,8.4933,8.4392,8.4057,8.351,8.2932,8.2563,8.2192,8.2192,8.2192,8.2192,8.2192,8.2192,8.2192,8.2192,8.2192,8.2111,8.1948,8.1785,8.1704,8.1704,8.0609,8.0075,7.973,7.8048,7.7318,0.0,0.0,0.0,0.0,0.0,0.0,0.0,0.0,0.0,0.0,0.0,0.0,0.0,0.0,0.0,0.0,0.0,0.0,0.0,0.0,0.0,0.0,0.0,0.0,0.0,0.0,0.0,8.1136,8.1804,8.2588,8.3517,8.34,8.3255,8.3197,8.2224,8.1757,8.1963,8.1179,8.118,8.2106,8.1628,8.1572,8.1909,8.1572,8.1403,8.1403,8.1403,8.1403,8.1403,8.1403,8.1403,8.1403,8.1403,8.1403,8.1403,8.1403,8.1572,8.174,8.1488,8.1797,8.2302,8.2302,8.2387,8.2583,8.3117,8.3342,8.3398,8.3314,8.3792,8.4269,8.3904,8.3342,8.2864,8.2864,8.2668,8.2387,8.2021,8.1937,8.1993,8.2274,8.3117,8.3876,8.4157,8.4691,8.5112,8.5112,8.5112,8.4933,8.4753,8.4057,8.351,8.3299,8.2563,8.2192,8.2192,8.2192,8.2192,8.2192,8.2192,8.2192,8.2192,8.1948,8.1812,8.1812,8.1324,8.0793,8.0055,8.0505,8.0212,7.9041,7.6856,7.5849,0.0,0.0,0.0,0.0,0.0,0.0,7.1586,7.1876,7.2079,0.0,0.0,0.0,0.0,0.0,0.0,0.0,0.0,0.0,0.0,0.0,0.0,0.0,0.0,0.0,0.0,8.0294,8.0527,8.1049,8.1717,8.2617,8.3807,8.282,8.2442,8.2965,8.1897,8.1254,8.0956,8.106,8.0898,8.0645,8.1265,8.1403,8.1403,8.1403,8.1403,8.1403,8.1403,8.1403,8.1403,8.1403,8.1403,8.1403,8.1403,8.1403,8.1403,8.1403,8.174,8.2134,8.1656,8.1825,8.2218,8.2302,8.1881,8.16,8.2724,8.2724,8.2443,8.3089,8.3173,8.3089,8.3145,8.2696,8.2218,8.2218,8.1797,8.1403,8.1403,8.1403,8.1572,8.219,8.2836,8.3483,8.4101,8.4691,8.5112,8.5112,8.5112,8.5112,8.5112,8.4238,8.3693,8.3693,8.2747,8.2192,8.2192,8.2192,8.2192,8.2192,8.2138,8.2083,8.2083,8.1514,8.1215,8.1215,8.0003,7.864,7.7473,8.0402,8.0372,7.7885,7.5335,7.4162,0.0,0.0,0.0,0.0,0.0,0.0,6.967,7.025,7.1295,0.0,0.0,0.0,0.0,0.0,0.0,0.0,0.0,0.0,0.0,0.0,0.0,0.0,0.0,0.0,0.0,8.0294,8.0352,8.0468,8.1049,8.1717,8.253,8.2326,8.2007,8.1601,8.1135,8.0784,8.0651,8.0927,8.0974,8.0955,8.1605,8.1745,8.1403,8.1403,8.1403,8.1403,8.1403,8.1403,8.1403,8.1403,8.1403,8.1403,8.1403,8.1403,8.1403,8.1403,8.1459,8.1628,8.1993,8.1881,8.1656,8.2162,8.1881,8.1431,8.1684,8.2021,8.2443,8.3089,8.2555,8.1881,8.2387,8.205,8.1572,8.1572,8.1488,8.1403,8.1403,8.1403,8.1572,8.219,8.2836,8.3483,8.4101,8.4691,8.5112,8.5112,8.5112,8.5112,8.5112,8.4238,8.3693,8.3693,8.2747,8.2192,8.2192,8.2192,8.2192,8.2192,8.1731,8.1486,8.1486,8.0917,8.0591,8.0591,7.907,7.8478,7.8701,7.8819,7.778,7.5706,7.3913,7.2749,0.0,0.0,0.0,6.9292,0.0,0.0,0.0,7.0018,0.0,0.0,0.0,0.0,0.0,0.0,0.0,0.0,0.0,0.0,0.0,0.0,0.0,0.0,0.0,0.0,0.0,8.0004,7.9801,7.9801,8.0091,8.0672,8.163,8.1426,8.1223,8.1194,8.0745,8.0281,8.0121,8.0881,8.102,8.0669,8.1633,8.1916,8.1403,8.1403,8.1403,8.1403,8.1403,8.1403,8.1403,8.1403,8.1403,8.1403,8.1403,8.1403,8.1403,8.1403,8.16,8.1853,8.1853,8.1853,8.1853,8.1853,8.1656,8.1403,8.1403,8.16,8.1909,8.2246,8.1881,8.1459,8.1769,8.1628,8.1403,8.1403,8.1403,8.1403,8.1403,8.1403,8.1488,8.1797,8.2359,8.3005,8.3623,8.3988,8.4185,8.4185,8.4185,8.4297,8.4607,8.4126,8.3724,8.3665,8.2932,8.2378,8.2192,8.1921,8.1758,8.1758,8.1188,8.0862,8.0862,8.0265,7.9396,7.843,7.7141,7.6149,7.5452,7.5452,7.4814,7.3913,7.191,7.093,0.0,0.0,0.0,0.0,0.0,6.9583,0.0,0.0,0.0,0.0,0.0,0.0,0.0,0.0,0.0,0.0,0.0,0.0,0.0,0.0,0.0,0.0,0.0,0.0,0.0,7.9511,7.9133,7.9133,7.9133,7.9627,8.0759,8.0497,8.0527,8.0991,8.0556,8.0136,7.9791,8.0755,8.1062,8.0382,8.1378,8.1803,8.1403,8.1403,8.1403,8.1403,8.1403,8.1403,8.1403,8.1403,8.1403,8.1403,8.1403,8.1403,8.1403,8.1403,8.1712,8.2078,8.1712,8.1825,8.2078,8.1684,8.1488,8.1403,8.1403,8.1403,8.1403,8.1403,8.1403,8.1403,8.1403,8.1403,8.1403,8.1403,8.1403,8.1403,8.1403,8.1403,8.1403,8.1403,8.1797,8.233,8.2977,8.3202,8.3286,8.3286,8.337,8.3623,8.4129,8.3941,8.3627,8.3472,8.3134,8.2529,8.1866,8.1514,8.1269,8.1134,8.07,8.0374,8.0238,7.9362,7.8212,7.6636,7.5128,7.3725,7.2051,7.2103,7.2114,7.2114,7.031,6.9524,0.0,0.0,0.0,0.0,7.057,0.0,0.0,0.0,0.0,0.0,0.0,0.0,0.0,0.0,0.0,0.0,0.0,0.0,0.0,0.0,0.0,0.0,0.0,0.0,0.0,0.0,7.8494,7.8494,7.8494,7.8785,7.9481,8.0004,8.0323,8.041,8.0323,8.0294,8.0294,8.0483,8.0632,8.0713,8.1092,8.1379,8.1403,8.1403,8.1403,8.1403,8.1403,8.1403,8.1403,8.1403,8.1403,8.1403,8.1403,8.1403,8.1403,8.1403,8.1431,8.1572,8.205,8.1881,8.1572,8.205,8.1853,8.1403,8.1403,8.1403,8.1403,8.1403,8.1403,8.1403,8.1403,8.1403,8.1403,8.1403,8.1403,8.1403,8.1403,8.1403,8.1403,8.1403,8.1459,8.1684,8.233,8.2892,8.3286,8.3286,8.3735,8.4101,8.4185,8.4305,8.3905,8.3072,8.2502,8.1737,8.0672,8.1052,8.1079,8.0564,8.0455,8.0184,7.9614,7.7821,7.6874,7.7185,7.3944,7.2325,7.2629,7.0677,6.9918,6.9918,6.9524,6.9524,0.0,0.0,0.0,0.0,0.0,0.0,0.0,0.0,7.1005,0.0,0.0,0.0,0.0,0.0,0.0,0.0,0.0,0.0,0.0,0.0,0.0,0.0,0.0,0.0,0.0,0.0,0.0,0.0,0.0,7.7711,7.8727,7.9365,7.9888,8.0294,8.0294,8.0294,8.0294,8.0745,8.087,8.0877,8.134,8.1491,8.1403,8.1403,8.1403,8.1403,8.1403,8.1403,8.1403,8.1403,8.1403,8.1403,8.1403,8.1403,8.1403,8.1403,8.1403,8.1431,8.1684,8.16,8.1431,8.1712,8.16,8.1403,8.1403,8.1403,8.1403,8.1403,8.1403,8.1403,8.1403,8.1403,8.1403,8.1403,8.1403,8.1403,8.1403,8.1403,8.1403,8.1403,8.1403,8.16,8.2218,8.2527,8.2724,8.2724,8.3258,8.3792,8.4157,8.3923,8.3539,8.2934,8.2242,8.1579,8.0428,8.032,8.0157,7.9886,7.8421,7.7555,7.7289,7.4379,7.3093,7.3616,7.1266,7.0414,7.093,6.9918,6.9524,6.9524,6.9524,6.9524,7.2456,0.0,0.0,0.0,0.0,0.0,0.0,0.0,0.0,0.0,0.0,0.0,0.0,0.0,0.0,0.0,0.0,0.0,0.0,0.0,0.0,0.0,0.0,0.0,0.0,0.0,0.0,7.6201,7.6201,7.6695,7.7798,7.8785,7.9511,8.0004,8.0207,8.0294,8.0294,8.0571,8.0801,8.0813,8.1083,8.1376,8.1321,8.1319,8.1403,8.1403,8.1403,8.1403,8.1403,8.1403,8.1403,8.1403,8.1403,8.1403,8.1403,8.1403,8.1403,8.1403,8.1403,8.1403,8.1403,8.1403,8.1403,8.1403,8.1403,8.1403,8.1403,8.1403,8.1403,8.1403,8.1403,8.1403,8.1403,8.1403,8.1403,8.1403,8.1403,8.1403,8.1459,8.16,8.1516,8.16,8.2218,8.2302,8.2387,8.2555,8.3117,8.3679,8.4129,8.382,8.327,8.2836,8.2269,8.1319,8.012,7.9804,7.9488,7.873,7.669,7.5486,7.5062,7.2,7.0825,7.133,6.9725,6.9179,6.9524,6.9524,6.9524,6.9524,6.9524,6.9524,0.0,0.0,0.0,7.2021,0.0,0.0,0.0,0.0,7.1818,0.0,0.0,0.0,0.0,0.0,7.3269,7.266,0.0,0.0,0.0,0.0,0.0,0.0,0.0,0.0,0.0,0.0,0.0,7.5534,7.5534,7.5824,7.6491,7.8291,7.9307,7.9336,7.9975,8.0294,8.0294,7.9819,7.9977,8.0668,8.0456,8.0556,8.1179,8.1293,8.1403,8.1403,8.1403,8.1403,8.1403,8.1403,8.1403,8.1403,8.1403,8.1403,8.1403,8.1403,8.1403,8.1403,8.1403,8.1403,8.1403,8.1403,8.1403,8.1403,8.1403,8.1403,8.1403,8.1403,8.1403,8.1403,8.1403,8.1403,8.1403,8.1403,8.1403,8.1403,8.1403,8.1403,8.1572,8.2162,8.1797,8.16,8.2218,8.2302,8.2527,8.3145,8.3764,8.4185,8.4185,8.4185,8.3755,8.2664,8.2198,8.1139,7.9454,7.9903,7.9376,7.6691,7.593,7.4903,7.3508,7.1981,7.1354,7.1859,7.0214,6.9501,6.9524,6.9524,6.9524,6.9524,6.9524,6.9524,0.0,0.0,7.4663,7.3763,0.0,0.0,0.0,0.0,0.0,0.0,0.0,0.0,0.0,0.0,7.3385,7.2718,7.2805,7.2863,0.0,0.0,0.0,0.0,0.0,0.0,0.0,0.0,0.0,7.5504,7.5098,7.5504,0.0,7.7682,7.8436,7.9278,7.9946,8.0294,8.0294,8.0136,8.0296,8.064,8.089,8.0998,8.1151,8.1633,8.1745,8.1403,8.1403,8.1403,8.1403,8.1403,8.1403,8.1403,8.1403,8.1403,8.1403,8.1403,8.1403,8.1403,8.1403,8.1403,8.1403,8.1403,8.1403,8.1403,8.1403,8.1403,8.1403,8.1403,8.1403,8.1403,8.1403,8.1403,8.1403,8.1403,8.1403,8.1403,8.1403,8.1403,8.1459,8.1656,8.1544,8.16,8.2218,8.2302,8.2527,8.3173,8.4157,8.4803,8.4803,8.4438,8.3923,8.3194,8.2626,8.1826,8.0522,7.8817,7.7031,7.5093,7.3061,7.2049,7.181,7.0425,6.9608,6.9771,6.9664,6.9685,7.0052,6.9685,6.9707,7.0052,6.9685,6.9524,7.6433,7.6375,0.0,7.5359,7.475,0.0,7.266,0.0,0.0,0.0,0.0,0.0,0.0,0.0,7.4401,7.3763,7.3443,7.3124,0.0,7.2602,0.0,0.0,0.0,0.0,0.0,0.0,7.5156,7.5156,7.4547,7.475,0.0,0.0,7.7537,7.8582,7.9481,8.0062,8.0294,8.0294,8.0339,8.0454,8.0737,8.1013,8.0978,8.1294,8.1548,8.1403,8.1403,8.1403,8.1403,8.1403,8.1403,8.1403,8.1403,8.1403,8.1403,8.1403,8.1403,8.1403,8.1403,8.1403,8.1403,8.1403,8.1403,8.1403,8.1403,8.1403,8.1431,8.1656,8.1572,8.1459,8.1656,8.1572,8.1403,8.1403,8.1403,8.1403,8.1403,8.1403,8.1459,8.1684,8.1544,8.16,8.2218,8.2302,8.2527,8.3173,8.4129,8.4775,8.4775,8.4438,8.4007,8.383,8.3288,8.2146,8.0436,7.7639,7.5016,7.3252,7.1393,7.0477,7.0247,6.9404,6.8973,6.934,6.9639,6.9983,7.0327,6.996,6.9891,7.0029,6.9685,6.9524]},{"header":{"parameterUnit":"m.s-1","parameterCategory":1,"la1":30.6,"la2":29.2853,"lo1":-89.7004,"lo2":-87.6739,"dx":0.0162,"dy":0.0183,"nx":112,"ny":82,"refTime":"2023-01-22T18:00:00:Z","depth":0,"parameterNumber":3,"parameterNumberName":"V-component_of_WINDS"},"data":[0.0,0.0,0.0,0.0,0.0,0.0,0.0,0.0,0.0,0.0,0.0,0.0,0.0,0.0,0.0,0.0,0.0,0.0,0.0,0.0,0.0,0.0,0.0,0.0,0.0,0.0,0.0,0.0,0.0,0.0,0.0,0.0,0.0,0.0,0.0,0.0,0.0,0.0,0.0,0.0,0.0,0.0,0.0,0.0,0.0,0.0,0.0,0.0,0.0,0.0,0.0,0.0,0.0,0.0,0.0,0.0,0.0,0.0,0.0,0.0,0.0,0.0,0.0,0.0,0.0,0.0,0.0,0.0,0.0,0.0,0.0,0.0,0.0,0.0,0.0,0.0,0.0,0.0,0.0,0.0,0.0,0.0,0.0,0.0,0.0,0.0,0.0,0.0,0.0,0.0,0.0,-5.4976,-5.6495,-5.7716,-5.8286,-5.8259,-5.7499,-5.579,0.0,0.0,0.0,0.0,0.0,0.0,0.0,0.0,0.0,0.0,0.0,0.0,0.0,0.0,0.0,0.0,0.0,0.0,0.0,0.0,0.0,0.0,0.0,0.0,0.0,0.0,0.0,0.0,0.0,0.0,0.0,0.0,0.0,0.0,0.0,0.0,0.0,0.0,0.0,0.0,0.0,0.0,0.0,0.0,0.0,0.0,0.0,0.0,0.0,0.0,0.0,0.0,0.0,0.0,0.0,0.0,0.0,0.0,0.0,0.0,0.0,0.0,0.0,0.0,0.0,0.0,0.0,0.0,0.0,0.0,0.0,0.0,0.0,0.0,0.0,0.0,0.0,0.0,0.0,0.0,0.0,0.0,0.0,0.0,0.0,0.0,0.0,0.0,0.0,0.0,0.0,0.0,0.0,0.0,0.0,0.0,0.0,0.0,0.0,0.0,0.0,0.0,0.0,0.0,-5.4134,-5.7201,-5.8232,-5.8964,-5.9561,-5.9154,-5.8313,-5.6984,0.0,0.0,0.0,0.0,0.0,0.0,0.0,0.0,0.0,0.0,0.0,0.0,0.0,0.0,0.0,0.0,0.0,0.0,0.0,0.0,0.0,0.0,0.0,0.0,0.0,0.0,0.0,0.0,0.0,0.0,0.0,0.0,0.0,0.0,0.0,0.0,0.0,0.0,0.0,0.0,0.0,0.0,0.0,0.0,0.0,0.0,0.0,0.0,0.0,0.0,0.0,0.0,0.0,0.0,0.0,0.0,0.0,0.0,0.0,0.0,0.0,0.0,0.0,0.0,0.0,0.0,0.0,0.0,0.0,0.0,0.0,0.0,0.0,0.0,0.0,0.0,0.0,0.0,0.0,0.0,0.0,0.0,0.0,0.0,0.0,0.0,0.0,0.0,0.0,0.0,0.0,0.0,0.0,0.0,0.0,0.0,0.0,0.0,0.0,0.0,0.0,0.0,0.0,-5.3928,-5.5528,-5.8286,-5.8829,-5.9236,-5.9833,-5.9344,-5.8612,-5.7716,-5.598,0.0,0.0,0.0,0.0,0.0,0.0,0.0,0.0,0.0,0.0,0.0,0.0,0.0,0.0,0.0,0.0,0.0,0.0,0.0,0.0,0.0,0.0,0.0,0.0,0.0,0.0,0.0,0.0,0.0,0.0,0.0,0.0,0.0,0.0,0.0,0.0,0.0,0.0,0.0,0.0,0.0,0.0,0.0,0.0,0.0,0.0,0.0,0.0,0.0,0.0,0.0,0.0,0.0,0.0,0.0,0.0,0.0,0.0,0.0,0.0,0.0,0.0,0.0,0.0,0.0,0.0,0.0,0.0,0.0,0.0,0.0,0.0,0.0,0.0,0.0,0.0,0.0,0.0,0.0,0.0,0.0,0.0,0.0,0.0,0.0,0.0,0.0,0.0,0.0,0.0,0.0,0.0,0.0,0.0,0.0,0.0,0.0,0.0,0.0,0.0,0.0,0.0,-5.6084,-5.7239,-5.9046,-5.9344,-5.9589,-6.005,-5.9561,-5.8883,-5.8123,-5.6522,0.0,0.0,0.0,0.0,0.0,0.0,0.0,0.0,0.0,0.0,0.0,0.0,0.0,0.0,0.0,0.0,0.0,0.0,0.0,0.0,0.0,0.0,0.0,0.0,0.0,0.0,0.0,0.0,0.0,0.0,0.0,0.0,0.0,0.0,0.0,0.0,0.0,0.0,0.0,0.0,0.0,0.0,0.0,0.0,0.0,0.0,0.0,0.0,0.0,0.0,0.0,0.0,0.0,0.0,0.0,0.0,0.0,0.0,0.0,0.0,0.0,0.0,0.0,0.0,0.0,0.0,0.0,0.0,0.0,0.0,0.0,0.0,0.0,0.0,0.0,0.0,0.0,0.0,0.0,0.0,0.0,0.0,0.0,0.0,0.0,0.0,0.0,0.0,0.0,0.0,0.0,0.0,0.0,0.0,0.0,0.0,0.0,0.0,0.0,0.0,0.0,0.0,-5.6807,-5.9073,-5.9751,-6.0321,-6.0674,-6.0701,-6.0158,-5.9317,-5.815,-5.6929,0.0,0.0,0.0,0.0,0.0,0.0,0.0,0.0,0.0,0.0,0.0,0.0,0.0,0.0,0.0,0.0,0.0,0.0,0.0,0.0,0.0,0.0,0.0,0.0,0.0,0.0,0.0,0.0,0.0,0.0,0.0,0.0,0.0,0.0,0.0,0.0,0.0,0.0,0.0,0.0,0.0,0.0,0.0,0.0,0.0,0.0,0.0,0.0,0.0,0.0,0.0,0.0,0.0,0.0,0.0,0.0,0.0,0.0,0.0,0.0,0.0,0.0,0.0,0.0,0.0,0.0,0.0,0.0,0.0,0.0,0.0,0.0,0.0,0.0,0.0,0.0,0.0,0.0,0.0,0.0,0.0,0.0,0.0,0.0,0.0,0.0,0.0,0.0,0.0,0.0,0.0,0.0,0.0,0.0,0.0,0.0,0.0,0.0,0.0,0.0,0.0,0.0,-5.7058,-5.9076,0.0,-6.062,-6.0782,-6.0782,-6.0565,-5.9751,-5.8178,0.0,0.0,0.0,0.0,0.0,0.0,0.0,0.0,0.0,0.0,0.0,0.0,0.0,0.0,0.0,0.0,0.0,0.0,0.0,0.0,0.0,0.0,0.0,0.0,0.0,0.0,0.0,0.0,0.0,0.0,0.0,0.0,0.0,0.0,0.0,0.0,0.0,0.0,0.0,0.0,0.0,0.0,0.0,0.0,0.0,0.0,0.0,0.0,0.0,0.0,0.0,0.0,0.0,0.0,0.0,0.0,0.0,0.0,0.0,0.0,0.0,0.0,0.0,0.0,0.0,0.0,0.0,0.0,0.0,0.0,0.0,0.0,0.0,0.0,0.0,0.0,0.0,0.0,0.0,0.0,0.0,0.0,0.0,0.0,0.0,0.0,0.0,0.0,0.0,0.0,0.0,0.0,0.0,0.0,0.0,0.0,0.0,0.0,0.0,0.0,0.0,0.0,-5.5172,-5.765,-5.9589,0.0,-6.0782,-6.0782,-6.0782,-6.0593,-5.9724,-5.7906,0.0,0.0,0.0,0.0,0.0,0.0,0.0,0.0,0.0,0.0,0.0,0.0,0.0,0.0,0.0,0.0,0.0,0.0,0.0,0.0,0.0,0.0,0.0,0.0,0.0,0.0,0.0,0.0,0.0,0.0,0.0,0.0,0.0,0.0,0.0,0.0,0.0,0.0,0.0,0.0,0.0,0.0,0.0,0.0,0.0,0.0,0.0,0.0,0.0,0.0,0.0,0.0,0.0,0.0,0.0,0.0,0.0,0.0,0.0,0.0,0.0,0.0,0.0,0.0,0.0,0.0,0.0,0.0,0.0,0.0,0.0,0.0,0.0,0.0,0.0,0.0,0.0,0.0,0.0,0.0,0.0,0.0,0.0,0.0,0.0,0.0,0.0,0.0,0.0,0.0,0.0,0.0,0.0,0.0,0.0,0.0,0.0,0.0,0.0,0.0,0.0,0.0,-5.5332,-5.851,-6.0782,-6.0782,-6.0782,-6.0782,-6.0782,-6.024,-5.9127,0.0,0.0,0.0,0.0,0.0,0.0,0.0,0.0,0.0,0.0,0.0,0.0,0.0,0.0,0.0,0.0,0.0,0.0,0.0,0.0,0.0,0.0,0.0,0.0,0.0,0.0,0.0,0.0,0.0,0.0,0.0,0.0,0.0,0.0,0.0,0.0,0.0,0.0,0.0,0.0,0.0,0.0,0.0,0.0,0.0,0.0,0.0,0.0,0.0,0.0,0.0,0.0,0.0,0.0,0.0,0.0,0.0,0.0,0.0,0.0,0.0,0.0,0.0,0.0,0.0,0.0,0.0,0.0,0.0,0.0,0.0,0.0,0.0,0.0,0.0,0.0,0.0,0.0,0.0,0.0,0.0,0.0,0.0,0.0,0.0,0.0,0.0,0.0,0.0,0.0,0.0,0.0,0.0,0.0,0.0,0.0,0.0,0.0,0.0,0.0,0.0,0.0,0.0,-5.631,-5.8914,-6.0782,-6.0782,-6.0782,-6.0782,-6.0782,-6.062,-5.9561,-5.7336,0.0,0.0,0.0,0.0,0.0,0.0,0.0,0.0,0.0,0.0,0.0,0.0,0.0,0.0,0.0,0.0,0.0,0.0,0.0,0.0,0.0,0.0,0.0,0.0,0.0,0.0,0.0,0.0,0.0,0.0,0.0,0.0,0.0,0.0,0.0,0.0,0.0,0.0,0.0,0.0,0.0,0.0,0.0,0.0,0.0,0.0,0.0,0.0,0.0,0.0,0.0,0.0,0.0,0.0,0.0,0.0,0.0,0.0,0.0,0.0,0.0,0.0,0.0,0.0,0.0,0.0,0.0,0.0,0.0,0.0,0.0,0.0,0.0,0.0,0.0,0.0,0.0,0.0,0.0,0.0,0.0,0.0,0.0,0.0,0.0,0.0,0.0,0.0,0.0,0.0,0.0,0.0,0.0,0.0,0.0,0.0,0.0,0.0,0.0,0.0,0.0,0.0,-5.6524,-5.9022,-6.0782,-6.0782,-6.0782,-6.0782,-6.0782,-6.0782,-5.9833,-5.7662,0.0,0.0,0.0,0.0,0.0,0.0,0.0,0.0,0.0,0.0,0.0,0.0,0.0,0.0,0.0,0.0,0.0,0.0,0.0,0.0,0.0,0.0,0.0,0.0,0.0,0.0,0.0,0.0,0.0,0.0,0.0,0.0,0.0,0.0,0.0,0.0,0.0,0.0,0.0,0.0,0.0,0.0,0.0,0.0,0.0,0.0,0.0,0.0,0.0,0.0,0.0,0.0,0.0,0.0,0.0,0.0,0.0,0.0,0.0,0.0,0.0,0.0,0.0,0.0,0.0,0.0,0.0,0.0,0.0,0.0,0.0,0.0,0.0,0.0,0.0,0.0,0.0,0.0,0.0,0.0,0.0,0.0,0.0,0.0,0.0,0.0,0.0,0.0,0.0,0.0,0.0,0.0,0.0,0.0,0.0,0.0,0.0,0.0,0.0,0.0,0.0,0.0,-5.6263,-5.886,-6.0782,-6.0782,-6.0782,-6.0782,-6.0782,-6.0782,-6.0023,-5.8259,0.0,0.0,0.0,0.0,0.0,0.0,0.0,0.0,0.0,0.0,0.0,0.0,0.0,0.0,0.0,0.0,0.0,0.0,0.0,0.0,0.0,0.0,0.0,0.0,0.0,0.0,0.0,0.0,0.0,0.0,0.0,0.0,0.0,0.0,0.0,0.0,0.0,0.0,0.0,0.0,0.0,0.0,0.0,0.0,0.0,0.0,0.0,0.0,0.0,0.0,0.0,0.0,0.0,0.0,0.0,0.0,0.0,0.0,0.0,0.0,-4.9557,0.0,0.0,0.0,0.0,0.0,0.0,0.0,0.0,0.0,0.0,0.0,0.0,0.0,0.0,0.0,0.0,0.0,0.0,0.0,0.0,0.0,0.0,0.0,0.0,0.0,0.0,0.0,0.0,0.0,0.0,0.0,0.0,0.0,0.0,0.0,0.0,0.0,0.0,0.0,0.0,0.0,-5.6551,-5.9022,-6.0782,-6.0782,-6.0782,-6.0782,-6.0782,-6.0782,-6.0213,-5.8883,-5.8232,0.0,0.0,0.0,0.0,0.0,0.0,0.0,0.0,0.0,0.0,0.0,0.0,0.0,0.0,0.0,0.0,0.0,0.0,0.0,0.0,0.0,0.0,0.0,0.0,0.0,0.0,0.0,0.0,0.0,0.0,0.0,0.0,0.0,0.0,0.0,0.0,0.0,0.0,0.0,0.0,0.0,0.0,0.0,0.0,0.0,0.0,0.0,0.0,0.0,0.0,0.0,0.0,0.0,0.0,0.0,0.0,0.0,0.0,0.0,0.0,-5.0551,0.0,0.0,0.0,0.0,0.0,0.0,0.0,0.0,0.0,0.0,0.0,0.0,0.0,0.0,0.0,0.0,0.0,0.0,0.0,0.0,0.0,0.0,0.0,0.0,0.0,0.0,0.0,0.0,0.0,0.0,0.0,0.0,0.0,0.0,0.0,0.0,0.0,0.0,0.0,0.0,-5.6524,-5.9022,-6.0782,-6.0782,-6.0782,-6.0891,-6.1135,-6.1162,-6.0782,-5.9914,-5.929,0.0,0.0,0.0,0.0,0.0,0.0,0.0,0.0,0.0,0.0,0.0,0.0,0.0,0.0,0.0,0.0,0.0,0.0,0.0,0.0,0.0,0.0,0.0,0.0,0.0,0.0,0.0,0.0,0.0,0.0,0.0,0.0,0.0,0.0,0.0,0.0,0.0,0.0,0.0,0.0,0.0,0.0,0.0,0.0,0.0,0.0,0.0,0.0,0.0,0.0,0.0,0.0,0.0,0.0,-5.5517,-5.5101,-5.5465,-5.5752,-5.5778,-5.4314,-5.4236,-5.4942,0.0,0.0,0.0,0.0,0.0,0.0,0.0,0.0,0.0,0.0,0.0,0.0,0.0,0.0,0.0,0.0,0.0,0.0,0.0,0.0,0.0,0.0,0.0,0.0,0.0,-5.8025,-5.8321,0.0,0.0,0.0,0.0,0.0,0.0,0.0,0.0,0.0,0.0,0.0,0.0,-5.6661,-5.9183,-6.1081,-6.1081,-6.1081,-6.1271,-6.1732,-6.1759,-6.1569,-6.1108,-6.0511,-5.9507,0.0,0.0,0.0,0.0,0.0,0.0,0.0,0.0,0.0,0.0,0.0,0.0,0.0,0.0,0.0,0.0,0.0,0.0,0.0,0.0,0.0,0.0,0.0,0.0,0.0,0.0,0.0,0.0,0.0,0.0,0.0,0.0,-4.8912,-5.0217,0.0,0.0,0.0,0.0,0.0,0.0,0.0,0.0,0.0,0.0,0.0,0.0,0.0,0.0,-5.4628,-5.6196,-5.7072,-5.6867,-5.8193,-5.8638,-5.8341,-5.8166,-5.834,-5.8784,-5.8549,0.0,-5.5072,-5.4759,0.0,0.0,0.0,0.0,0.0,0.0,0.0,0.0,0.0,0.0,0.0,0.0,0.0,0.0,0.0,0.0,0.0,0.0,0.0,0.0,0.0,0.0,-6.0022,-5.9643,-5.9643,-5.9697,0.0,-5.7219,-5.5199,-5.5039,0.0,0.0,0.0,0.0,0.0,0.0,0.0,0.0,-5.8134,-6.0534,-6.2302,-6.2302,-6.2302,-6.2329,-6.2411,-6.2411,-6.2383,-6.2302,-6.1732,-6.1271,-6.1027,-5.948,0.0,0.0,0.0,0.0,0.0,0.0,0.0,0.0,0.0,0.0,0.0,0.0,0.0,0.0,0.0,0.0,0.0,0.0,0.0,0.0,0.0,0.0,0.0,0.0,0.0,0.0,0.0,0.0,0.0,-4.8877,-4.994,-4.9898,-4.9652,-4.8995,0.0,0.0,0.0,0.0,0.0,0.0,0.0,0.0,0.0,-5.5287,-5.6027,-5.6656,-5.7477,-5.8858,-5.9436,-5.9515,-6.0446,-6.0682,-6.0132,-6.0446,-6.0431,-6.0378,-6.0692,-6.0079,-5.8648,-5.7223,-5.5804,-5.4576,0.0,0.0,0.0,0.0,-5.4577,-5.4551,-5.6715,-5.7595,0.0,0.0,0.0,0.0,0.0,0.0,0.0,0.0,0.0,0.0,0.0,0.0,0.0,-6.0267,-6.0375,-6.0375,-6.0375,-5.9022,-5.7569,0.0,-5.6417,-5.5702,-5.4255,0.0,0.0,0.0,0.0,0.0,-5.9507,-6.121,-6.2546,-6.2546,-6.2546,-6.2682,-6.3008,-6.3035,-6.3035,-6.3035,-6.279,-6.2329,-6.1624,-6.0565,-5.9561,0.0,0.0,0.0,0.0,0.0,0.0,0.0,0.0,0.0,0.0,0.0,0.0,0.0,0.0,0.0,0.0,0.0,0.0,0.0,0.0,0.0,0.0,0.0,0.0,0.0,0.0,0.0,0.0,-5.0457,-5.1483,-5.0442,-5.1269,-5.1054,0.0,0.0,0.0,0.0,0.0,0.0,-5.4707,-5.5841,-5.6771,-5.7557,-5.8552,-5.9421,-6.0158,-6.0895,-6.1343,-6.1494,-6.1764,-6.1738,-6.1346,-6.1939,-6.1887,-6.1372,-6.1939,-6.2036,-6.1632,-5.9594,-5.8569,-5.807,-5.7177,-5.6416,-5.5943,-5.7236,-5.7367,-5.7346,-5.9262,-6.0241,-6.0328,-5.9728,0.0,-5.8826,-5.6689,0.0,0.0,0.0,0.0,-5.7143,-5.8887,-5.9129,-5.9427,-6.0728,-6.0972,-6.1027,-6.1189,-6.0755,-5.9968,0.0,-5.8025,-5.7515,-5.5947,0.0,0.0,0.0,0.0,-6.0374,-6.0669,-6.2161,-6.3225,-6.3225,-6.336,-6.3632,-6.4066,-6.412,-6.412,-6.412,-6.412,-6.3713,-6.279,-6.2058,-6.1108,-5.9941,0.0,0.0,0.0,0.0,0.0,0.0,0.0,0.0,0.0,0.0,0.0,0.0,0.0,0.0,0.0,0.0,0.0,0.0,0.0,0.0,0.0,0.0,0.0,0.0,0.0,0.0,0.0,0.0,0.0,-5.3858,-5.5055,0.0,0.0,0.0,0.0,-5.4496,-5.5495,-5.6346,-5.7108,-5.8658,-5.9827,-6.0565,-6.1608,-6.2246,-6.2466,-6.2492,-6.2518,-6.2545,-6.2123,-6.1947,-6.1921,-6.2422,-6.2422,-6.1921,-6.2422,-6.2422,-6.2018,-6.1632,-6.0827,-5.9595,-5.9515,-5.8822,-5.8105,-5.9556,-6.0123,-6.0258,-6.175,-6.2296,-6.2405,-6.2919,-6.1831,-5.9962,-5.8698,-5.7277,0.0,0.0,-5.8779,-5.886,-6.0889,-6.1081,-6.0837,-6.1434,-6.1569,-6.1732,-6.2329,-6.1949,-6.1189,0.0,-5.9344,-5.8804,-5.8456,0.0,-5.8349,-5.8349,-5.9992,-6.1291,-6.1569,-6.3605,-6.5043,-6.5043,-6.5585,-6.5965,-6.5992,-6.5992,-6.5992,-6.5992,-6.5992,-6.5965,-6.5911,-6.4771,-6.3577,-6.2383,-6.0647,0.0,0.0,0.0,0.0,0.0,0.0,0.0,0.0,0.0,0.0,0.0,0.0,0.0,0.0,0.0,0.0,0.0,0.0,0.0,0.0,0.0,0.0,0.0,0.0,0.0,0.0,0.0,0.0,-5.4719,-5.6816,0.0,0.0,-5.6578,-5.7143,-5.7302,-5.8778,-5.9828,-6.0241,-6.1158,-6.1773,-6.2057,-6.2379,-6.2656,-6.299,-6.3064,-6.3125,-6.3125,-6.3343,-6.3349,-6.3071,-6.3528,-6.3653,-6.3501,-6.3982,-6.4133,-6.4257,-6.4193,-6.2925,-6.0895,-6.0777,-6.0419,-6.0287,-6.1342,-6.1699,-6.1747,-6.2523,-6.3108,-6.3172,-6.2606,-6.1333,-5.9846,-5.9693,-5.9532,-5.9502,-6.0534,-6.097,-6.1268,-6.2031,-6.2058,-6.1949,-6.2166,-6.2193,-6.2383,-6.298,-6.2926,-6.2763,-6.2736,-6.1624,-6.0537,-6.0261,-6.0723,-6.0993,-6.0715,-6.1858,-6.2784,-6.3306,-6.4419,-6.5178,-6.5178,-6.5748,-6.6128,-6.6128,-6.6128,-6.5965,-6.5558,-6.5531,-6.5341,-6.4961,-6.4527,-6.393,-6.3116,-6.2112,-6.0701,0.0,0.0,0.0,0.0,0.0,0.0,0.0,0.0,0.0,0.0,0.0,0.0,0.0,0.0,0.0,0.0,0.0,0.0,0.0,0.0,0.0,0.0,0.0,0.0,0.0,0.0,-5.7246,-5.566,-5.8402,-5.9722,-5.8026,-5.9076,-5.9992,-6.0141,-6.148,-6.2209,-6.2399,-6.292,-6.3216,-6.2965,-6.3245,-6.3389,-6.3724,-6.3797,-6.3857,-6.3857,-6.4228,-6.4239,-6.4269,-6.4423,-6.4656,-6.4867,-6.5175,-6.5482,-6.5635,-6.5635,-6.479,-6.3575,-6.3028,-6.2925,-6.3097,-6.3606,-6.3659,-6.366,-6.4036,-6.4318,-6.4331,-6.3334,-6.2194,-6.1219,-6.1286,-6.1366,-6.1723,-6.2026,-6.2383,-6.2628,-6.3035,-6.298,-6.2953,-6.3333,-6.3442,-6.3605,-6.4201,-6.4337,-6.4446,-6.4853,-6.3632,-6.2432,-6.2506,-6.3027,-6.3298,-6.3154,-6.3813,-6.4473,-6.488,-6.5613,-6.6182,-6.6372,-6.6969,-6.7241,-6.7051,-6.7024,-6.6752,-6.6155,-6.6101,-6.5938,-6.5531,-6.5314,-6.4744,-6.374,-6.2546,-6.1352,-6.0185,0.0,0.0,0.0,0.0,0.0,0.0,0.0,0.0,0.0,0.0,0.0,0.0,0.0,0.0,0.0,0.0,0.0,0.0,0.0,0.0,0.0,0.0,0.0,-5.4821,-5.69,-5.824,-5.7054,-6.0293,-6.2139,-6.1,-6.1922,-6.2676,-6.2785,-6.3154,-6.3425,-6.3111,-6.39,-6.4022,-6.3566,-6.4193,-6.4787,-6.4923,-6.495,-6.4976,-6.4976,-6.4672,-6.4682,-6.5263,-6.5237,-6.5527,-6.6238,-6.6081,-6.6081,-6.6238,-6.6238,-6.6708,-6.7222,-6.6466,-6.6155,-6.6155,-6.6128,-6.6128,-6.6155,-6.6182,-6.6155,-6.6047,-6.545,-6.4853,-6.4256,-6.3659,-6.3089,-6.2763,-6.3333,-6.3089,-6.2926,-6.4066,-6.393,-6.3794,-6.4934,-6.5233,-6.5423,-6.6047,-6.6182,-6.6209,-6.6237,-6.5287,-6.4636,-6.5151,-6.526,-6.5287,-6.5287,-6.5802,0.0,-6.6182,-6.7186,-6.8136,-6.8706,-6.933,-6.9466,-6.8869,-6.8787,-6.8516,-6.7946,-6.7865,-6.7865,-6.7838,-6.7295,-6.6155,-6.4391,-6.2085,-6.0864,-6.0864,0.0,0.0,0.0,0.0,0.0,0.0,0.0,0.0,0.0,0.0,0.0,0.0,0.0,0.0,0.0,0.0,0.0,0.0,0.0,0.0,0.0,0.0,-5.7865,-5.695,-5.9372,-6.1295,-6.0943,-6.254,-6.3686,-6.336,-6.3632,-6.3876,-6.3894,-6.4066,-6.4165,-6.4613,-6.452,-6.4789,-6.5409,-6.4808,-6.5075,-6.645,-6.5962,-6.6233,-6.7282,-6.7241,-6.7376,-6.7508,-6.7825,-6.809,-6.825,-6.8566,-6.8724,-6.8751,-6.8751,-6.8908,-6.8902,-6.6792,-6.6298,-6.6698,-6.5964,-6.6072,-6.6834,-6.7268,-6.7132,-6.6752,-6.6562,-6.6101,-6.5504,-6.488,-6.4907,-6.507,-6.4798,-6.4907,-6.5205,-6.5531,-6.5504,-6.545,-6.5802,-6.6209,-6.6671,-6.7268,-6.7756,-6.819,-6.8652,-6.8462,-6.7865,-6.6698,-6.6861,-6.7159,-6.7159,-6.7295,0.0,-6.7403,-6.8082,-6.8597,-6.876,-6.933,-6.9656,-6.9466,-6.9032,-6.8516,-6.7946,-6.7485,-6.7051,-6.6617,-6.6454,-6.6128,-6.564,-6.412,-6.3116,0.0,0.0,0.0,0.0,0.0,0.0,0.0,0.0,0.0,0.0,0.0,0.0,0.0,0.0,0.0,0.0,0.0,0.0,0.0,0.0,0.0,0.0,-5.9103,-6.0156,-6.0048,-6.1674,-6.2926,-6.2926,-6.374,-6.431,-6.431,-6.431,-6.4419,-6.4663,-6.469,-6.4934,-6.5558,-6.5288,-6.5694,-6.6531,-6.5949,-6.6323,-6.7801,-6.7528,-6.7718,-6.854,-6.8731,-6.8973,-6.9428,-6.9455,-6.9911,0.0,-7.0529,-7.0557,-7.0502,-7.0772,-7.0879,0.0,0.0,0.0,0.0,0.0,-6.6926,-6.7431,-6.7783,-6.7675,-6.7376,-6.7376,-6.6969,-6.6427,-6.6074,-6.602,-6.6047,-6.5694,-6.602,-6.6562,-6.6806,-6.7051,-6.7295,-6.7566,-6.7892,-6.8245,-6.857,-6.8923,-6.9276,-6.9628,-6.99,0.0,-6.9032,-6.876,-6.8652,-6.8652,-6.8652,-6.8842,-6.933,-6.971,-7.0117,-7.0605,-7.0985,-7.1121,-7.085,-7.0253,0.0,0.0,0.0,-6.8,-6.7648,-6.6888,0.0,0.0,0.0,-6.4636,-6.4554,0.0,0.0,0.0,-6.0701,-5.9968,0.0,0.0,0.0,0.0,0.0,0.0,0.0,0.0,0.0,0.0,0.0,0.0,0.0,0.0,0.0,0.0,-6.1322,-6.2845,-6.3442,-6.3523,-6.3523,-6.3523,-6.4039,-6.4419,-6.4419,-6.4473,-6.4717,-6.526,-6.5368,-6.5667,-6.6291,0.0,0.0,0.0,0.0,-6.8056,-6.9398,-6.9239,-6.9319,-6.9613,-6.9454,-6.9992,-7.1013,-7.0686,-7.1275,-7.26,-7.2238,-7.1944,-7.1985,-7.2304,-7.2474,-7.2125,-7.0605,-6.9628,-6.9032,-6.8489,-6.8299,-6.8299,-6.8299,0.0,0.0,-6.8299,-6.7946,-6.7512,-6.7431,-6.7051,-6.6617,-6.6562,-6.6915,-6.7431,-6.7973,-6.8489,-6.9032,-6.9574,-6.9764,-6.9818,-6.99,-6.9954,-7.0036,-7.009,-7.0551,-7.1067,-7.1582,-7.0741,-7.0036,-7.0117,-7.0117,-7.0497,-7.1555,-7.1691,-7.2098,-7.3183,0.0,0.0,-7.2505,-7.1935,-7.1365,-7.0822,-7.0171,-6.9791,-6.971,-6.8163,-6.7566,-6.8082,-6.6535,-6.5938,-6.6427,-6.6427,-6.6345,-6.6128,-6.2275,-6.1027,0.0,0.0,0.0,0.0,0.0,0.0,0.0,0.0,0.0,0.0,0.0,0.0,0.0,0.0,0.0,-6.043,-6.2085,-6.3469,-6.4039,-6.4147,-6.4147,-6.4147,-6.4663,-6.5016,-6.5016,-6.5477,-6.583,-6.5938,-6.6399,-6.6915,-6.7512,-6.8,0.0,-6.9173,-6.8859,-6.9425,-7.096,-7.0313,-7.0796,-7.2422,0.0,0.0,-7.2774,-7.2774,-7.2909,-7.3126,-7.3126,-7.3045,-7.2909,-7.253,-7.2179,-7.1664,-7.1799,-7.1474,-7.0931,-7.0822,-7.0795,-7.0795,-7.0795,-7.0795,-7.0795,-7.0795,-7.0714,-7.0524,-7.0036,-6.9818,0.0,-6.914,-6.9113,-6.9221,-6.933,-6.9439,-6.9574,-6.9683,-7.0063,-7.0551,-7.104,-7.1501,-7.1989,-7.2505,-7.2695,-7.2803,-7.2912,-7.2342,-7.2016,-7.2532,-7.2613,-7.2695,-7.2912,-7.2939,-7.3048,-7.3265,-7.3292,-7.3237,-7.3129,-7.2559,-7.2152,-7.2016,-7.1012,-7.0225,-6.9737,-6.9384,-6.9249,-6.9357,-6.9032,-6.8652,-6.8272,-6.8272,-6.7783,-6.6806,-6.4988,-6.4283,0.0,0.0,0.0,0.0,0.0,0.0,0.0,0.0,0.0,0.0,0.0,-5.7432,0.0,0.0,-6.0728,-6.1895,-6.2845,-6.374,-6.4609,-6.4744,-6.4744,-6.4744,-6.5016,-6.5314,-6.564,-6.5938,-6.6372,-6.6969,-6.7295,-6.7838,-6.876,-6.9086,-6.9656,-7.0578,-7.0419,-7.1014,-7.2369,-7.1877,-7.2201,-7.3292,-7.3126,-7.3261,-7.3753,-7.3753,-7.3889,-7.4187,-7.4459,-7.4431,-7.4133,-7.3834,-7.3509,-7.3265,-7.3563,-7.2613,-7.104,-7.104,-7.085,-7.0632,-7.0931,-7.085,-7.0605,-7.0605,-7.0605,-7.0524,-7.0253,-7.0144,-7.009,-6.9791,-7.0144,-7.0605,-7.0605,-7.104,-7.1501,-7.1501,-7.1718,-7.2016,-7.2342,-7.2613,-7.2912,-7.3237,-7.3292,-7.34,-7.3699,-7.3482,-7.3265,-7.3292,-7.3292,-7.34,-7.3699,-7.3753,-7.3834,-7.4133,-7.416,-7.416,-7.416,-7.3617,-7.3156,-7.2858,-7.2261,-7.1664,-7.1067,-7.0741,-7.047,-7.0171,-6.9846,-6.9547,-6.9249,-6.9249,-6.895,-6.8353,-6.7729,-6.6806,0.0,0.0,0.0,0.0,0.0,0.0,0.0,0.0,-5.6132,-5.7381,-5.8132,-5.8968,-6.0213,-6.0891,-6.1786,-6.3333,-6.3686,-6.4147,-6.5233,-6.5368,-6.545,-6.5694,-6.5613,-6.5802,-6.6399,-6.6589,-6.7078,-6.8163,-6.8353,-6.8896,-7.0008,-7.0171,-7.0714,-7.1799,-7.1826,-7.2315,-7.3292,-7.3427,-7.3455,-7.3482,-7.359,-7.3889,-7.435,-7.435,-7.4594,-7.5055,-7.5517,-7.5408,-7.4866,-7.4866,-7.4784,-7.4676,-7.4676,-7.3237,-7.1148,-7.1257,-7.0985,-7.0632,-7.0985,-7.0822,-7.0415,-7.0415,-7.0415,-7.0415,-7.0415,-7.0415,-7.0415,-7.0415,-7.1094,-7.1826,-7.1826,-7.2559,-7.3292,-7.3292,-7.3292,-7.3319,-7.3455,-7.3455,-7.3509,-7.3617,-7.3644,-7.378,-7.4269,-7.435,-7.4187,-7.3699,-7.3644,-7.3807,-7.4269,-7.435,-7.4513,-7.4974,-7.5028,-7.5028,-7.5028,-7.4594,-7.4051,-7.3346,-7.3292,-7.2966,-7.2233,-7.1745,-7.1257,-7.0768,-7.0307,-7.0063,-7.0063,-7.0063,-7.0008,-6.9873,-6.9873,-6.8787,0.0,0.0,0.0,-5.5656,-5.592,-5.6425,0.0,0.0,-5.967,-6.0753,-6.1457,-6.1945,-6.2221,-6.2736,-6.336,-6.4093,-6.4663,-6.5233,-6.5911,-6.602,-6.6427,-6.7458,-6.7132,-6.7051,-6.7648,-6.8163,-6.876,-6.9466,-7.0008,-7.0578,-7.1257,-7.1772,-7.2396,-7.3075,-7.3102,-7.3156,-7.3292,-7.3807,-7.4079,-7.4106,-7.4594,-7.4866,-7.492,-7.492,-7.4947,-7.5028,-7.5083,-7.4784,-7.4269,-7.4269,-7.397,-7.3482,-7.3482,-7.3292,-7.3048,-7.359,-7.3726,-7.3617,-7.3156,-7.2939,-7.2912,-7.2912,-7.2912,-7.2912,-7.2912,-7.2912,-7.2912,-7.2912,-7.2993,-7.3102,-7.3102,-7.3183,-7.3292,-7.3292,-7.3292,-7.3455,-7.397,-7.4079,-7.4241,-7.473,-7.4838,-7.4838,-7.492,-7.492,-7.4893,-7.4838,-7.4838,-7.4838,-7.492,-7.492,-7.4947,-7.5001,-7.5028,-7.5028,-7.5028,-7.4974,-7.4459,-7.3373,-7.3292,-7.2776,-7.1636,-7.1528,-7.1447,-7.1392,-7.1311,-7.1284,-7.1284,-7.1284,-7.1012,-7.0497,-7.0497,-7.0063,-5.5595,0.0,0.0,0.0,-5.7884,-5.8206,-5.9803,-6.0102,-6.0345,-6.1434,-6.2112,-6.2655,-6.298,-6.3822,-6.4527,0.0,-6.5341,-6.6074,-6.7024,-6.7159,-6.7458,-6.8299,-6.819,-6.8272,-6.8896,-6.9167,-6.971,-7.066,-7.0958,-7.1528,-7.2478,-7.2776,-7.3183,-7.378,-7.4133,-7.4296,-7.4296,-7.5245,-7.5381,-7.4676,-7.5625,-7.5707,-7.5028,-7.5381,-7.5517,-7.5517,-7.5517,-7.5408,-7.5191,-7.5191,-7.4838,-7.4296,-7.4296,-7.4296,-7.4296,-7.4214,-7.397,-7.3672,-7.378,-7.359,-7.3292,-7.3292,-7.3292,-7.3292,-7.3292,-7.3292,-7.3292,-7.3292,-7.3292,-7.3373,-7.3726,-7.3807,-7.3889,-7.4214,-7.4296,-7.4377,-7.4621,-7.4676,-7.473,-7.4974,-7.5028,-7.5028,-7.5028,-7.5028,-7.5028,-7.5028,-7.5028,-7.5028,-7.5028,-7.5028,-7.5028,-7.5028,-7.5028,-7.5028,-7.5028,-7.5028,-7.4811,-7.4323,-7.4296,-7.3916,-7.3102,-7.3048,-7.2722,-7.2016,-7.2342,-7.2179,-7.1474,-7.1826,-7.1691,-7.1094,-7.1094,-7.0985,-5.6463,0.0,0.0,-5.905,-5.9448,-5.9941,-6.0849,-6.1043,-6.1372,-6.2221,-6.2845,-6.3415,-6.3849,-6.4744,0.0,-6.5667,-6.6209,-6.6969,-6.8,-6.8136,-6.8353,-6.8977,-6.9032,-6.9276,-6.99,-6.9954,-7.0443,-7.1636,-7.1881,-7.2451,-7.3482,-7.3699,-7.4051,-7.4648,-7.5218,-7.5435,-7.5273,-7.6304,-7.6304,-7.5273,-7.6141,-7.6114,-7.5273,-7.5544,-7.5652,-7.5652,-7.5652,-7.5652,-7.5652,-7.5652,-7.5408,-7.5028,-7.5028,-7.5028,-7.4974,-7.4567,-7.4133,-7.3834,-7.4269,-7.4133,-7.378,-7.378,-7.378,-7.3753,-7.359,-7.3536,-7.3509,-7.3346,-7.3292,-7.34,-7.3834,-7.3943,-7.4079,-7.4648,-7.4784,-7.4784,-7.4784,-7.492,-7.4974,-7.4811,-7.492,-7.5028,-7.5028,-7.5028,-7.5083,-7.5245,-7.5137,-7.5028,-7.5028,-7.5164,-7.5327,-7.549,-7.5517,-7.5463,-7.5273,-7.5273,-7.5137,-7.4811,-7.4784,-7.454,-7.397,-7.3943,-7.3536,-7.264,-7.2885,-7.2613,-7.1718,-7.1989,-7.1908,-7.1474,-7.1474,-7.1474,0.0,0.0,-5.78,-5.9744,-6.0634,-6.1387,-6.2946,-6.3333,-6.3523,-6.4093,-6.469,-6.5124,-6.5124,-6.5667,-6.6291,-6.6861,-6.7458,-6.8055,-6.8679,-6.876,-6.8977,-6.9601,-6.9683,-6.9927,0.0,-7.0578,-7.1067,-7.2233,-7.2885,-7.3509,-7.4133,-7.4676,-7.5245,-7.5842,-7.6439,-7.6494,-7.587,-7.6521,-7.6521,-7.587,-7.5924,-7.5924,-7.5842,-7.53,-7.5055,-7.5055,-7.5055,-7.5055,-7.5055,-7.5055,-7.5028,-7.5028,-7.5028,-7.5028,-7.5028,-7.5001,-7.4974,-7.4974,-7.5001,-7.4974,-7.4974,-7.4974,-7.4974,-7.4866,-7.4323,-7.416,-7.4024,-7.3455,-7.3292,-7.3292,-7.3319,-7.3319,-7.3482,-7.4051,-7.4214,-7.4214,-7.4214,-7.4621,-7.4866,-7.4323,-7.4648,-7.5028,-7.5028,-7.5028,-7.5218,-7.5788,-7.5381,-7.5028,-7.5028,-7.5517,-7.6114,-7.6711,-7.6792,-7.6548,-7.5924,-7.587,-7.5408,-7.4269,-7.4214,-7.3943,-7.3346,-7.3319,-7.3319,-7.3265,-7.2695,-7.2369,-7.2342,-7.1772,-7.1501,-7.1474,-7.1474,-7.1474,0.0,0.0,-5.899,-6.1149,-6.197,-6.2525,-6.319,-6.374,-6.4066,-6.4256,-6.4473,-6.4609,-6.4609,-6.545,-6.6182,-6.6399,-6.7566,-6.8842,-6.9846,-7.0334,-7.0497,-7.0334,-7.0632,0.0,0.0,0.0,0.0,-7.2885,-7.3536,-7.4323,-7.5273,-7.5897,-7.6304,-7.6521,-7.6711,-7.6548,-7.5924,-7.6521,-7.6331,-7.53,-7.53,-7.5517,-7.587,-7.53,-7.5028,-7.5028,-7.5028,-7.5028,-7.5028,-7.5028,-7.5028,-7.5028,-7.5028,-7.5028,-7.5028,-7.5028,-7.5028,-7.5028,-7.5028,-7.5028,-7.5028,-7.5028,-7.5028,-7.4974,-7.4784,-7.473,-7.4703,-7.4486,-7.416,-7.397,-7.435,-7.416,-7.4024,-7.4594,-7.473,-7.473,-7.473,-7.4893,-7.5083,-7.53,-7.5164,-7.5137,-7.5544,-7.5273,-7.5218,-7.5815,-7.6087,-7.5924,-7.511,-7.5897,-7.6439,-7.6222,-7.6575,-7.6765,-7.6548,-7.6521,-7.6358,-7.5978,-7.5544,-7.5245,-7.5028,-7.4648,-7.4269,-7.3889,-7.4051,-7.3753,-7.2993,-7.3183,-7.3075,-7.2695,-7.2695,-7.2695,0.0,-5.9378,-6.0226,-6.2443,-6.3162,-6.356,-6.4138,-6.469,-6.488,-6.4663,-6.4609,-6.4554,-6.4337,-6.5314,-6.6128,-6.6128,-6.762,-6.9194,-7.0415,-7.0931,-7.1094,-7.0931,-7.1419,0.0,0.0,0.0,0.0,-7.3237,-7.4024,-7.4893,-7.5842,-7.6494,-7.6846,-7.6846,-7.6846,-7.6629,-7.6249,-7.6629,-7.6331,-7.5327,-7.5327,-7.5408,-7.5571,-7.5191,-7.5028,-7.5028,-7.5028,-7.5028,-7.5028,-7.5028,-7.5028,-7.5028,-7.5028,-7.5028,-7.5028,-7.5028,-7.5028,-7.5028,-7.5028,-7.5028,-7.5028,-7.5028,-7.5028,-7.4974,-7.4784,-7.473,-7.4676,-7.4459,-7.4133,-7.3943,-7.4323,-7.4133,-7.3997,-7.4567,-7.473,-7.473,-7.473,-7.4866,-7.5137,-7.5517,-7.5463,-7.5517,-7.6141,-7.5924,-7.5788,-7.6168,-7.6575,-7.6548,-7.5761,-7.6358,-7.6684,-7.6277,-7.6602,-7.6738,-7.6521,-7.6494,-7.6412,-7.6195,-7.5815,-7.5598,-7.5598,-7.5218,-7.4838,-7.4486,-7.4648,-7.435,-7.3617,-7.378,-7.3672,-7.3292,-7.3292,-7.3292,-6.0031,-6.066,-6.1203,-6.3668,-6.4391,-6.469,-6.5857,-6.6155,-6.5992,-6.5368,-6.5205,-6.5016,0.0,0.0,-6.6101,-6.6155,-6.7675,-6.9303,-7.0524,-7.0741,-7.0985,0.0,0.0,0.0,0.0,0.0,0.0,-7.3373,0.0,-7.53,-7.5924,-7.6521,-7.6846,-7.6846,-7.6819,-7.6792,-7.6792,-7.6765,-7.6439,-7.5842,-7.5842,-7.5571,-7.5028,-7.5028,-7.5028,-7.5028,-7.5055,-7.5055,-7.5055,-7.5083,-7.511,-7.511,-7.511,-7.511,-7.511,-7.5083,-7.5055,-7.5055,-7.5028,-7.5028,-7.5028,-7.5028,-7.5028,-7.492,-7.4377,-7.4214,-7.4106,-7.3536,-7.34,-7.3427,-7.3427,-7.3427,-7.3563,-7.4133,-7.4241,-7.4214,-7.4214,-7.4648,-7.5028,-7.5083,-7.5598,-7.6168,-7.6738,-7.6846,-7.6846,-7.6874,-7.6874,-7.6846,-7.6792,-7.6819,-7.6819,-7.6792,-7.6819,-7.6602,-7.6005,-7.5951,-7.5707,-7.5137,-7.5083,-7.5055,-7.5055,-7.5028,-7.5028,-7.5028,-7.4486,-7.4214,-7.4214,-7.3672,-7.3373,-7.3373,-7.3373,-7.3373,-6.1064,-6.1911,-6.2524,-6.4274,-6.5044,-6.5423,-6.5897,-6.6481,-6.6617,-6.602,-6.5234,-6.4748,0.0,0.0,0.0,-6.6644,-6.8679,0.0,-7.1745,-7.2695,0.0,0.0,0.0,-7.4187,-7.3753,-7.4241,0.0,0.0,-7.4866,-7.549,-7.6548,-7.6765,-7.6846,-7.6846,-7.6385,-7.6141,-7.6141,-7.5707,-7.5408,-7.5245,-7.5245,-7.5164,-7.5028,-7.5028,-7.5028,-7.5055,-7.549,-7.568,-7.5707,-7.6195,-7.6385,-7.6385,-7.6385,-7.6385,-7.6331,-7.5842,-7.568,-7.5625,-7.5164,-7.5028,-7.5028,-7.5028,-7.5028,-7.5001,-7.4838,-7.4811,-7.4784,-7.4621,-7.4893,-7.5245,-7.5245,-7.5245,-7.5273,-7.5435,-7.5137,-7.4811,-7.4811,-7.492,-7.53,-7.6195,-7.6846,-7.7172,-7.6874,-7.6846,-7.6982,-7.7416,-7.7498,-7.7172,-7.6249,-7.6548,-7.6656,-7.6195,-7.6548,-7.6765,-7.6602,-7.6602,-7.6521,-7.6385,-7.5924,-7.568,-7.568,-7.5245,-7.5028,-7.5028,-7.4893,-7.4811,-7.4811,-7.4648,-7.4567,-7.4567,-7.4567,-7.4735,-6.222,-6.2975,-6.3725,-6.493,-6.5601,-6.5904,-6.5904,-6.6298,-6.6369,-6.5261,-6.4412,0.0,0.0,0.0,0.0,0.0,0.0,0.0,-7.2559,-7.3807,-7.4431,0.0,-7.5083,0.0,-7.5381,-7.5381,-7.5625,0.0,-7.5707,-7.5707,-7.6385,-7.6439,-7.6439,-7.6439,-7.5842,-7.5517,-7.5517,-7.5191,-7.5028,-7.5028,-7.5273,-7.5408,-7.5408,-7.568,-7.5815,-7.5842,0.0,-7.6304,-7.6331,-7.6684,-7.6846,-7.6846,-7.6846,-7.6846,-7.6792,-7.6439,-7.6304,-7.6277,-7.5924,-7.5815,-7.5734,-7.5191,-7.5028,-7.5028,-7.5028,-7.5028,-7.5083,-7.5327,-7.5463,-7.5625,-7.6168,-7.6114,-7.5978,-7.6249,-7.6059,-7.5815,-7.5815,-7.5815,-7.6087,-7.7036,-7.7688,-7.8013,-7.766,-7.7389,-7.7416,-7.8013,-7.766,-7.7172,-7.6765,-7.7009,-7.6982,-7.6385,-7.6629,-7.6846,-7.6846,-7.6846,-7.6846,-7.6846,-7.6494,-7.6304,-7.6304,-7.5734,-7.5408,-7.5408,-7.5137,-7.5028,-7.5028,-7.5028,-7.5028,-7.5028,-7.517,-7.5508,-6.3291,-6.387,-6.4577,-6.5621,-6.6089,-6.6343,-6.5956,-6.6002,-6.577,-6.4076,0.0,0.0,-6.2594,0.0,-6.4934,-6.6806,0.0,-7.1311,-7.3048,-7.435,-7.5137,-7.5137,-7.6195,-7.6955,-7.6955,-7.6548,-7.6656,-7.7633,-7.6738,-7.6087,-7.5924,-7.5815,-7.5788,-7.5788,-7.5273,-7.5028,-7.5028,-7.5083,-7.5137,-7.5137,-7.5734,-7.6032,-7.6032,-7.6575,-7.6846,-7.6846,0.0,0.0,-7.6955,-7.7036,-7.7063,-7.7063,-7.7063,-7.7063,-7.7063,-7.6982,-7.6955,-7.6955,-7.6874,-7.6846,-7.6656,-7.5598,-7.5245,-7.5245,-7.5245,-7.5245,-7.5354,-7.587,-7.5707,-7.5625,-7.6684,-7.6548,-7.6277,-7.6819,-7.6901,-7.6846,-7.6846,-7.6901,-7.7091,-7.7633,-7.8203,-7.8637,-7.8719,-7.8312,-7.8149,-7.8746,-7.7959,-7.7498,-7.8013,-7.7878,-7.7525,-7.7009,-7.6955,-7.6982,-7.7063,-7.6928,-7.6874,-7.6955,-7.6874,-7.6846,-7.6846,-7.6304,-7.6032,-7.6032,-7.5517,-7.5245,-7.5245,-7.5245,-7.5245,-7.5245,-7.5754,-7.6036,-6.3829,-6.4455,-6.4691,-6.5738,-6.6366,-6.6543,-6.5882,-6.5708,0.0,0.0,0.0,-6.1934,-6.3055,0.0,0.0,-6.7376,0.0,0.0,0.0,0.0,-7.5734,0.0,0.0,0.0,0.0,0.0,0.0,0.0,0.0,0.0,-7.5951,-7.5435,-7.5164,-7.5164,-7.5055,-7.5028,-7.5028,-7.549,-7.5734,-7.5761,-7.6385,-7.6684,-7.6684,-7.6792,-7.6846,-7.6874,-7.7362,0.0,-7.7606,-7.8095,-7.8312,-7.8312,-7.8312,-7.8312,-7.823,-7.7742,-7.7552,-7.7498,-7.7009,-7.6846,-7.6792,-7.6602,-7.6521,-7.6521,-7.6521,-7.6521,-7.6548,-7.6656,-7.6955,-7.7308,-7.7525,-7.7498,-7.7416,-7.7552,-7.7199,-7.6846,-7.6846,-7.7226,-7.7579,-7.7688,-7.8203,-7.8773,-7.9261,-7.9261,-7.9397,-8.0021,-7.994,-7.9831,-7.994,-7.8637,-7.7688,-7.7579,-7.7552,-7.7769,-7.8257,-7.7389,-7.7036,-7.7525,-7.7118,-7.6846,-7.6846,-7.6738,-7.6684,-7.6684,-7.6575,-7.6521,-7.6521,-7.6866,-7.7038,-7.7038,-7.7551,-7.7785,-6.3933,-6.4743,-6.5449,-6.5713,-6.6028,-6.605,-6.4524,0.0,0.0,0.0,0.0,-6.1747,-6.2757,0.0,0.0,0.0,0.0,0.0,0.0,0.0,0.0,0.0,0.0,0.0,0.0,0.0,0.0,0.0,0.0,0.0,-7.5951,-7.5354,-7.5028,-7.5028,-7.5028,-7.5164,-7.549,-7.5761,-7.6059,-7.6385,-7.7009,-7.7308,-7.7308,-7.7606,-7.7769,-7.7769,-7.804,0.0,-7.8203,-7.8475,-7.861,-7.861,-7.861,-7.861,-7.8556,-7.8285,-7.8176,-7.8149,-7.785,-7.7769,-7.7769,-7.7769,-7.7335,-7.6765,-7.6439,-7.6575,-7.6846,-7.6846,-7.7036,-7.7416,-7.8013,-7.7959,-7.7796,-7.8095,-7.7959,-7.7769,-7.7769,-7.823,-7.8637,-7.8637,-7.9126,-7.9641,-7.9913,-7.9967,-8.0075,-8.0374,-8.0428,-8.0428,-8.0428,-7.9668,-7.9126,-7.9126,-7.8827,-7.8746,-7.9044,-7.8257,-7.7878,-7.8149,-7.7905,-7.7769,-7.7769,-7.7471,-7.7308,-7.7308,-7.6982,-7.6846,-7.6846,-7.7338,-7.7511,-7.7511,-7.8196,-7.8567,-6.3907,-6.4953,-6.5998,-6.5658,-6.5792,-6.545,-6.3512,-6.3113,0.0,0.0,0.0,0.0,0.0,0.0,0.0,0.0,0.0,0.0,0.0,0.0,0.0,0.0,0.0,0.0,0.0,0.0,0.0,0.0,0.0,0.0,-7.5951,-7.5463,-7.5137,-7.5028,-7.5137,-7.5435,-7.5897,-7.6168,-7.6548,-7.7036,-7.7633,-7.7905,-7.7932,-7.8393,-7.861,-7.861,-7.861,0.0,0.0,-7.861,-7.861,-7.861,-7.861,-7.861,-7.861,-7.861,-7.861,-7.861,-7.861,-7.861,-7.861,-7.861,-7.7986,-7.7118,-7.6629,-7.6819,-7.7226,-7.7226,-7.7226,-7.7416,-7.8366,-7.8257,-7.8013,-7.8502,-7.8692,-7.88,-7.88,-7.9261,-7.9696,-7.9696,-8.0075,-8.0455,-8.0591,-8.0618,-8.0645,-8.0781,-8.0808,-8.0754,-8.0618,-8.0727,-8.0754,-8.0618,-8.0048,-7.975,-7.9858,-7.9343,-7.9044,-7.918,-7.8936,-7.88,-7.88,-7.823,-7.7905,-7.7905,-7.7443,-7.7401,-7.7373,-7.7894,-7.8239,-7.8239,-7.9095,-7.9379,-6.4195,-6.4953,-6.558,-6.6076,-6.6107,-6.5555,-6.4036,0.0,0.0,0.0,0.0,-6.1185,-6.3,0.0,0.0,0.0,0.0,-6.9737,0.0,0.0,0.0,0.0,0.0,0.0,0.0,0.0,0.0,0.0,0.0,0.0,0.0,-7.5842,-7.5571,-7.5028,-7.5544,-7.5842,-7.5897,-7.7009,-7.7579,-7.7633,-7.823,-7.8529,-7.8529,-7.8583,-7.861,-7.861,-7.861,0.0,0.0,-7.861,-7.861,-7.861,-7.861,-7.861,-7.861,-7.861,-7.861,-7.861,-7.861,-7.861,-7.861,-7.861,-7.8529,-7.842,-7.8366,-7.8393,-7.8447,-7.8447,-7.8447,-7.8475,-7.8583,-7.8556,-7.8529,-7.8583,-7.9017,-7.9397,-7.9397,-7.9886,-8.0347,-8.0347,-8.0374,-8.0591,-8.1134,-8.1215,-8.1405,-8.1948,-8.2029,-8.1839,-8.1297,-8.1704,-8.1812,-8.1297,-8.07,-8.0564,-8.1107,-8.0591,-8.0482,-8.1025,-8.0021,-7.9397,-7.9397,-7.8827,-7.8529,-7.8529,-7.8801,-7.9126,-7.9126,-8.0,-8.0346,-8.0346,-8.0892,-8.0926,-6.3803,-6.5188,-6.639,-6.6312,-6.6263,-6.5766,-6.3901,0.0,0.0,-6.1336,-6.1096,-6.1559,-6.3136,-6.4201,-6.507,-6.5802,-6.6915,0.0,0.0,0.0,0.0,0.0,0.0,0.0,0.0,0.0,0.0,0.0,0.0,0.0,0.0,-7.6304,-7.5978,-7.6114,-7.5978,-7.6249,-7.6982,-7.7471,-7.7905,-7.8257,-7.8502,-7.861,-7.861,-7.861,-7.861,-7.861,-7.861,0.0,0.0,-7.861,-7.861,-7.861,-7.861,-7.861,-7.861,-7.861,-7.861,-7.861,-7.861,-7.861,-7.861,-7.861,-7.861,-7.8529,-7.8176,-7.8312,-7.8529,-7.8176,-7.8339,-7.861,-7.861,-7.8882,-7.9234,-7.9614,-7.9886,-8.0048,-8.0048,-8.0537,-8.0944,-8.0944,-8.1242,-8.1568,-8.1785,-8.1839,-8.1921,-8.2138,-8.2192,-8.1975,-8.1378,-8.1514,-8.1432,-8.0835,-8.0564,-8.0645,-8.1269,-8.0428,-8.013,-8.0727,-7.9967,-7.9479,-7.9479,-7.8909,-7.8788,-7.8965,-7.9114,-7.9466,-7.9641,-8.034,-8.0686,-8.0686,-8.1232,-8.1263,-6.3227,-6.5109,-6.6756,-6.639,-6.6315,-6.5766,0.0,0.0,0.0,-6.1372,-6.1399,-6.1907,-6.3407,-6.4364,-6.4988,-6.5151,-6.6209,-6.7485,0.0,0.0,0.0,0.0,0.0,0.0,0.0,0.0,0.0,0.0,0.0,0.0,0.0,-7.7009,-7.6575,-7.6819,-7.6575,-7.6846,-7.7715,-7.7905,-7.8203,-7.861,-7.861,-7.861,-7.861,-7.861,-7.861,-7.861,0.0,0.0,0.0,-7.861,-7.861,-7.861,-7.861,-7.861,-7.861,-7.861,-7.8719,-7.8882,-7.8882,-7.899,-7.9126,-7.9126,-7.9126,-7.9071,-7.8637,-7.8692,-7.8827,-7.8583,-7.8827,-7.9126,-7.9126,-7.9451,-7.9858,-8.032,-8.0564,-8.07,-8.07,-8.1161,-8.1568,-8.1568,-8.1894,-8.2192,-8.2192,-8.2192,-8.2192,-8.2192,-8.2192,-8.1975,-8.1378,-8.1459,-8.1351,-8.0754,-8.07,-8.0862,-8.1269,-8.0672,-8.0482,-8.0917,-8.0374,-8.0021,-8.0021,-7.9451,-7.9304,-7.9838,-7.9823,-7.9916,-8.0442,-8.0798,-8.0859,-8.0859,-8.1232,-8.1403,-6.2522,-6.4534,-6.6286,-6.6286,-6.616,-6.558,0.0,0.0,0.0,-6.1943,-6.1666,-6.2014,-6.3921,-6.431,-6.45,-6.5097,-6.6209,-6.7648,-6.9439,0.0,0.0,0.0,0.0,0.0,0.0,0.0,0.0,0.0,0.0,0.0,0.0,-7.8013,-7.7443,-7.6846,-7.7389,-7.7715,-7.7715,-7.8312,-7.8583,-7.861,-7.861,-7.861,-7.861,-7.861,-7.861,0.0,0.0,0.0,0.0,-7.861,-7.861,-7.861,-7.861,-7.861,-7.861,-7.861,-7.899,-7.9479,-7.9479,-7.9886,-8.0401,-8.0401,-8.0401,-8.0401,-8.0401,-7.9967,-7.9614,-8.0238,-8.0401,-8.0401,-8.0401,-8.0401,-8.0401,-8.0428,-8.0862,-8.1297,-8.1297,-8.1758,-8.2192,-8.2192,-8.2192,-8.2192,-8.2192,-8.2192,-8.2192,-8.2192,-8.2192,-8.1975,-8.1378,-8.1812,-8.1948,-8.1378,-8.1297,-8.1297,-8.1297,-8.1839,-8.2165,-8.2165,-8.1622,-8.1297,-8.1297,-8.0727,-8.0555,-8.107,-8.1029,-8.1079,-8.1606,-8.1512,-8.1403,-8.1403,-8.1403,-8.1403,-6.1346,-6.3045,-6.4404,-6.4012,-6.4219,-6.4059,-6.2922,0.0,0.0,-6.2229,-6.1809,-6.2014,-6.3948,-6.431,-6.4771,-6.6209,-6.6752,-6.7485,0.0,0.0,0.0,0.0,0.0,0.0,0.0,0.0,0.0,0.0,0.0,0.0,0.0,0.0,-7.823,-7.804,-7.785,-7.7905,-7.8312,-7.8502,-7.861,-7.861,-7.861,-7.861,-7.861,-7.861,0.0,0.0,0.0,0.0,0.0,-7.861,-7.861,-7.861,-7.861,-7.8854,-7.9207,-7.9207,-7.9614,-8.0075,-7.9641,-7.9614,-7.9777,-7.9777,-7.9777,-7.994,-8.0781,-8.0591,-8.0157,-8.0374,-8.0428,-8.051,-8.0917,-8.1025,-8.1134,-8.1541,-8.1785,-8.1921,-8.1921,-8.2056,-8.2192,-8.2192,-8.2192,-8.2192,-8.2192,-8.2192,-8.2192,-8.2192,-8.2192,-8.1975,-8.1378,-8.1839,-8.1975,-8.1378,-8.1676,-8.1921,-8.1921,-8.1704,-8.1758,-8.2165,-8.1622,-8.1297,-8.1297,-8.1063,-8.1097,-8.1608,-8.1826,-8.2051,-8.2129,-8.2106,-8.1797,-8.1403,-8.1403,-8.1403,0.0,-6.1868,-6.328,-6.2914,-6.3092,0.0,0.0,0.0,0.0,0.0,-6.1952,-6.2014,-6.3948,-6.431,-6.4744,-6.6101,-6.6888,-6.7675,0.0,0.0,0.0,0.0,0.0,0.0,0.0,0.0,0.0,0.0,0.0,0.0,0.0,0.0,-7.8827,-7.861,-7.8257,-7.823,-7.861,-7.861,-7.861,-7.861,-7.861,-7.861,-7.861,-7.861,0.0,0.0,0.0,0.0,0.0,-7.861,-7.8719,-7.8936,-7.8936,-7.9316,-7.9831,-7.9831,-8.0075,-8.0374,-7.9967,-7.9994,-8.0184,-8.0184,-8.032,-8.0645,-8.1405,-8.1378,-8.1079,-8.1079,-8.1079,-8.1188,-8.1541,-8.1649,-8.1731,-8.2111,-8.2192,-8.2192,-8.2192,-8.2192,-8.2192,-8.2192,-8.2192,-8.2192,-8.2192,-8.2192,-8.2192,-8.2192,-8.2192,-8.2056,-8.1676,-8.1975,-8.2056,-8.1676,-8.1975,-8.2192,-8.2192,-8.1866,-8.1785,-8.2165,-8.1839,-8.1649,-8.1649,-8.1818,-8.1963,-8.2532,-8.2848,-8.2786,-8.2668,-8.219,-8.1769,-8.1403,-8.1403,-8.1575,0.0,0.0,0.0,0.0,0.0,0.0,0.0,0.0,0.0,0.0,0.0,0.0,-6.4002,-6.4337,-6.4554,-6.526,-6.6752,-6.8082,0.0,0.0,0.0,0.0,0.0,0.0,0.0,0.0,0.0,0.0,0.0,0.0,0.0,0.0,-7.918,-7.861,-7.861,-7.861,-7.861,-7.861,-7.861,-7.861,-7.861,-7.861,-7.861,-7.861,0.0,0.0,0.0,0.0,0.0,-7.8664,-7.899,-7.9479,-7.9533,-7.994,-8.0482,-8.0482,-8.051,-8.0537,-8.051,-8.0835,-8.1297,-8.1297,-8.1704,-8.2192,-8.2192,-8.2192,-8.2192,-8.2192,-8.2192,-8.2192,-8.2192,-8.2192,-8.2192,-8.2192,-8.2192,-8.2192,-8.2192,-8.2192,-8.2192,-8.2192,-8.2192,-8.2192,-8.2192,-8.2192,-8.2192,-8.2192,-8.2192,-8.2192,-8.2192,-8.2192,-8.2192,-8.2192,-8.2192,-8.2192,-8.2192,-8.2192,-8.2192,-8.2192,-8.2192,-8.2192,-8.2192,-8.2747,-8.3116,-8.3693,-8.3571,-8.3466,-8.3202,-8.1993,-8.1403,-8.1403,-8.1403,-8.1575,0.0,0.0,0.0,0.0,0.0,0.0,0.0,0.0,0.0,0.0,0.0,0.0,0.0,-6.4316,-6.452,-6.6942,-6.6909,-6.7584,0.0,0.0,0.0,0.0,0.0,0.0,0.0,0.0,0.0,0.0,0.0,0.0,0.0,0.0,-7.8746,-7.861,-7.861,-7.861,-7.861,-7.861,-7.861,-7.861,-7.861,-7.861,-7.861,-7.861,0.0,0.0,0.0,0.0,-7.8637,-7.9099,-7.937,-7.9533,-8.0021,-8.0564,-8.1107,-8.1107,-8.1378,-8.1704,-8.1269,-8.1188,-8.1297,-8.1297,-8.1704,-8.2192,-8.2192,-8.2192,-8.2192,-8.2192,-8.2192,-8.2192,-8.2192,-8.2192,-8.2192,-8.2192,-8.2192,-8.2192,-8.2192,-8.2192,-8.2192,-8.2192,-8.2192,-8.2192,-8.2192,-8.2192,-8.2192,-8.2192,-8.2192,-8.2192,-8.2192,-8.2192,-8.2192,-8.2192,-8.2192,-8.2192,-8.2192,-8.2192,-8.2192,-8.2192,-8.2192,-8.2378,-8.2747,-8.3299,-8.3693,-8.4211,-8.369,-8.2998,-8.2527,-8.1769,-8.1403,-8.1403,-8.1403,-8.1575,0.0,0.0,0.0,0.0,0.0,0.0,0.0,0.0,0.0,0.0,0.0,0.0,0.0,0.0,0.0,-6.6855,-6.7215,0.0,0.0,0.0,0.0,0.0,0.0,0.0,0.0,0.0,0.0,0.0,0.0,0.0,0.0,0.0,-7.8882,-7.861,-7.861,-7.861,-7.861,-7.861,-7.861,-7.861,-7.861,-7.861,-7.861,-7.861,-7.861,0.0,0.0,0.0,-7.9044,-7.937,-7.9804,-8.0347,-8.07,-8.1188,-8.1704,-8.1704,-8.1568,-8.1378,-8.1324,-8.1297,-8.1351,-8.1622,-8.1921,-8.2192,-8.2192,-8.2192,-8.2192,-8.2192,-8.2192,-8.2192,-8.2192,-8.2192,-8.2192,-8.2192,-8.2192,-8.2192,-8.2192,-8.2192,-8.2192,-8.2192,-8.2192,-8.2192,-8.2192,-8.2192,-8.2192,-8.2192,-8.2192,-8.2192,-8.2192,-8.2192,-8.2192,-8.2192,-8.2192,-8.2192,-8.2192,-8.2192,-8.2192,-8.2192,-8.2378,-8.2563,-8.2932,-8.3665,-8.4072,-8.4333,-8.3587,-8.2949,-8.2302,-8.1684,-8.1403,-8.1403,-8.1575,-8.1916,0.0,0.0,-5.8601,-5.8993,-5.9228,-5.9477,0.0,0.0,0.0,0.0,0.0,0.0,0.0,0.0,0.0,0.0,0.0,0.0,0.0,0.0,0.0,0.0,0.0,0.0,0.0,0.0,0.0,0.0,0.0,0.0,0.0,0.0,0.0,-7.861,-7.861,-7.861,-7.861,-7.861,-7.861,-7.861,-7.861,-7.861,-7.861,-7.861,-7.861,0.0,0.0,0.0,-7.9506,-7.9696,-8.0374,-8.1324,-8.1405,-8.1758,-8.2192,-8.2192,-8.1541,-8.0754,-8.1269,-8.1378,-8.1405,-8.2002,-8.2192,-8.2192,-8.2192,-8.2192,-8.2192,-8.2192,-8.2192,-8.2192,-8.2192,-8.2192,-8.2192,-8.2192,-8.2192,-8.2192,-8.2192,-8.2192,-8.2192,-8.2192,-8.2192,-8.2192,-8.2192,-8.2192,-8.2192,-8.2192,-8.2192,-8.2192,-8.2192,-8.2192,-8.2192,-8.2192,-8.2192,-8.2192,-8.2192,-8.2192,-8.2378,-8.2378,-8.2747,-8.2932,-8.3116,-8.3918,-8.4305,-8.4073,-8.3454,-8.2808,-8.2162,-8.1656,-8.1403,-8.1403,-8.1916,-8.2284,-5.6379,-5.7582,-5.8418,-5.8026,-5.8653,-5.9228,0.0,0.0,0.0,0.0,0.0,0.0,0.0,0.0,0.0,0.0,0.0,0.0,0.0,0.0,0.0,0.0,0.0,0.0,0.0,0.0,0.0,0.0,0.0,0.0,0.0,0.0,0.0,-7.861,-7.861,-7.861,-7.861,-7.861,-7.861,-7.861,-7.861,-7.861,-7.861,-7.861,-7.861,0.0,0.0,-7.9397,-7.956,-8.0591,-8.1134,-8.1351,-8.1866,-8.2111,-8.2192,-8.2192,-8.2083,-8.1921,-8.2029,-8.1731,-8.1405,-8.2002,-8.2192,-8.2192,-8.2192,-8.2192,-8.2192,-8.2192,-8.2192,-8.2192,-8.2192,-8.2192,-8.2192,-8.2192,-8.2192,-8.2192,-8.2192,-8.2192,-8.2192,-8.2192,-8.2192,-8.2192,-8.2192,-8.2192,-8.2192,-8.2192,-8.2192,-8.2192,-8.2192,-8.2192,-8.2192,-8.2192,-8.2192,-8.2192,-8.2192,-8.2563,-8.2747,-8.2747,-8.2932,-8.3272,-8.4211,-8.4249,-8.4045,-8.3426,-8.278,-8.2162,-8.1544,-8.1459,-8.1403,-8.1403,-8.1916,-8.2284,-5.6092,-5.7163,-5.8052,-5.8104,-5.9228,-6.0169,0.0,0.0,0.0,0.0,0.0,0.0,0.0,0.0,0.0,0.0,0.0,0.0,0.0,0.0,0.0,0.0,0.0,0.0,0.0,0.0,0.0,0.0,0.0,0.0,0.0,0.0,0.0,0.0,-7.861,-7.861,-7.861,-7.861,-7.861,-7.861,-7.861,-7.861,-7.861,-7.861,-7.8773,-7.9099,0.0,-7.9858,-8.051,-8.1079,-8.1486,-8.1812,-8.2083,-8.2192,-8.2138,-8.1839,-8.1704,-8.1704,-8.1704,-8.1758,-8.1839,-8.2111,-8.2192,-8.2192,-8.2192,-8.2192,-8.2192,-8.2192,-8.2192,-8.2192,-8.2192,-8.2192,-8.2192,-8.2192,-8.2192,-8.2192,-8.2192,-8.2192,-8.2192,-8.2192,-8.2192,-8.2192,-8.2192,-8.2192,-8.2192,-8.2192,-8.2192,-8.2192,-8.2192,-8.2192,-8.2192,-8.2192,-8.2192,-8.2192,-8.2192,-8.2563,-8.3116,-8.3637,-8.3637,-8.4001,-8.4753,-8.4344,-8.3904,-8.3286,-8.264,-8.1993,-8.1403,-8.1403,-8.1403,-8.1403,-8.2086,-8.2623,-5.6327,-5.7163,-5.8026,0.0,0.0,0.0,0.0,0.0,0.0,0.0,0.0,0.0,0.0,0.0,0.0,0.0,0.0,0.0,0.0,0.0,0.0,0.0,0.0,0.0,0.0,0.0,0.0,0.0,0.0,0.0,0.0,0.0,0.0,0.0,-7.861,-7.861,-7.861,-7.861,-7.861,-7.861,-7.861,-7.861,-7.861,-7.861,-7.8936,-7.9506,-7.9641,-8.032,-8.1324,-8.1459,-8.1785,-8.2192,-8.2192,-8.2192,-8.2138,-8.1676,-8.1432,-8.1324,-8.1459,-8.1731,-8.2002,-8.2138,-8.2192,-8.2192,-8.2192,-8.2192,-8.2192,-8.2192,-8.2192,-8.2192,-8.2192,-8.2192,-8.2192,-8.2192,-8.2192,-8.2192,-8.2192,-8.2192,-8.2192,-8.2192,-8.2192,-8.2192,-8.2192,-8.2192,-8.2192,-8.2192,-8.2192,-8.2192,-8.2192,-8.2192,-8.2192,-8.2192,-8.2192,-8.2378,-8.2563,-8.2932,-8.3637,-8.4573,-8.4392,-8.4489,-8.4888,-8.4297,-8.3679,-8.3061,-8.2415,-8.1853,-8.1403,-8.1403,-8.1403,-8.1575,-8.2454,-8.2791,-5.8026,-5.8392,-5.8706,-5.983,0.0,0.0,0.0,0.0,0.0,0.0,0.0,0.0,0.0,0.0,0.0,0.0,0.0,0.0,0.0,0.0,0.0,0.0,0.0,0.0,0.0,0.0,0.0,0.0,0.0,0.0,0.0,0.0,0.0,0.0,0.0,-7.861,-7.861,-7.861,-7.861,-7.861,-7.861,-7.861,-7.861,-7.861,-7.8936,-7.9506,-8.0103,-8.0727,-8.1351,-8.1894,-8.2138,-8.2192,-8.2192,-8.2192,-8.2192,-8.2138,-8.1785,-8.1378,-8.1921,-8.1785,-8.1459,-8.2002,-8.2192,-8.2192,-8.2192,-8.2192,-8.2192,-8.2192,-8.2192,-8.2192,-8.2192,-8.2192,-8.2192,-8.2192,-8.2192,-8.2192,-8.2192,-8.2192,-8.2192,-8.2192,-8.2192,-8.2192,-8.2192,-8.2192,-8.2192,-8.2192,-8.2192,-8.2192,-8.2192,-8.2192,-8.2192,-8.2192,-8.2192,-8.2563,-8.351,-8.4029,-8.4573,-8.5112,-8.4573,-8.4321,-8.4297,-8.3679,-8.3033,-8.2387,-8.1769,-8.1431,-8.1403,-8.1403,-8.1575,-8.2086,-8.2623,-8.296,-5.7765,-5.8235,-5.8706,-5.949,0.0,0.0,0.0,0.0,0.0,0.0,0.0,0.0,0.0,0.0,0.0,0.0,0.0,0.0,0.0,0.0,0.0,0.0,0.0,0.0,0.0,0.0,0.0,0.0,0.0,0.0,0.0,0.0,0.0,0.0,0.0,-7.861,-7.861,-7.861,-7.861,-7.861,-7.861,-7.861,-7.861,-7.899,-7.9479,-8.0103,-8.07,-8.1297,-8.1866,-8.2111,-8.2192,-8.2192,-8.2192,-8.1975,-8.1676,-8.2056,-8.1812,-8.1405,-8.1975,-8.2029,-8.1894,-8.2111,-8.2192,-8.2192,-8.2192,-8.2192,-8.2192,-8.2192,-8.2192,-8.2192,-8.2192,-8.2192,-8.2192,-8.2192,-8.2192,-8.2192,-8.2192,-8.2192,-8.2192,-8.2192,-8.2192,-8.2192,-8.2192,-8.2192,-8.2192,-8.2192,-8.2192,-8.2192,-8.2192,-8.2192,-8.2192,-8.2192,-8.2378,-8.3116,-8.4029,-8.4392,-8.4573,-8.5112,-8.4933,-8.4821,-8.4775,-8.4185,-8.3567,-8.2921,-8.2302,-8.1769,-8.1403,-8.1403,-8.1575,-8.2086,-8.2623,-8.296,-5.8314,-5.8627,-5.8967,-5.9725,0.0,0.0,0.0,0.0,0.0,0.0,0.0,0.0,0.0,0.0,0.0,0.0,0.0,0.0,0.0,0.0,0.0,0.0,0.0,0.0,0.0,0.0,0.0,0.0,0.0,0.0,0.0,0.0,0.0,0.0,0.0,-7.861,-7.861,-7.861,-7.861,-7.861,-7.861,-7.861,-7.861,-7.9207,-7.9831,-8.0455,-8.1052,-8.1649,-8.2192,-8.2192,-8.2192,-8.2192,-8.2192,-8.1948,-8.1622,-8.2029,-8.1921,-8.1649,-8.2056,-8.2192,-8.2192,-8.2192,-8.2192,-8.2192,-8.2192,-8.2192,-8.2192,-8.2192,-8.2192,-8.2192,-8.2192,-8.2192,-8.2192,-8.2192,-8.2192,-8.2192,-8.2192,-8.2192,-8.2192,-8.2192,-8.2192,-8.2192,-8.2192,-8.2192,-8.2192,-8.2192,-8.2192,-8.2192,-8.2192,-8.2192,-8.2192,-8.2378,-8.2932,-8.3637,-8.4392,-8.4377,-8.4445,-8.4831,-8.4831,-8.4747,-8.455,-8.4326,-8.3707,-8.2696,-8.2443,-8.1993,-8.1403,-8.1403,-8.1745,-8.2284,-8.2623,-8.3127,-6.0039,-5.9803,-5.9647,0.0,0.0,0.0,0.0,0.0,0.0,0.0,0.0,0.0,0.0,0.0,0.0,0.0,0.0,0.0,0.0,0.0,0.0,0.0,0.0,0.0,0.0,0.0,0.0,0.0,0.0,0.0,0.0,0.0,0.0,0.0,0.0,0.0,-7.861,-7.861,-7.861,-7.861,-7.861,-7.861,-7.8637,-7.9234,-7.9831,-8.0455,-8.1052,-8.1649,-8.2192,-8.2192,-8.2192,-8.2192,-8.2192,-8.2192,-8.2192,-8.2192,-8.2192,-8.2192,-8.2192,-8.2192,-8.2192,-8.2192,-8.2192,-8.2192,-8.2192,-8.2192,-8.2192,-8.2192,-8.2192,-8.2192,-8.2192,-8.2192,-8.2192,-8.2192,-8.2192,-8.2192,-8.2192,-8.2192,-8.2192,-8.2192,-8.2192,-8.2192,-8.2192,-8.2192,-8.2192,-8.2192,-8.2192,-8.2192,-8.2192,-8.2192,-8.2378,-8.2932,-8.382,-8.4392,-8.4392,-8.4372,-8.4185,-8.4185,-8.4185,-8.3932,-8.3314,-8.3876,-8.3314,-8.1459,-8.1993,-8.1993,-8.1403,-8.1403,-8.1916,-8.2791,-8.2791,-8.3295,-5.8967,0.0,0.0,0.0,0.0,0.0,0.0,0.0,0.0,0.0,0.0,0.0,0.0,0.0,0.0,0.0,0.0,0.0,0.0,0.0,0.0,0.0,0.0,0.0,0.0,0.0,0.0,0.0,0.0,0.0,0.0,0.0,0.0,0.0,0.0,-7.861,-7.861,-7.861,-7.861,-7.861,-7.861,-7.8827,-7.9234,-7.9858,-8.0482,-8.1079,-8.1676,-8.2029,-8.2192,-8.2192,-8.2192,-8.2192,-8.2192,-8.2192,-8.2192,-8.2192,-8.2192,-8.2192,-8.2192,-8.2192,-8.2192,-8.2192,-8.2192,-8.2192,-8.2192,-8.2192,-8.2192,-8.2192,-8.2192,-8.2192,-8.2192,-8.2192,-8.2192,-8.2192,-8.2192,-8.2192,-8.2192,-8.2192,-8.2192,-8.2192,-8.2192,-8.2192,-8.2192,-8.2192,-8.2192,-8.2192,-8.2192,-8.2192,-8.2192,-8.2563,-8.2932,-8.3327,-8.4029,-8.4573,-8.4933,-8.455,-8.4185,-8.4185,-8.3792,-8.3679,-8.3904,-8.4101,-8.3735,-8.2752,-8.2443,-8.1993,-8.1403,-8.1403,-8.1916,-8.2791,-8.2791,-8.3295,0.0,0.0,0.0,0.0,0.0,0.0,0.0,0.0,0.0,0.0,0.0,0.0,0.0,0.0,0.0,0.0,0.0,0.0,0.0,0.0,0.0,0.0,0.0,0.0,0.0,0.0,0.0,0.0,0.0,0.0,0.0,0.0,0.0,0.0,-7.861,-7.861,-7.861,-7.861,-7.861,-7.861,-7.8827,-7.9261,-7.9858,-8.0238,-8.0754,-8.1324,-8.1921,-8.2192,-8.2192,-8.2192,-8.2192,-8.2192,-8.2192,-8.2192,-8.2192,-8.2192,-8.2192,-8.2192,-8.2192,-8.2192,-8.2192,-8.2192,-8.2192,-8.2192,-8.2192,-8.2192,-8.2192,-8.2192,-8.2192,-8.2192,-8.2192,-8.2192,-8.2192,-8.2192,-8.2192,-8.2192,-8.2192,-8.2192,-8.2192,-8.2192,-8.2192,-8.2192,-8.2192,-8.2192,-8.2192,-8.2192,-8.2192,-8.2192,-8.2192,-8.2747,-8.3299,-8.3693,-8.4211,-8.4753,-8.5112,-8.4326,-8.382,-8.382,-8.323,-8.3061,-8.3426,-8.3707,-8.3426,-8.2555,-8.2387,-8.1993,-8.1403,-8.1575,-8.2086,-8.2791,-8.296,-8.3433,0.0,0.0,0.0,0.0,0.0,0.0,0.0,0.0,0.0,0.0,0.0,0.0,0.0,0.0,0.0,0.0,0.0,0.0,0.0,0.0,0.0,0.0,0.0,0.0,0.0,0.0,0.0,0.0,0.0,0.0,0.0,0.0,0.0,0.0,-7.861,-7.861,-7.861,-7.861,-7.861,0.0,-7.9207,-7.9804,-8.0428,-8.0482,-8.0835,-8.1405,-8.1948,-8.2192,-8.2192,-8.2192,-8.2192,-8.2192,-8.2192,-8.2192,-8.2192,-8.2192,-8.2192,-8.2192,-8.2192,-8.2192,-8.2192,-8.2192,-8.2192,-8.2192,-8.2192,-8.2192,-8.2192,-8.2192,-8.2192,-8.2192,-8.2192,-8.2192,-8.2192,-8.2192,-8.2192,-8.2192,-8.2192,-8.2192,-8.2192,-8.2192,-8.2192,-8.2192,-8.2192,-8.2192,-8.2192,-8.2192,-8.2192,-8.2192,-8.2192,-8.3116,-8.3693,-8.3693,-8.4573,-8.5112,-8.5112,-8.4045,-8.337,-8.337,-8.2752,-8.2387,-8.2302,-8.2892,-8.264,-8.1488,-8.1965,-8.1965,-8.1403,-8.1745,-8.2284,-8.2791,-8.3127,-8.36,0.0,0.0,0.0,0.0,0.0,0.0,0.0,0.0,0.0,0.0,0.0,0.0,0.0,0.0,0.0,0.0,0.0,0.0,0.0,0.0,0.0,0.0,0.0,0.0,0.0,0.0,0.0,0.0,0.0,0.0,0.0,0.0,0.0,-7.861,-7.861,-7.861,-7.861,-7.861,-7.861,0.0,-7.9207,-7.9804,-8.0428,-8.089,-8.1432,-8.2002,-8.2138,-8.2192,-8.2192,-8.2192,-8.2192,-8.2192,-8.2192,-8.2192,-8.2192,-8.2192,-8.2192,-8.2192,-8.2192,-8.2192,-8.2192,-8.2192,-8.2192,-8.2192,-8.2192,-8.2192,-8.2192,-8.2192,-8.2192,-8.2192,-8.2192,-8.2192,-8.2192,-8.2192,-8.2192,-8.2192,-8.2192,-8.2192,-8.2192,-8.2192,-8.2192,-8.2192,-8.2192,-8.2192,-8.2192,-8.2192,-8.2192,-8.2378,-8.2747,-8.3327,-8.3875,-8.4211,-8.4753,-8.5112,-8.5112,-8.4438,-8.3988,-8.3988,-8.3426,-8.2836,-8.233,-8.2443,-8.2387,-8.2106,-8.1769,-8.1516,-8.1403,-8.1575,-8.1916,-8.2791,-8.296,-8.3266,0.0,0.0,0.0,0.0,0.0,0.0,0.0,0.0,0.0,0.0,0.0,0.0,0.0,0.0,0.0,0.0,0.0,0.0,0.0,0.0,0.0,0.0,0.0,0.0,0.0,0.0,0.0,0.0,0.0,0.0,0.0,-7.8254,-7.8432,-7.861,-7.861,-7.861,-7.861,-7.861,-7.8746,-7.9044,-7.9641,-8.0401,-8.1269,-8.1595,-8.1894,-8.2192,-8.2192,-8.2192,-8.2192,-8.2192,-8.2192,-8.2192,-8.2192,-8.2192,-8.2192,-8.2192,-8.2192,-8.2192,-8.2192,-8.2192,-8.2192,-8.2192,-8.2192,-8.2192,-8.2192,-8.2192,-8.2192,-8.2192,-8.2192,-8.2192,-8.2192,-8.2192,-8.2192,-8.2192,-8.2192,-8.2192,-8.2192,-8.2192,-8.2192,-8.2192,-8.2192,-8.2192,-8.2192,-8.2192,-8.2192,-8.2192,-8.2192,-8.2378,-8.2932,-8.3327,-8.3875,-8.4392,-8.4753,-8.5112,-8.5112,-8.455,-8.4185,-8.4185,-8.3623,-8.2977,-8.233,-8.2611,-8.2499,-8.1881,-8.1853,-8.1684,-8.1403,-8.1575,-8.2086,-8.2791,-8.296,-8.3433,0.0,0.0,0.0,0.0,0.0,0.0,0.0,0.0,0.0,0.0,0.0,0.0,0.0,0.0,0.0,0.0,0.0,0.0,0.0,0.0,0.0,0.0,0.0,0.0,0.0,0.0,0.0,0.0,0.0,0.0,-7.7897,-7.7897,-7.8076,-7.861,-7.861,-7.861,-7.861,-7.861,-7.8909,-7.9506,-8.0238,-8.1134,-8.2192,-8.2192,-8.2192,-8.2192,-8.2192,-8.2138,-8.2029,-8.2029,-8.1975,-8.1894,-8.1894,-8.1948,-8.2029,-8.2029,-8.2111,-8.2192,-8.2192,-8.2192,-8.2192,-8.2192,-8.2192,-8.2192,-8.2192,-8.2192,-8.2192,-8.2192,-8.2192,-8.2192,-8.2192,-8.2192,-8.2192,-8.2192,-8.2192,-8.2192,-8.2192,-8.2192,-8.2192,-8.2192,-8.2192,-8.2192,-8.2192,-8.2192,-8.2192,-8.2192,-8.2192,-8.2563,-8.2932,-8.351,-8.4057,-8.4392,-8.4933,-8.5112,-8.5112,-8.4635,-8.4354,-8.4354,-8.3876,-8.3314,-8.2668,-8.3258,-8.3005,-8.174,-8.2106,-8.205,-8.1544,-8.1802,-8.2256,-8.2791,-8.3099,-8.36,0.0,0.0,0.0,0.0,0.0,0.0,0.0,0.0,0.0,0.0,0.0,0.0,0.0,0.0,0.0,0.0,0.0,0.0,0.0,0.0,0.0,0.0,0.0,0.0,0.0,0.0,0.0,0.0,0.0,0.0,-7.7897,-7.7897,-7.8076,-7.861,-7.861,-7.861,-7.861,-7.861,-7.8909,-7.9506,-8.0645,-8.1541,-8.2192,-8.2192,-8.2192,-8.2192,-8.2192,-8.1894,-8.1432,-8.1432,-8.1107,-8.0645,-8.0645,-8.0971,-8.1432,-8.1432,-8.1758,-8.2192,-8.2192,-8.2192,-8.2192,-8.2192,-8.2192,-8.2192,-8.2192,-8.2192,-8.2192,-8.2192,-8.2192,-8.2192,-8.2192,-8.2192,-8.2192,-8.2192,-8.2192,-8.2192,-8.2192,-8.2192,-8.2192,-8.2192,-8.2192,-8.2192,-8.2192,-8.2192,-8.2192,-8.2192,-8.2563,-8.2932,-8.351,-8.4029,-8.4573,-8.4933,-8.5112,-8.5112,-8.5112,-8.5028,-8.5,-8.5,-8.4916,-8.4578,-8.396,-8.4522,-8.4297,-8.3061,-8.2555,-8.2274,-8.219,-8.1656,-8.1916,-8.2791,-8.2791,-8.3266,0.0,0.0,0.0,0.0,0.0,0.0,0.0,0.0,0.0,0.0,0.0,0.0,0.0,0.0,0.0,0.0,0.0,0.0,0.0,0.0,0.0,0.0,0.0,0.0,0.0,0.0,0.0,0.0,0.0,-7.6634,-7.6997,-7.7358,-7.7718,-7.8254,-7.8432,-7.861,-7.861,-7.861,-7.9071,-8.0021,-8.1215,-8.1921,-8.2192,-8.2192,-8.2192,-8.2165,-8.1839,-8.1541,-8.1269,-8.0944,-8.0645,-8.0428,-8.0428,-8.0781,-8.1297,-8.1297,-8.1676,-8.2192,-8.2192,-8.2192,-8.2192,-8.2192,-8.2192,-8.2192,-8.2192,-8.2192,-8.2192,-8.2192,-8.2192,-8.2192,-8.2192,-8.2192,-8.2192,-8.2192,-8.2192,-8.2192,-8.2192,-8.2192,-8.2192,-8.2192,-8.2192,-8.2192,-8.2192,-8.2192,-8.2192,-8.2192,-8.2378,-8.2747,-8.351,-8.3875,-8.4211,-8.5112,-8.5112,-8.5112,-8.5112,-8.5112,-8.5112,-8.5112,-8.5112,-8.4831,-8.4213,-8.4775,-8.4691,-8.382,-8.3511,-8.3202,-8.2864,-8.2931,-8.3135,-8.3791,-8.3787,-8.398,0.0,0.0,0.0,0.0,0.0,0.0,0.0,0.0,0.0,0.0,0.0,0.0,0.0,0.0,0.0,0.0,0.0,0.0,0.0,0.0,0.0,0.0,0.0,0.0,0.0,0.0,0.0,0.0,0.0,-7.5747,-7.6452,-7.6842,-7.7385,-7.7897,-7.8254,-7.8432,-7.861,-7.8909,-7.9614,-8.0645,-8.1704,-8.2192,-8.2192,-8.2029,-8.1975,-8.1948,-8.1514,-8.1215,-8.1025,-8.0428,-8.0103,-7.9967,-7.9967,-8.0428,-8.1079,-8.1079,-8.1459,-8.1975,-8.1975,-8.1866,-8.1731,-8.1731,-8.1731,-8.1758,-8.1921,-8.1975,-8.2002,-8.2138,-8.2192,-8.2192,-8.2192,-8.2192,-8.2192,-8.2192,-8.2192,-8.2192,-8.2192,-8.2192,-8.2192,-8.2192,-8.2192,-8.2192,-8.2192,-8.2192,-8.2192,-8.2192,-8.2378,-8.2747,-8.351,-8.3875,-8.4211,-8.4933,-8.5112,-8.5112,-8.5112,-8.5112,-8.5112,-8.5112,-8.5112,-8.4916,-8.4438,-8.4859,-8.4888,-8.4438,-8.4269,-8.396,-8.3511,-8.3895,-8.4073,-8.4363,-8.4416,-8.472,0.0,0.0,0.0,0.0,0.0,0.0,0.0,0.0,0.0,0.0,0.0,0.0,0.0,0.0,0.0,0.0,0.0,0.0,0.0,0.0,0.0,0.0,0.0,0.0,0.0,0.0,0.0,0.0,0.0,-7.5354,-7.6426,-7.6452,-7.6997,-7.7897,-7.7897,-7.8076,-7.861,-7.975,-8.0645,-8.1269,-8.1894,-8.2192,-8.2165,-8.1622,-8.1351,-8.1351,-8.1324,-8.0998,-8.0428,-7.9804,-7.9207,-7.8692,-7.8692,-7.9424,-8.0482,-8.0482,-8.0835,-8.1351,-8.1351,-8.0971,-8.051,-8.051,-8.051,-8.0618,-8.1188,-8.1351,-8.1459,-8.2029,-8.2192,-8.2192,-8.2192,-8.2192,-8.2192,-8.2192,-8.2192,-8.2192,-8.2192,-8.2192,-8.2192,-8.2192,-8.2192,-8.2192,-8.2192,-8.2192,-8.2192,-8.2192,-8.2563,-8.3116,-8.3693,-8.4029,-8.4573,-8.5112,-8.5112,-8.5112,-8.5112,-8.5112,-8.5112,-8.5112,-8.5112,-8.5112,-8.5056,-8.5084,-8.5112,-8.5056,-8.4494,-8.4185,-8.4157,-8.4093,-8.3846,-8.3763,-8.4243,-8.472,0.0,0.0,0.0,0.0,0.0,0.0,0.0,0.0,0.0,0.0,0.0,0.0,0.0,0.0,0.0,0.0,0.0,0.0,0.0,0.0,0.0,0.0,0.0,0.0,0.0,0.0,0.0,0.0,0.0,0.0,-7.5878,-7.627,-7.6634,-7.6997,-7.7358,-7.7905,-7.8642,-7.9434,-8.032,-8.1297,-8.1134,-8.1269,-8.1595,-8.0998,-8.0727,-8.0727,-8.032,-8.0021,-7.9777,-7.918,-7.88,-7.861,-7.861,-7.9099,-7.9831,-7.9831,-8.0211,-8.0727,-8.0727,-8.0835,-8.0998,-8.0998,-8.1242,-8.1595,-8.1812,-8.1866,-8.1921,-8.2138,-8.2192,-8.2192,-8.2192,-8.2192,-8.2192,-8.2192,-8.2192,-8.2083,-8.1704,-8.1921,-8.1975,-8.1215,-8.1676,-8.2083,-8.1676,-8.1921,-8.2192,-8.2192,-8.2378,-8.2747,-8.351,-8.3875,-8.4211,-8.4933,-8.5112,-8.5112,-8.5112,-8.5112,-8.5112,-8.5112,-8.5112,-8.5112,-8.5112,-8.5112,-8.5112,-8.5112,-8.4888,-8.4775,-8.4775,-8.4863,-8.4961,-8.4934,-8.5764,-8.5902,0.0,0.0,0.0,0.0,0.0,0.0,0.0,0.0,0.0,0.0,0.0,0.0,0.0,0.0,0.0,0.0,0.0,0.0,0.0,0.0,0.0,0.0,0.0,0.0,0.0,0.0,0.0,0.0,0.0,0.0,-7.5669,-7.6088,-7.627,-7.6452,-7.7204,-7.7832,-7.8784,-7.9299,-7.9994,-8.0998,-8.0618,-8.0618,-8.0998,-8.0374,-8.0103,-8.0075,-7.9451,-7.9289,-7.9451,-7.8854,-7.861,-7.861,-7.861,-7.8963,-7.9479,-7.9479,-7.975,-8.0103,-8.0103,-8.0238,-8.0428,-8.0645,-8.0835,-8.1107,-8.1704,-8.1758,-8.1676,-8.2083,-8.2192,-8.2192,-8.2192,-8.2029,-8.1894,-8.1894,-8.1731,-8.1432,-8.0835,-8.1324,-8.1595,-8.0618,-8.1215,-8.1758,-8.1378,-8.1785,-8.2192,-8.2192,-8.2192,-8.2563,-8.3327,-8.351,-8.4057,-8.4753,-8.4933,-8.5112,-8.5112,-8.5112,-8.5112,-8.5112,-8.5112,-8.5112,-8.5112,-8.5112,-8.5,-8.4803,-8.4607,-8.4494,-8.4494,-8.5379,-8.5616,-8.5591,-8.6457,-8.6597,0.0,0.0,0.0,0.0,0.0,0.0,0.0,0.0,0.0,0.0,0.0,0.0,0.0,0.0,0.0,0.0,0.0,0.0,0.0,0.0,0.0,0.0,0.0,0.0,0.0,0.0,0.0,0.0,0.0,-7.4493,-7.5643,-7.5695,-7.5878,-7.6426,-7.7331,-7.8166,-7.8757,-7.9272,-7.9777,-8.0428,-8.0374,-8.0374,-8.0374,-7.975,-7.9451,-7.9424,-7.8854,-7.8936,-7.9424,-7.8827,-7.861,-7.861,-7.861,-7.8963,-7.9451,-7.9451,-7.9451,-7.9451,-7.9451,-7.9099,-7.8719,-7.9289,-7.9126,-7.899,-8.0754,-8.089,-8.07,-8.1812,-8.2165,-8.2192,-8.2165,-8.1731,-8.1269,-8.1269,-8.0835,-8.0238,-7.9614,-8.0428,-8.1079,-8.051,-8.089,-8.1297,-8.1297,-8.1785,-8.2192,-8.2192,-8.2192,-8.2378,-8.2932,-8.3327,-8.3875,-8.4392,-8.4753,-8.5112,-8.5112,-8.5112,-8.5112,-8.5112,-8.5112,-8.5112,-8.5112,-8.5112,-8.4831,-8.4241,-8.3623,-8.3342,-8.3342,-8.4998,-8.5606,-8.5562,-8.6112,-8.6657,-5.9281,0.0,0.0,0.0,0.0,0.0,0.0,0.0,0.0,0.0,0.0,0.0,0.0,0.0,0.0,0.0,0.0,0.0,0.0,0.0,0.0,0.0,0.0,0.0,0.0,0.0,0.0,0.0,-7.3761,-7.4336,-7.5094,-7.5512,-7.5538,-7.5328,-7.6179,-7.6984,-7.7572,-7.8065,-7.8963,-8.0401,-7.9533,-7.9343,-7.9723,-7.9126,-7.8854,-7.8827,-7.8664,-7.8692,-7.8827,-7.8664,-7.861,-7.861,-7.861,-7.8692,-7.8854,-7.8854,-7.8854,-7.8854,-7.8854,-7.9017,-7.9261,-7.9451,-7.9696,-8.0021,-8.051,-8.0862,-8.1052,-8.0944,-8.1541,-8.2083,-8.1649,-8.1107,-8.0672,-8.0672,-8.0537,-8.0238,-7.9614,-7.975,-7.994,-7.9777,-8.0591,-8.1297,-8.1297,-8.1785,-8.2192,-8.2192,-8.2192,-8.2378,-8.2932,-8.3327,-8.3875,-8.4392,-8.4753,-8.5112,-8.5112,-8.5112,-8.5112,-8.5112,-8.5112,-8.5112,-8.5112,-8.5112,-8.5028,-8.4859,-8.4691,-8.4607,-8.4607,-8.4574,-8.4381,-8.4385,-8.6681,-8.8165,0.0,0.0,0.0,0.0,0.0,0.0,0.0,0.0,0.0,0.0,0.0,0.0,0.0,0.0,0.0,0.0,0.0,0.0,0.0,0.0,0.0,0.0,0.0,0.0,0.0,0.0,0.0,-7.3055,-7.3656,-7.4362,-7.5199,-7.5094,-7.4963,-7.4911,-7.5344,-7.5907,-7.6432,-7.7036,-7.8053,-7.9289,-7.8827,-7.8773,-7.9099,-7.8773,-7.861,-7.861,-7.861,-7.861,-7.861,-7.861,-7.861,-7.861,-7.861,-7.861,-7.861,-7.861,-7.8773,-7.8936,-7.8692,-7.899,-7.9479,-7.9479,-7.956,-7.975,-8.0265,-8.0482,-8.0537,-8.0455,-8.0917,-8.1378,-8.1025,-8.0482,-8.0021,-8.0021,-7.9831,-7.956,-7.9207,-7.9126,-7.918,-7.9451,-8.0265,-8.0998,-8.1269,-8.1785,-8.2192,-8.2192,-8.2192,-8.2378,-8.2563,-8.3327,-8.3875,-8.4029,-8.4753,-8.5112,-8.5112,-8.5112,-8.5112,-8.5112,-8.5112,-8.5112,-8.5112,-8.4859,-8.4719,-8.4719,-8.4213,-8.4398,-8.5474,-8.4835,-8.4896,-8.5882,-8.8413,-8.9994,0.0,0.0,0.0,0.0,0.0,0.0,-6.4456,-6.4717,-6.49,0.0,0.0,0.0,0.0,0.0,0.0,0.0,0.0,0.0,0.0,0.0,0.0,0.0,0.0,0.0,0.0,-7.2297,-7.2506,-7.2977,-7.3578,-7.4388,-7.546,-7.4571,-7.4232,-7.4702,-7.4717,-7.4782,-7.5163,-7.6253,-7.7105,-7.7539,-7.8135,-7.861,-7.861,-7.861,-7.861,-7.861,-7.861,-7.861,-7.861,-7.861,-7.861,-7.861,-7.861,-7.861,-7.861,-7.861,-7.8936,-7.9316,-7.8854,-7.9017,-7.9397,-7.9479,-7.9071,-7.88,-7.9886,-7.9886,-7.9614,-8.0238,-8.032,-8.0238,-8.0293,-7.9858,-7.9397,-7.9397,-7.899,-7.861,-7.861,-7.861,-7.8773,-7.937,-7.9994,-8.0618,-8.1215,-8.1785,-8.2192,-8.2192,-8.2192,-8.2192,-8.2192,-8.3143,-8.3693,-8.3693,-8.4573,-8.5112,-8.5112,-8.5112,-8.5112,-8.5112,-8.5056,-8.5,-8.5,-8.441,-8.4101,-8.4101,-8.3208,-8.3963,-8.6042,-8.547,-8.6567,-8.8811,-9.0984,-9.1993,0.0,0.0,0.0,0.0,0.0,0.0,-6.2731,-6.3254,-6.4195,0.0,0.0,0.0,0.0,0.0,0.0,0.0,0.0,0.0,0.0,0.0,0.0,0.0,0.0,0.0,0.0,-7.2297,-7.235,-7.2454,-7.2977,-7.3578,-7.431,-7.4127,-7.3839,-7.3474,-7.3698,-7.4024,-7.4227,-7.5136,-7.6173,-7.7159,-7.7779,-7.8254,-7.861,-7.861,-7.861,-7.861,-7.861,-7.861,-7.861,-7.861,-7.861,-7.861,-7.861,-7.861,-7.861,-7.861,-7.8664,-7.8827,-7.918,-7.9071,-7.8854,-7.9343,-7.9071,-7.8637,-7.8882,-7.9207,-7.9614,-8.0238,-7.9723,-7.9071,-7.956,-7.9234,-7.8773,-7.8773,-7.8692,-7.861,-7.861,-7.861,-7.8773,-7.937,-7.9994,-8.0618,-8.1215,-8.1785,-8.2192,-8.2192,-8.2192,-8.2192,-8.2192,-8.3143,-8.3693,-8.3693,-8.4573,-8.5112,-8.5112,-8.5112,-8.5112,-8.5112,-8.4635,-8.4382,-8.4382,-8.3792,-8.3454,-8.3454,-8.5164,-8.6397,-8.7406,-8.6773,-8.7914,-9.0624,-9.2093,-9.3114,0.0,0.0,0.0,-6.2391,0.0,0.0,0.0,-6.3045,0.0,0.0,0.0,0.0,0.0,0.0,0.0,0.0,0.0,0.0,0.0,0.0,0.0,0.0,0.0,0.0,0.0,-7.2036,-7.1853,-7.1853,-7.2114,-7.2637,-7.35,-7.3317,-7.3134,-7.3108,-7.3023,-7.3243,-7.3417,-7.4439,-7.5552,-7.6552,-7.7467,-7.8076,-7.861,-7.861,-7.861,-7.861,-7.861,-7.861,-7.861,-7.861,-7.861,-7.861,-7.861,-7.861,-7.861,-7.861,-7.88,-7.9044,-7.9044,-7.9044,-7.9044,-7.9044,-7.8854,-7.861,-7.861,-7.88,-7.9099,-7.9424,-7.9071,-7.8664,-7.8963,-7.8827,-7.861,-7.861,-7.861,-7.861,-7.861,-7.861,-7.8692,-7.899,-7.9533,-8.0157,-8.0754,-8.1107,-8.1297,-8.1297,-8.1297,-8.1405,-8.1704,-8.231,-8.2997,-8.3665,-8.4392,-8.4933,-8.5112,-8.4831,-8.4663,-8.4663,-8.4073,-8.3735,-8.3735,-8.3117,-8.3302,-8.4105,-8.681,-8.8766,-8.992,-8.992,-9.0756,-9.2093,-9.3715,-9.4556,0.0,0.0,0.0,0.0,0.0,-6.2652,0.0,0.0,0.0,0.0,0.0,0.0,0.0,0.0,0.0,0.0,0.0,0.0,0.0,0.0,0.0,0.0,0.0,0.0,0.0,-7.1592,-7.1252,-7.1252,-7.1252,-7.1696,-7.2716,-7.248,-7.2506,-7.2925,-7.2533,-7.2472,-7.2795,-7.3998,-7.4933,-7.5947,-7.7225,-7.7968,-7.861,-7.861,-7.861,-7.861,-7.861,-7.861,-7.861,-7.861,-7.861,-7.861,-7.861,-7.861,-7.861,-7.861,-7.8909,-7.9261,-7.8909,-7.9017,-7.9261,-7.8882,-7.8692,-7.861,-7.861,-7.861,-7.861,-7.861,-7.861,-7.861,-7.861,-7.861,-7.861,-7.861,-7.861,-7.861,-7.861,-7.861,-7.861,-7.861,-7.899,-7.9506,-8.013,-8.0347,-8.0428,-8.0428,-8.051,-8.0754,-8.1242,-8.1772,-8.2539,-8.3472,-8.3863,-8.4349,-8.4775,-8.441,-8.4157,-8.4016,-8.3567,-8.323,-8.3089,-8.2902,-8.3507,-8.5113,-8.8353,-9.0638,-9.2222,-9.3122,-9.3558,-9.3558,-9.5018,-9.5691,0.0,0.0,0.0,0.0,-6.3541,0.0,0.0,0.0,0.0,0.0,0.0,0.0,0.0,0.0,0.0,0.0,0.0,0.0,0.0,0.0,0.0,0.0,0.0,0.0,0.0,0.0,-7.0677,-7.0677,-7.0677,-7.0938,-7.1565,-7.2036,-7.2323,-7.2402,-7.2323,-7.2297,-7.2297,-7.3427,-7.4535,-7.5596,-7.6618,-7.7564,-7.861,-7.861,-7.861,-7.861,-7.861,-7.861,-7.861,-7.861,-7.861,-7.861,-7.861,-7.861,-7.861,-7.861,-7.8637,-7.8773,-7.9234,-7.9071,-7.8773,-7.9234,-7.9044,-7.861,-7.861,-7.861,-7.861,-7.861,-7.861,-7.861,-7.861,-7.861,-7.861,-7.861,-7.861,-7.861,-7.861,-7.861,-7.861,-7.861,-7.8664,-7.8882,-7.9506,-8.0048,-8.0428,-8.0428,-8.0862,-8.1215,-8.1297,-8.2126,-8.2814,-8.271,-8.3225,-8.3539,-8.3539,-8.3932,-8.396,-8.3426,-8.3314,-8.3033,-8.2443,-8.3818,-8.5004,-8.5723,-8.9701,-9.2156,-9.296,-9.4648,-9.5356,-9.5356,-9.5691,-9.5691,0.0,0.0,0.0,0.0,0.0,0.0,0.0,0.0,-6.3933,0.0,0.0,0.0,0.0,0.0,0.0,0.0,0.0,0.0,0.0,0.0,0.0,0.0,0.0,0.0,0.0,0.0,0.0,0.0,0.0,-6.9971,-7.0886,-7.1461,-7.1931,-7.2297,-7.2297,-7.2297,-7.2297,-7.3023,-7.4104,-7.5419,-7.6183,-7.7332,-7.861,-7.861,-7.861,-7.861,-7.861,-7.861,-7.861,-7.861,-7.861,-7.861,-7.861,-7.861,-7.861,-7.861,-7.861,-7.8637,-7.8882,-7.88,-7.8637,-7.8909,-7.88,-7.861,-7.861,-7.861,-7.861,-7.861,-7.861,-7.861,-7.861,-7.861,-7.861,-7.861,-7.861,-7.861,-7.861,-7.861,-7.861,-7.861,-7.861,-7.88,-7.9397,-7.9696,-7.9886,-7.9886,-8.0401,-8.0917,-8.1269,-8.1398,-8.1737,-8.2573,-8.2602,-8.2654,-8.3286,-8.3173,-8.3005,-8.2724,-8.3364,-8.3532,-8.3246,-8.6321,-8.8276,-8.8908,-9.2041,-9.3869,-9.4556,-9.5356,-9.5691,-9.5691,-9.5691,-9.5691,-6.524,0.0,0.0,0.0,0.0,0.0,0.0,0.0,0.0,0.0,0.0,0.0,0.0,0.0,0.0,0.0,0.0,0.0,0.0,0.0,0.0,0.0,0.0,0.0,0.0,0.0,0.0,-6.8612,-6.8612,-6.9056,-7.0049,-7.0938,-7.1592,-7.2036,-7.2219,-7.2297,-7.2297,-7.2865,-7.3716,-7.503,-7.5943,-7.6886,-7.8189,-7.8529,-7.861,-7.861,-7.861,-7.861,-7.861,-7.861,-7.861,-7.861,-7.861,-7.861,-7.861,-7.861,-7.861,-7.861,-7.861,-7.861,-7.861,-7.861,-7.861,-7.861,-7.861,-7.861,-7.861,-7.861,-7.861,-7.861,-7.861,-7.861,-7.861,-7.861,-7.861,-7.861,-7.861,-7.861,-7.8664,-7.88,-7.8719,-7.88,-7.9397,-7.9479,-7.956,-7.9723,-8.0265,-8.0808,-8.1242,-8.0944,-8.1118,-8.2117,-8.1911,-8.2032,-8.2605,-8.264,-8.2673,-8.2965,-8.3692,-8.4204,-8.4842,-8.8516,-9.0652,-9.1298,-9.3799,-9.5217,-9.5691,-9.5691,-9.5691,-9.5691,-9.5691,-9.5691,0.0,0.0,0.0,-6.4848,0.0,0.0,0.0,0.0,-6.4665,0.0,0.0,0.0,0.0,0.0,-6.5972,-6.5423,0.0,0.0,0.0,0.0,0.0,0.0,0.0,0.0,0.0,0.0,0.0,-6.8011,-6.8011,-6.8272,-6.8873,-7.0494,-7.1409,-7.1435,-7.201,-7.2297,-7.2297,-7.2821,-7.3286,-7.3919,-7.5355,-7.6445,-7.7036,-7.8162,-7.861,-7.861,-7.861,-7.861,-7.861,-7.861,-7.861,-7.861,-7.861,-7.861,-7.861,-7.861,-7.861,-7.861,-7.861,-7.861,-7.861,-7.861,-7.861,-7.861,-7.861,-7.861,-7.861,-7.861,-7.861,-7.861,-7.861,-7.861,-7.861,-7.861,-7.861,-7.861,-7.861,-7.861,-7.8773,-7.9343,-7.899,-7.88,-7.9397,-7.9479,-7.9696,-8.0293,-8.089,-8.1297,-8.1297,-8.1297,-8.1235,-8.1234,-8.1484,-8.1494,-8.0853,-8.2381,-8.3645,-8.4801,-8.4329,-8.5035,-8.7217,-8.9687,-9.1329,-9.1975,-9.4457,-9.566,-9.5691,-9.5691,-9.5691,-9.5691,-9.5691,-9.5691,0.0,0.0,-6.7227,-6.6416,0.0,0.0,0.0,0.0,0.0,0.0,0.0,0.0,0.0,0.0,-6.6076,-6.5475,-6.5554,-6.5606,0.0,0.0,0.0,0.0,0.0,0.0,0.0,0.0,0.0,-6.7985,-6.7619,-6.7985,0.0,-6.9945,-7.0624,-7.1382,-7.1984,-7.2297,-7.2297,-7.2472,-7.2936,-7.3893,-7.4774,-7.5863,-7.7009,-7.7806,-7.8254,-7.861,-7.861,-7.861,-7.861,-7.861,-7.861,-7.861,-7.861,-7.861,-7.861,-7.861,-7.861,-7.861,-7.861,-7.861,-7.861,-7.861,-7.861,-7.861,-7.861,-7.861,-7.861,-7.861,-7.861,-7.861,-7.861,-7.861,-7.861,-7.861,-7.861,-7.861,-7.861,-7.861,-7.8664,-7.8854,-7.8746,-7.88,-7.9397,-7.9479,-7.9696,-8.032,-8.1269,-8.1894,-8.1894,-8.1541,-8.1398,-8.1754,-8.1551,-8.147,-8.194,-8.342,-8.5177,-8.7149,-8.7846,-8.8577,-8.9874,-9.2195,-9.3642,-9.3861,-9.5009,-9.5913,-9.6418,-9.5913,-9.5944,-9.6418,-9.5913,-9.5691,-6.8821,-6.8769,0.0,-6.7854,-6.7305,0.0,-6.5423,0.0,0.0,0.0,0.0,0.0,0.0,0.0,-6.6991,-6.6416,-6.6129,-6.5841,0.0,-6.5371,0.0,0.0,0.0,0.0,0.0,0.0,-6.7671,-6.7671,-6.7122,-6.7305,0.0,0.0,-6.9814,-7.0755,-7.1565,-7.2088,-7.2297,-7.2297,-7.2656,-7.34,-7.4306,-7.5216,-7.651,-7.7483,-7.8065,-7.861,-7.861,-7.861,-7.861,-7.861,-7.861,-7.861,-7.861,-7.861,-7.861,-7.861,-7.861,-7.861,-7.861,-7.861,-7.861,-7.861,-7.861,-7.861,-7.861,-7.861,-7.8637,-7.8854,-7.8773,-7.8664,-7.8854,-7.8773,-7.861,-7.861,-7.861,-7.861,-7.861,-7.861,-7.8664,-7.8882,-7.8746,-7.88,-7.9397,-7.9479,-7.9696,-8.032,-8.1242,-8.1866,-8.1866,-8.1541,-8.148,-8.1663,-8.1491,-8.2146,-8.3658,-8.51,-8.7061,-8.9258,-9.0156,-9.1022,-9.238,-9.3794,-9.4933,-9.5439,-9.5849,-9.6323,-9.6797,-9.6292,-9.6197,-9.6387,-9.5913,-9.5691]}]]